[[{"header":{"parameterUnit":"m.s-1","parameterCategory":1,"la1":30.6,"la2":28.766,"lo1":-90.7593,"lo2":-88.6598,"dy":0.0162,"dx":0.0183,"nx":116,"ny":114,"refTime":"2023-09-09T06:00:00:Z","depth":0,"parameterNumber":2,"parameterNumberName":"U-component_of_WINDS"},"data":[0.0,0.0,0.0,0.0,0.0,0.0,0.0,0.0,0.0,0.0,0.0,0.0,0.0,0.0,0.0,0.0,0.0,0.0,0.0,0.0,0.0,0.0,0.0,0.0,0.0,0.0,0.0,0.0,0.0,0.0,0.0,0.0,0.0,0.0,0.0,0.0,0.0,0.0,0.0,0.0,0.0,0.0,0.0,0.0,0.0,0.0,0.0,0.0,0.0,0.0,0.0,0.0,0.0,0.0,0.0,0.0,0.0,0.0,0.0,0.0,0.0,0.0,0.0,0.0,0.0,0.0,0.0,0.0,0.0,0.0,0.0,0.0,0.0,0.0,0.0,0.0,0.0,0.0,0.0,0.0,0.0,0.0,0.0,0.0,0.0,0.0,0.0,0.0,0.0,0.0,0.0,0.0,0.0,0.0,0.0,0.0,0.0,0.0,0.0,0.0,0.0,0.0,0.0,0.0,0.0,0.0,0.0,0.0,0.0,0.0,0.0,0.0,0.0,0.0,0.0,0.0,0.0,0.0,0.0,0.0,0.0,0.0,0.0,0.0,0.0,0.0,0.0,0.0,0.0,0.0,0.0,0.0,0.0,0.0,0.0,0.0,0.0,0.0,0.0,0.0,0.0,0.0,0.0,0.0,0.0,0.0,0.0,0.0,0.0,0.0,0.0,0.0,0.0,0.0,0.0,0.0,0.0,0.0,0.0,0.0,0.0,0.0,0.0,0.0,0.0,0.0,0.0,0.0,0.0,0.0,0.0,0.0,0.0,0.0,0.0,0.0,0.0,0.0,0.0,0.0,0.0,0.0,0.0,0.0,0.0,0.0,0.0,0.0,0.0,0.0,0.0,0.0,0.0,0.0,0.0,0.0,0.0,0.0,0.0,0.0,0.0,0.0,0.0,0.0,0.0,0.0,0.0,0.0,0.0,0.0,0.0,0.0,0.0,0.0,0.0,0.0,0.0,0.0,0.0,0.0,0.0,0.0,0.0,0.0,0.0,0.0,0.0,0.0,0.0,0.0,0.0,0.0,0.0,0.0,0.0,0.0,0.0,0.0,0.0,0.0,0.0,0.0,0.0,0.0,0.0,0.0,0.0,0.0,0.0,0.0,0.0,0.0,0.0,0.0,0.0,0.0,0.0,0.0,0.0,0.0,0.0,0.0,0.0,0.0,0.0,0.0,0.0,0.0,0.0,0.0,0.0,0.0,0.0,0.0,0.0,0.0,0.0,0.0,0.0,0.0,0.0,0.0,0.0,0.0,0.0,0.0,0.0,0.0,0.0,0.0,0.0,0.0,0.0,0.0,0.0,0.0,0.0,0.0,0.0,0.0,0.0,0.0,0.0,0.0,0.0,0.0,0.0,0.0,0.0,0.0,0.0,0.0,0.0,0.0,0.0,0.0,0.0,0.0,0.0,0.0,0.0,0.0,0.0,0.0,0.0,0.0,0.0,0.0,0.0,0.0,0.0,0.0,0.0,0.0,0.0,0.0,0.0,0.0,0.0,0.0,0.0,0.0,0.0,0.0,0.0,0.0,0.0,0.0,0.0,0.0,0.0,0.0,0.0,0.0,0.0,0.0,0.0,0.0,0.0,0.0,0.0,0.0,0.0,0.0,0.0,0.0,0.0,0.0,0.0,0.0,0.0,0.0,0.0,0.0,0.0,0.0,0.0,0.0,0.0,0.0,0.0,0.0,0.0,0.0,0.0,0.0,0.0,0.0,0.0,0.0,0.0,0.0,0.0,0.0,0.0,0.0,0.0,0.0,0.0,0.0,0.0,0.0,0.0,0.0,0.0,0.0,0.0,0.0,0.0,0.0,0.0,0.0,0.0,0.0,0.0,0.0,0.0,0.0,0.0,0.0,0.0,0.0,0.0,0.0,0.0,0.0,0.0,0.0,0.0,0.0,0.0,0.0,0.0,0.0,0.0,0.0,0.0,0.0,0.0,0.0,0.0,0.0,0.0,0.0,0.0,0.0,0.0,0.0,0.0,0.0,0.0,0.0,0.0,0.0,0.0,0.0,0.0,0.0,0.0,0.0,0.0,0.0,0.0,0.0,0.0,0.0,0.0,0.0,0.0,0.0,0.0,0.0,0.0,0.0,0.0,0.0,0.0,0.0,0.0,0.0,0.0,0.0,0.0,0.0,0.0,0.0,0.0,0.0,0.0,0.0,0.0,0.0,0.0,0.0,0.0,0.0,0.0,0.0,0.0,0.0,0.0,0.0,0.0,0.0,0.0,0.0,0.0,0.0,0.0,0.0,0.0,0.0,0.0,0.0,0.0,0.0,0.0,0.0,0.0,0.0,0.0,0.0,0.0,0.0,0.0,0.0,0.0,0.0,0.0,0.0,0.0,0.0,0.0,0.0,0.0,0.0,0.0,0.0,0.0,0.0,0.0,0.0,0.0,0.0,0.0,0.0,0.0,0.0,0.0,0.0,0.0,0.0,0.0,0.0,0.0,0.0,0.0,0.0,0.0,0.0,0.0,0.0,0.0,0.0,0.0,0.0,0.0,0.0,0.0,0.0,0.0,0.0,0.0,0.0,0.0,0.0,0.0,0.0,0.0,0.0,0.0,0.0,0.0,0.0,0.0,0.0,0.0,0.0,0.0,0.0,0.0,0.0,0.0,0.0,0.0,0.0,0.0,0.0,0.0,0.0,0.0,0.0,0.0,0.0,0.0,0.0,0.0,0.0,0.0,0.0,0.0,0.0,0.0,0.0,0.0,0.0,0.0,0.0,0.0,0.0,0.0,0.0,0.0,0.0,0.0,0.0,0.0,0.0,0.0,0.0,0.0,0.0,0.0,0.0,0.0,0.0,0.0,0.0,0.0,0.0,0.0,0.0,0.0,0.0,0.0,0.0,0.0,0.0,0.0,0.0,0.0,0.0,0.0,0.0,0.0,0.0,0.0,0.0,0.0,0.0,0.0,0.0,0.0,0.0,0.0,0.0,0.0,0.0,0.0,0.0,0.0,0.0,0.0,0.0,0.0,0.0,0.0,0.0,0.0,0.0,0.0,0.0,0.0,0.0,0.0,0.0,0.0,0.0,0.0,0.0,0.0,0.0,0.0,0.0,0.0,0.0,0.0,0.0,0.0,0.0,0.0,0.0,0.0,0.0,0.0,0.0,0.0,0.0,0.0,0.0,0.0,0.0,0.0,0.0,0.0,0.0,0.0,0.0,0.0,0.0,0.0,0.0,0.0,0.0,0.0,0.0,0.0,0.0,0.0,0.0,0.0,0.0,0.0,0.0,0.0,0.0,0.0,0.0,0.0,0.0,0.0,0.0,0.0,0.0,0.0,0.0,0.0,0.0,0.0,0.0,0.0,0.0,0.0,0.0,0.0,0.0,0.0,0.0,0.0,0.0,0.0,0.0,0.0,0.0,0.0,0.0,0.0,0.0,0.0,0.0,0.0,0.0,0.0,0.0,0.0,0.0,0.0,0.0,0.0,0.0,0.0,0.0,0.0,0.0,0.0,0.0,0.0,0.0,0.0,0.0,0.0,0.0,0.0,0.0,0.0,0.0,0.0,0.0,0.0,0.0,0.0,0.0,0.0,0.0,0.0,0.0,0.0,0.0,0.0,0.0,0.0,0.0,0.0,0.0,0.0,0.0,0.0,0.0,0.0,0.0,0.0,0.0,0.0,0.0,0.0,0.0,0.0,0.0,0.0,0.0,0.0,0.0,0.0,0.0,0.0,0.0,0.0,0.0,0.0,0.0,0.0,0.0,0.0,0.0,0.0,0.0,0.0,0.0,0.0,0.0,0.0,0.0,0.0,0.0,0.0,0.0,0.0,0.0,0.0,0.0,0.0,0.0,0.0,0.0,0.0,0.0,0.0,0.0,0.0,0.0,0.0,0.0,0.0,0.0,0.0,0.0,0.0,0.0,0.0,0.0,0.0,0.0,0.0,0.0,0.0,0.0,0.0,0.0,0.0,0.0,0.0,0.0,0.0,0.0,0.0,0.0,0.0,0.0,0.0,0.0,0.0,0.0,0.0,0.0,0.0,0.0,0.0,0.0,0.0,0.0,0.0,0.0,0.0,0.0,0.0,0.0,0.0,0.0,0.0,0.0,0.0,0.0,0.0,0.0,0.0,0.0,0.0,0.0,0.0,0.0,0.0,0.0,0.0,0.0,0.0,0.0,0.0,0.0,0.0,0.0,0.0,0.0,0.0,0.0,0.0,0.0,0.0,0.0,0.0,0.0,0.0,0.0,0.0,0.0,0.0,0.0,0.0,0.0,0.0,0.0,0.0,0.0,0.0,0.0,0.0,0.0,0.0,0.0,0.0,0.0,0.0,0.0,0.0,0.0,0.0,0.0,0.0,0.0,0.0,0.0,0.0,0.0,0.0,0.0,0.0,0.0,0.0,0.0,0.0,0.0,0.0,0.0,0.0,0.0,0.0,0.0,0.0,0.0,0.0,0.0,0.0,0.0,0.0,0.0,0.0,0.0,0.0,0.0,0.0,0.0,0.0,0.0,0.0,0.0,0.0,0.0,0.0,0.0,0.0,0.0,0.0,0.0,0.0,0.0,0.0,0.0,0.0,0.0,0.0,0.0,0.0,0.0,0.0,0.0,0.0,0.0,0.0,0.0,0.0,0.0,0.0,0.0,0.0,0.0,0.0,0.0,0.0,0.0,0.0,0.0,0.0,0.0,0.0,0.0,0.0,0.0,0.0,0.0,0.0,0.0,0.0,0.0,0.0,0.0,0.0,0.0,0.0,0.0,0.0,0.0,0.0,0.0,0.0,0.0,0.0,0.0,0.0,0.0,0.0,0.0,0.0,0.0,0.0,0.0,0.0,0.0,0.0,0.0,0.0,0.0,0.0,0.0,0.0,0.0,0.0,0.0,0.0,0.0,0.0,0.0,0.0,0.0,0.0,0.0,0.0,0.0,0.0,0.0,0.0,0.0,0.0,0.0,0.0,0.0,0.0,0.0,0.0,0.0,0.0,0.0,0.0,0.0,0.0,0.0,0.0,0.0,0.0,0.0,0.0,0.0,0.0,0.0,0.0,0.0,0.0,0.0,0.0,0.0,0.0,0.0,0.0,0.0,0.0,0.0,0.0,0.0,0.0,0.0,0.0,0.0,0.0,0.0,0.0,0.0,0.0,0.0,0.0,0.0,0.0,0.0,0.0,0.0,0.0,0.0,0.0,0.0,0.0,0.0,0.0,0.0,0.0,0.0,0.0,0.0,0.0,0.0,0.0,0.0,0.0,0.0,0.0,0.0,0.0,0.0,0.0,0.0,0.0,0.0,0.0,0.0,0.0,0.0,0.0,0.0,0.0,0.0,0.0,0.0,0.0,0.0,0.0,0.0,0.0,0.0,0.0,0.0,0.0,0.0,0.0,0.0,0.0,0.0,0.0,0.0,0.0,0.0,0.0,0.0,0.0,0.0,0.0,0.0,0.0,0.0,0.0,0.0,0.0,0.0,0.0,0.0,0.0,0.0,0.0,0.0,0.0,0.0,0.0,0.0,0.0,0.0,0.0,0.0,0.0,0.0,0.0,0.0,0.0,0.0,0.0,0.0,0.0,0.0,0.0,0.0,0.0,0.0,0.0,0.0,0.0,0.0,0.0,0.0,0.0,0.0,0.0,0.0,0.0,0.0,0.0,0.0,0.0,0.0,0.0,0.0,0.0,0.0,0.0,0.0,0.0,0.0,0.0,0.0,0.0,0.0,0.0,0.0,0.0,0.0,0.0,0.0,0.0,0.0,0.0,0.0,0.0,0.0,0.0,0.0,0.0,0.0,0.0,0.0,0.0,0.0,0.0,0.0,0.0,0.0,0.0,0.0,0.0,0.0,0.0,0.0,0.0,0.0,0.0,0.0,0.0,0.0,0.0,0.0,0.0,0.0,0.0,0.0,0.0,0.0,0.0,0.0,0.0,0.0,0.0,0.0,0.0,0.0,0.0,0.0,0.0,0.0,0.0,0.0,0.0,0.0,0.0,0.0,0.0,0.0,0.0,0.0,0.0,0.0,0.0,0.0,0.0,0.0,0.0,0.0,0.0,0.0,0.0,0.0,0.0,0.0,0.0,0.0,0.0,0.0,0.0,0.0,0.0,0.0,0.0,0.0,0.0,0.0,0.0,0.0,0.0,0.0,-4.3057,0.0,0.0,0.0,0.0,0.0,0.0,0.0,0.0,0.0,0.0,0.0,0.0,0.0,0.0,0.0,0.0,0.0,0.0,0.0,0.0,0.0,0.0,0.0,0.0,0.0,0.0,0.0,0.0,0.0,0.0,0.0,0.0,0.0,0.0,0.0,0.0,0.0,0.0,0.0,-2.5176,-2.5765,-2.7142,-2.8158,-2.8763,-2.8993,0.0,0.0,0.0,0.0,0.0,0.0,0.0,0.0,0.0,0.0,0.0,0.0,0.0,0.0,0.0,0.0,0.0,0.0,0.0,0.0,0.0,0.0,0.0,0.0,0.0,0.0,0.0,0.0,0.0,0.0,0.0,0.0,0.0,0.0,0.0,0.0,0.0,0.0,0.0,0.0,0.0,0.0,0.0,0.0,0.0,0.0,0.0,0.0,0.0,0.0,0.0,0.0,0.0,0.0,0.0,0.0,0.0,0.0,0.0,0.0,0.0,0.0,0.0,0.0,0.0,0.0,0.0,0.0,0.0,0.0,0.0,-4.5426,0.0,0.0,0.0,0.0,0.0,0.0,0.0,0.0,0.0,0.0,0.0,0.0,0.0,0.0,0.0,0.0,0.0,0.0,0.0,0.0,0.0,0.0,0.0,0.0,0.0,0.0,0.0,0.0,0.0,0.0,0.0,0.0,0.0,0.0,0.0,0.0,0.0,-2.5656,-2.5315,-2.6228,-2.8322,-2.9395,-2.9603,-2.9125,-3.0027,0.0,0.0,0.0,0.0,0.0,0.0,0.0,0.0,0.0,0.0,0.0,0.0,0.0,0.0,0.0,0.0,0.0,0.0,0.0,0.0,0.0,0.0,0.0,0.0,0.0,0.0,0.0,0.0,0.0,0.0,0.0,0.0,0.0,0.0,0.0,0.0,0.0,0.0,0.0,0.0,0.0,0.0,0.0,0.0,0.0,0.0,0.0,0.0,0.0,0.0,0.0,0.0,0.0,0.0,0.0,0.0,0.0,0.0,0.0,0.0,0.0,0.0,0.0,-4.8892,-4.9048,-4.9058,-4.9169,-4.9199,-4.9215,-4.9551,-4.9389,-4.8734,0.0,0.0,0.0,0.0,0.0,0.0,0.0,0.0,0.0,0.0,0.0,0.0,0.0,0.0,0.0,0.0,0.0,0.0,0.0,0.0,0.0,0.0,0.0,-2.1412,-2.2173,0.0,0.0,0.0,0.0,0.0,0.0,0.0,0.0,0.0,-2.4127,-2.4661,-2.5441,-2.589,-2.7124,-2.9052,-2.9058,-2.961,-3.0618,-3.0573,-3.0708,-3.0887,0.0,0.0,0.0,0.0,0.0,0.0,0.0,0.0,0.0,0.0,0.0,0.0,0.0,0.0,0.0,0.0,0.0,0.0,0.0,0.0,0.0,0.0,0.0,0.0,0.0,0.0,0.0,0.0,0.0,0.0,0.0,0.0,0.0,0.0,0.0,0.0,0.0,0.0,0.0,0.0,0.0,-3.6989,-3.9626,0.0,0.0,0.0,0.0,0.0,0.0,0.0,0.0,0.0,0.0,0.0,0.0,0.0,-4.6852,-4.6843,-4.896,-5.0086,-5.0222,-5.2014,-5.2858,-5.2899,-5.3359,-5.3583,-5.3583,-5.3633,0.0,-4.9353,-4.7674,0.0,0.0,0.0,0.0,0.0,0.0,0.0,0.0,0.0,0.0,0.0,0.0,0.0,0.0,0.0,0.0,0.0,0.0,0.0,0.0,0.0,0.0,-2.1977,-2.2347,0.0,0.0,0.0,0.0,0.0,0.0,0.0,-2.3592,-2.3791,-2.4191,-2.4565,-2.4901,-2.6865,-2.7877,-2.8043,-2.8923,-2.9875,-3.0846,-3.0745,-3.0719,-3.0688,-3.0675,0.0,0.0,0.0,0.0,0.0,0.0,0.0,0.0,0.0,0.0,0.0,0.0,0.0,0.0,0.0,0.0,0.0,0.0,0.0,0.0,0.0,0.0,0.0,0.0,0.0,0.0,0.0,0.0,0.0,0.0,0.0,0.0,0.0,0.0,0.0,0.0,0.0,0.0,0.0,-3.5707,-3.9114,-4.0241,-4.1032,-4.106,0.0,0.0,0.0,0.0,0.0,0.0,0.0,0.0,0.0,-4.5929,-4.7707,-4.8891,-4.9337,-5.0966,-5.1787,-5.1804,-5.2903,-5.3311,-5.3148,-5.3595,-5.3678,-5.3504,-5.3699,-5.3051,-5.1737,-5.0359,-4.9352,-4.8484,0.0,0.0,0.0,0.0,-4.5702,-4.5802,0.0,0.0,0.0,0.0,0.0,0.0,0.0,0.0,0.0,0.0,0.0,0.0,-1.9116,-2.0594,-2.1691,-2.2064,0.0,0.0,0.0,0.0,0.0,0.0,0.0,-2.276,-2.318,-2.4028,-2.4534,-2.469,-2.6966,-2.7798,-2.7333,-2.8521,-2.9599,-3.0506,-3.0547,-3.0658,-3.0823,-3.0794,-3.0615,-3.0277,0.0,0.0,0.0,0.0,0.0,0.0,0.0,0.0,0.0,0.0,0.0,0.0,0.0,0.0,0.0,0.0,0.0,0.0,0.0,0.0,0.0,0.0,0.0,0.0,0.0,0.0,0.0,0.0,0.0,0.0,0.0,0.0,0.0,0.0,0.0,0.0,0.0,-3.8367,-4.1053,-4.1129,-4.2993,-4.3656,0.0,0.0,0.0,0.0,0.0,0.0,-4.4553,-4.5858,-4.6986,-4.7871,-4.9501,-5.0637,-5.1249,-5.2106,-5.2538,-5.252,-5.2857,-5.2898,-5.2661,-5.2992,-5.3072,-5.2919,-5.2973,-5.3199,-5.3435,-5.228,-5.1474,-5.0791,-4.9243,-4.7895,-4.6939,-4.8196,-4.8252,-4.7956,0.0,0.0,0.0,0.0,0.0,0.0,0.0,0.0,0.0,0.0,0.0,-1.7974,-1.839,-1.8663,-1.9292,-2.0584,-2.1367,-2.1927,0.0,0.0,-2.1673,-2.1172,-2.0985,-2.1211,-2.1796,-2.3693,-2.4852,-2.5163,-2.5443,-2.6354,-2.7832,-2.755,-2.8264,-2.9751,-2.9881,-3.0691,-3.183,-3.0513,-3.0339,-3.0844,-2.9542,0.0,0.0,0.0,0.0,0.0,0.0,0.0,0.0,0.0,0.0,0.0,0.0,0.0,0.0,0.0,0.0,0.0,0.0,0.0,0.0,0.0,0.0,0.0,0.0,0.0,0.0,0.0,0.0,0.0,0.0,0.0,0.0,0.0,0.0,0.0,0.0,0.0,0.0,-4.389,-4.6178,0.0,0.0,0.0,0.0,-4.4747,-4.487,-4.5666,-4.7407,-4.8304,-4.9231,-5.0297,-5.1166,-5.1615,-5.1669,-5.1733,-5.1769,-5.1769,-5.2094,-5.2263,-5.2244,-5.2625,-5.2988,-5.3222,-5.2488,-5.2602,-5.3217,-5.2102,-5.1711,-5.1673,-4.9984,-4.929,-4.9215,-4.9309,-4.9309,-4.929,0.0,0.0,0.0,0.0,0.0,0.0,0.0,0.0,0.0,-1.6553,-1.6539,-1.6545,-1.6712,-1.7364,-1.7963,-1.8495,-1.9329,-1.9784,-1.9599,0.0,-1.9891,-2.0637,-2.0343,-2.0731,-2.1992,-2.3147,-2.364,-2.3465,-2.4586,-2.5058,-2.4889,-2.5213,-2.6008,-2.7205,-2.7333,-2.7998,-2.9071,-2.9663,-3.0248,-3.0698,-2.9526,-2.9194,0.0,0.0,0.0,0.0,0.0,0.0,0.0,0.0,0.0,0.0,0.0,0.0,0.0,0.0,0.0,0.0,0.0,0.0,0.0,0.0,0.0,0.0,0.0,0.0,0.0,0.0,0.0,0.0,0.0,0.0,0.0,0.0,0.0,0.0,0.0,0.0,0.0,-4.4453,-4.6571,0.0,-4.5678,-4.5845,-4.6382,-4.7184,-4.7724,-4.8505,-4.9635,-4.9981,-5.0314,-5.0677,-5.1187,-5.1176,-5.0688,-5.084,-5.0677,-5.0163,-5.0557,-5.0581,-5.0355,-5.0748,-5.0852,-5.0715,-5.0707,-5.0835,-5.11,-5.0912,-5.1185,-5.1633,-5.0859,-5.0538,-5.0519,-5.0744,-5.0813,-5.0798,0.0,0.0,0.0,0.0,0.0,0.0,0.0,0.0,0.0,-1.5562,-1.5537,-1.5511,-1.5689,-1.6208,-1.6568,-1.6661,-1.746,-1.7695,-1.7073,0.0,-1.7951,-1.8854,-1.9391,-2.0312,-2.1668,-2.2172,-2.2273,-2.1951,-2.2724,-2.2803,-2.2201,-2.2487,-2.3216,-2.4282,-2.4373,-2.5067,-2.626,-2.7612,-2.8817,-2.9726,-2.8695,-2.8486,-2.8762,0.0,0.0,0.0,0.0,0.0,0.0,0.0,0.0,0.0,0.0,0.0,0.0,0.0,0.0,0.0,0.0,0.0,0.0,0.0,0.0,0.0,0.0,0.0,0.0,0.0,0.0,0.0,0.0,0.0,0.0,0.0,0.0,0.0,0.0,0.0,-4.4415,-4.3873,-4.6408,-4.7612,-4.6134,-4.7332,-4.8434,-4.8957,-4.9495,-5.0045,-5.064,-5.069,-5.0594,-5.0423,-5.0655,-5.0386,-4.9609,-4.976,-4.9586,-4.9073,-4.934,-4.9321,-4.9068,-4.9326,-4.9381,-4.9233,-4.9318,-4.937,-4.9339,-4.9107,-4.9222,-4.9644,-5.0583,-5.0892,-5.0893,-5.112,-5.1101,-5.0839,0.0,0.0,0.0,0.0,0.0,0.0,0.0,0.0,-1.4104,-1.5102,-1.4921,-1.4893,-1.5361,-1.5177,-1.5051,-1.5109,-1.5782,-1.5811,-1.4903,-1.5522,-1.592,-1.5959,-1.8138,-1.9737,-2.0589,-2.0721,-2.08,-2.083,-1.9821,-1.9594,-2.0078,-1.9492,-1.9903,-2.1181,-2.1203,-2.2118,-2.3716,-2.4365,-2.5905,-2.7833,-2.7046,-2.7145,-2.7808,0.0,0.0,0.0,0.0,0.0,0.0,0.0,0.0,0.0,0.0,0.0,0.0,0.0,0.0,0.0,0.0,0.0,0.0,0.0,0.0,0.0,0.0,0.0,0.0,0.0,0.0,0.0,0.0,0.0,0.0,0.0,0.0,0.0,-3.9535,-4.2364,-4.3894,-4.2398,-4.5985,-4.8015,-4.6602,-4.857,-4.9964,-4.9947,-4.9976,-5.0057,-5.0317,-5.0316,-5.0096,-4.965,-4.9617,-4.9257,-4.8511,-4.8496,-4.8477,-4.8434,-4.8448,-4.8455,-4.8467,-4.8468,-4.8645,-4.8905,-4.8388,-4.8163,-4.8061,-4.6755,-4.5928,-4.5772,-4.897,-5.0237,-5.0256,-5.0222,-4.9894,-4.9213,0.0,0.0,0.0,0.0,0.0,0.0,0.0,0.0,-1.2653,-1.3526,-1.3299,-1.316,-1.3366,-1.3241,-1.3053,-1.2896,-1.3562,-1.3857,-1.3604,0.0,-1.4282,-1.5152,-1.6971,-1.8229,-1.8799,-1.8618,-1.8585,-1.8808,-1.8522,-1.804,-1.7363,-1.7294,-1.7586,-1.8187,-1.8649,-1.9493,-2.0645,-2.1166,-2.2302,-2.3947,-2.612,-2.7143,-2.7392,0.0,0.0,0.0,0.0,0.0,0.0,0.0,0.0,0.0,0.0,0.0,0.0,0.0,0.0,0.0,0.0,0.0,0.0,0.0,0.0,0.0,0.0,0.0,0.0,0.0,0.0,0.0,0.0,0.0,0.0,0.0,0.0,-4.1358,-4.2322,-4.4008,-4.5164,-4.5275,-4.6682,-4.7702,-4.783,-4.8523,-4.8971,-4.8982,-4.9063,-4.8935,-4.8467,-4.8444,-4.8369,-4.8238,-4.791,-4.736,-4.6582,-4.623,-4.5788,-4.5198,-4.5204,-4.5191,-4.5198,-4.5192,-4.5246,-4.5311,-4.517,-4.5104,-4.5092,-4.4696,-4.4468,-4.447,-4.5807,-4.6696,-4.7099,-4.6168,-4.5494,-4.4875,0.0,0.0,0.0,0.0,0.0,0.0,0.0,0.0,-1.1081,-1.1672,-1.1595,-1.1495,-1.1396,-1.1575,-1.1466,-1.0888,-1.1696,-1.2077,-1.1748,-1.2342,-1.3204,-1.4239,-1.5421,-1.6268,-1.6716,-1.6094,-1.582,-1.5985,-1.5687,-1.5277,-1.4776,-1.4891,-1.5132,-1.5502,-1.5859,-1.657,-1.7552,-1.8052,-1.8918,-2.0254,-2.32,-2.4965,-2.5826,-2.6075,-2.6352,-2.6652,-2.7005,-2.7661,-2.8294,-2.7713,0.0,0.0,0.0,0.0,0.0,0.0,0.0,0.0,0.0,0.0,0.0,0.0,0.0,0.0,0.0,0.0,0.0,0.0,0.0,0.0,0.0,0.0,0.0,0.0,-4.0555,-4.2052,-4.341,-4.4708,-4.5444,-4.5306,-4.5878,-4.6349,-4.6504,-4.7178,-4.7632,-4.7648,-4.8026,-4.807,-4.764,-4.7659,-4.7402,-4.6763,-4.6481,-4.581,-4.4722,-4.4435,-4.4079,-4.3613,-4.361,-4.3426,-4.3097,-4.3097,-4.294,0.0,-4.2765,-4.2812,-4.2794,-4.2552,-4.2412,0.0,0.0,0.0,0.0,0.0,-4.2856,-4.2175,0.0,0.0,0.0,0.0,0.0,0.0,0.0,0.0,-0.9705,-0.9964,-1.0127,-1.0066,-0.9694,-1.017,-1.0166,-0.9232,-1.0155,-1.05,-0.9784,-1.1155,-1.2326,-1.3033,-1.3591,-1.4096,-1.4522,-1.3493,-1.2986,-1.304,-1.2305,-1.2099,-1.2398,-1.2467,-1.2665,-1.3029,-1.3059,-1.3647,-1.4597,-1.5192,-1.5982,-1.7026,-1.9166,-2.1437,-2.3621,-2.4098,-2.4587,-2.5109,-2.5785,-2.6628,-2.7417,-2.7417,0.0,0.0,0.0,0.0,0.0,0.0,0.0,0.0,0.0,0.0,0.0,0.0,0.0,0.0,0.0,0.0,0.0,0.0,0.0,0.0,0.0,0.0,0.0,0.0,-4.1531,-4.2109,-4.3328,-4.4503,-4.4803,-4.3639,-4.4188,-4.4434,-4.3918,-4.5192,-4.6035,-4.6042,-4.6632,-4.7016,-4.6959,0.0,0.0,0.0,0.0,-4.4337,-4.302,-4.2933,-4.2892,-4.2886,-4.2909,-4.2486,-4.1733,-4.1733,-4.1319,-4.0636,-4.0868,-4.0983,-4.0953,-4.0478,-4.0084,-3.9983,-4.1695,-4.2311,-4.2198,-4.1789,-4.1146,0.0,0.0,0.0,0.0,0.0,0.0,0.0,0.0,0.0,-0.9705,-0.9964,-0.976,-0.953,-0.9384,-0.945,-0.9336,-0.8916,-0.9292,-0.9482,-0.9313,-1.0164,-1.0746,-1.0968,-1.166,-1.2259,-1.2782,-1.1928,-1.1703,-1.2074,-1.1328,-1.0809,-1.0527,-1.0528,-1.0576,-1.0681,-1.105,-1.1684,-1.2536,-1.3463,-1.4346,-1.5249,-1.6118,-1.8448,-2.1612,-2.3557,-2.4433,-2.4742,-2.5799,-2.6707,-2.7396,-2.7453,-2.8196,-2.9001,-2.8634,-2.8651,0.0,0.0,0.0,0.0,0.0,0.0,0.0,0.0,0.0,0.0,0.0,0.0,0.0,0.0,0.0,0.0,0.0,0.0,0.0,-3.9331,-4.0992,-4.2334,-4.2811,-4.2916,-4.2916,-4.2781,-4.2953,-4.3234,-4.3696,-4.4125,-4.4366,-4.4356,-4.4103,-4.3898,-4.3794,-4.3301,-4.3124,-4.3305,-4.2653,-4.2192,-4.1901,-4.1332,-4.1037,-4.1023,0.0,0.0,-3.9982,-4.0023,-3.9698,-3.9026,-3.8986,-3.9008,-3.9098,-3.9005,-3.8589,-3.8118,-3.9282,-3.9329,-3.8775,-3.8851,-3.8408,-3.7741,0.0,0.0,0.0,0.0,0.0,0.0,0.0,0.0,-0.7815,-0.7891,-0.8003,-0.7899,-0.7345,-0.7827,-0.8024,-0.7524,-0.8078,-0.8619,-0.8985,-0.9349,-0.963,-0.9841,-0.9923,-1.0059,-1.0337,-0.9482,-0.9123,-0.9251,-0.8736,-0.8423,-0.829,-0.829,-0.8417,-0.8668,-0.8907,-0.9461,-1.0285,-1.0957,-1.1747,-1.2614,-1.3561,-1.5049,-1.7039,-2.0039,-2.183,-2.2866,-2.3849,-2.4962,-2.6044,-2.6372,-2.7189,-2.8053,-2.8056,-2.8223,-2.8299,0.0,0.0,0.0,0.0,0.0,0.0,0.0,0.0,0.0,0.0,0.0,0.0,0.0,0.0,-3.492,-3.5311,0.0,-3.8298,-3.911,-3.9877,-4.0577,-4.112,-4.0494,-4.0362,-4.1418,-4.1263,-4.1048,-4.107,-4.1459,-4.1693,-4.1707,-4.1813,-4.1871,-4.1786,-4.1583,-4.1241,-4.0802,-4.1027,-4.0807,-4.0121,-4.0355,-4.0512,-4.0498,-4.0571,-3.9987,-3.8847,-3.887,-3.83,-3.7303,-3.722,-3.7242,-3.7303,-3.7303,-3.7123,-3.6892,-3.74,-3.7361,-3.7057,-3.7165,-3.6963,-3.6632,0.0,0.0,0.0,0.0,0.0,0.0,0.0,0.0,0.0,-0.5769,-0.6216,-0.6225,-0.5403,-0.6207,-0.6602,-0.6087,-0.6745,-0.7443,-0.8053,-0.8052,-0.8225,-0.8573,-0.8186,-0.7993,-0.8056,-0.7327,-0.6853,-0.6657,-0.6384,-0.6322,-0.6476,-0.6476,-0.6681,-0.7051,-0.7051,-0.7475,-0.8209,-0.8625,-0.922,-1.0052,-1.1378,-1.2069,-1.2642,-1.5735,-1.8318,-2.0427,-2.1376,-2.2645,-2.3979,-2.4835,-2.5598,-2.6298,-2.7043,-2.7383,-2.7406,-2.6918,-2.772,0.0,0.0,0.0,0.0,0.0,0.0,0.0,0.0,-3.1836,-3.2678,-3.359,-3.4574,-3.5519,-3.6463,-3.7107,-3.7794,-3.867,-3.8502,-3.846,-3.9013,-3.815,-3.802,-3.9584,-3.9477,-3.9041,-3.8504,-3.898,-3.9314,-3.9314,-3.9774,-4.0127,-4.0245,-4.0277,-3.974,-3.8548,-3.9648,-3.963,-3.836,-3.9479,-4.0036,-4.0018,-4.0018,-3.9319,-3.7945,-3.7962,-3.7251,-3.5997,-3.5997,-3.5997,-3.5997,-3.5997,-3.6062,-3.6144,-3.6144,-3.6191,-3.6237,-3.628,-3.6215,-3.6094,0.0,0.0,0.0,0.0,0.0,0.0,0.0,0.0,0.0,-0.5569,-0.5586,-0.5567,-0.5336,0.0,-0.5489,-0.5418,-0.5382,-0.5456,-0.5608,-0.5445,-0.5573,-0.6087,-0.6327,-0.6567,-0.6783,-0.6759,-0.667,-0.6527,-0.6205,-0.604,-0.6076,-0.6076,-0.6091,-0.6134,-0.6134,-0.6367,-0.6764,-0.741,-0.7902,-0.8398,-0.9723,-1.0618,-1.1276,-1.2242,-1.4763,-1.8,-1.9529,-2.0563,-2.1467,-2.3179,-2.3537,-2.3559,-2.5227,-2.575,-2.5815,-2.5975,-2.6144,-2.6252,-2.612,-2.7018,-2.8238,-2.9289,-2.9728,-3.0668,0.0,-3.4174,-3.4527,-3.648,-3.7052,-3.7076,-3.6847,-3.7225,-3.7298,-3.6434,-3.6894,-3.724,-3.6987,-3.6724,-3.6699,-3.7074,-3.788,-3.8417,-3.8341,-3.8508,-3.8591,-3.8591,-3.8148,-3.8107,-3.8646,-3.8104,-3.7706,-3.748,-3.8179,-3.8204,-3.7436,-3.8054,-3.8387,-3.836,-3.836,-3.7899,-3.7064,-3.7098,-3.6723,-3.5997,-3.5997,-3.5997,-3.5997,-3.5997,-3.5997,-3.6019,-3.6019,-3.6019,-3.6062,-3.6237,-3.5887,-3.5318,0.0,0.0,0.0,0.0,0.0,0.0,0.0,0.0,0.0,0.0,0.0,-0.4759,-0.4349,-0.4512,-0.4704,-0.4818,-0.4951,-0.5086,-0.5189,-0.5133,-0.5121,-0.5218,-0.5231,-0.522,-0.5207,-0.5051,-0.4899,-0.4764,-0.4615,-0.4473,-0.4369,-0.4252,-0.4186,-0.4212,-0.4406,-0.4716,-0.5158,-0.6068,-0.6681,-0.7138,-0.8062,-0.8549,-0.8862,-0.9976,-1.167,-1.3796,-1.6053,-1.7252,0.0,-1.9572,-2.0146,-2.0404,-2.1819,-2.2659,-2.3186,-2.3311,-2.423,-2.5467,-2.6408,-2.6541,-2.6737,-2.8083,-2.8982,-2.991,-3.1578,-3.263,-3.3707,-3.5223,-3.6151,-3.6525,-3.6036,-3.6125,-3.6011,-3.5149,-3.5057,-3.5346,-3.5963,-3.5131,-3.477,-3.5669,-3.5991,-3.6352,-3.6921,-3.6667,-3.6607,-3.7004,-3.6057,-3.5738,-3.6399,-3.5857,-3.5309,-3.4818,-3.5865,-3.6093,-3.5336,-3.6278,-3.6749,-3.6764,-3.6764,-3.6408,-3.5729,-3.5787,-3.5608,-3.5322,-3.5627,-3.5778,-3.5778,-3.5778,-3.58,-3.5832,-3.5411,-3.5284,-3.5386,-3.5454,-3.5286,-3.496,0.0,0.0,0.0,0.0,0.0,0.0,0.0,0.0,0.0,0.0,0.0,0.0,0.0,-0.3796,-0.3959,-0.3876,-0.4213,-0.4327,-0.4104,-0.4195,-0.4118,-0.3802,-0.3709,-0.3566,-0.3383,-0.3216,-0.3147,-0.3112,-0.3077,-0.3042,-0.3023,-0.2892,-0.2814,-0.282,-0.3102,-0.3397,-0.3775,-0.4573,-0.5255,-0.5793,-0.6501,-0.6917,-0.7258,-0.8476,-0.9445,-1.0543,-1.3308,-1.4615,-1.5256,-1.6683,-1.7263,-1.7612,-1.8685,-1.9543,-2.0226,-2.0545,-2.2103,-2.4025,-2.5381,-2.5388,-2.5385,-2.676,-2.8002,-2.9016,-2.9607,-3.0893,-3.229,-3.347,-3.4321,-3.4831,-3.4682,-3.4689,-3.4588,-3.4158,-3.3925,-3.4186,-3.5224,-3.413,-3.3605,-3.4631,-3.4448,-3.4495,-3.5139,-3.51,-3.5215,-3.5701,-3.4668,-3.4228,-3.4714,-3.4364,-3.3785,-3.2998,-3.4172,-3.4428,-3.3667,-3.4707,-3.5233,-3.5244,-3.5212,-3.4943,-3.4533,-3.4533,-3.4515,-3.4488,-3.5091,-3.5316,-3.5322,-3.5143,-3.5234,-3.536,-3.4489,-3.4287,-3.444,-3.4034,-3.4038,-3.4168,0.0,0.0,0.0,0.0,0.0,0.0,0.0,0.0,0.0,0.0,0.0,0.0,0.0,0.0,-0.3105,-0.2324,-0.2691,-0.2508,-0.1408,-0.1614,-0.157,-0.1055,-0.14,-0.1509,-0.1287,-0.1608,-0.188,-0.2137,-0.2011,-0.2175,-0.2627,-0.262,-0.261,-0.2615,-0.2682,-0.2724,-0.2758,-0.2906,-0.3411,-0.4149,-0.5084,-0.614,-0.7251,-0.7834,-0.8393,-0.9231,-1.1974,-1.3387,-1.4141,-1.5365,-1.5506,-1.5379,-1.6471,-1.6839,-1.7047,-1.8168,-1.9708,-2.1224,-2.2106,-2.306,-2.4177,-2.5607,-2.6878,-2.8037,-2.9095,-2.9872,-3.0798,-3.2234,-3.2135,-3.2,-3.2928,-3.3245,-3.3355,-3.3342,-3.3908,-3.4384,-3.4439,-3.4046,-3.3801,-3.3815,-3.3481,-3.3248,0.0,-3.4319,-3.5018,-3.5033,-3.4395,-3.403,-3.4045,-3.4015,-3.3711,-3.3013,-3.3665,-3.3708,-3.3034,-3.3587,-3.3846,-3.3875,-3.3725,-3.3665,-3.364,-3.364,-3.364,-3.3659,-3.4333,-3.4624,-3.4574,-3.4078,-3.413,-3.4433,-3.3245,-3.3026,-3.3271,-3.1853,-3.1888,-3.2576,0.0,0.0,0.0,0.0,0.0,0.0,0.0,0.0,0.0,0.0,0.0,0.0,0.0,0.0,0.0,0.0,-0.1626,-0.1546,-0.1281,-0.1291,-0.1115,-0.0728,-0.0795,-0.069,-0.0398,-0.0505,-0.061,-0.0713,-0.065,-0.0728,-0.0863,-0.0698,-0.0595,-0.0625,-0.1291,-0.1321,-0.1012,-0.2386,-0.2863,-0.2851,-0.4105,-0.5023,-0.5774,-0.6821,-0.7518,-0.8169,0.0,-1.0958,-1.1541,-1.3068,-1.3691,-1.3978,-1.4742,-1.5391,-1.621,-1.7754,-1.8787,-1.9821,-2.1542,-2.248,-2.3307,-2.4868,-2.5535,-2.6149,-2.7248,-2.8065,-2.8788,-2.9624,-2.9529,-2.9492,-3.0114,-3.0789,-3.136,-3.1656,-3.2666,-3.3607,-3.415,-3.3417,-3.3067,-3.3582,-3.3644,0.0,0.0,0.0,0.0,-3.4507,-3.3586,-3.3216,-3.3653,-3.2944,-3.2371,-3.2014,-3.2356,-3.2384,-3.1994,-3.2193,-3.2269,-3.2279,-3.2351,-3.2412,-3.2425,-3.2868,-3.2814,-3.2441,-3.3019,-3.3016,-3.2586,-3.2407,-3.2427,-3.2508,-3.1923,-3.1792,-3.1867,-3.1288,-3.1283,-3.1444,0.0,0.0,0.0,0.0,0.0,0.0,0.0,0.0,0.0,0.0,0.0,0.0,0.0,0.0,0.0,0.0,0.0,-0.0841,-0.0528,-0.0641,-0.0493,0.003,0.0092,0.0366,0.0811,0.0896,0.0983,0.1069,0.0857,0.0719,0.0648,0.0547,0.0528,0.0503,-0.0099,-0.0135,0.0205,-0.1113,-0.1619,-0.1595,-0.292,-0.3847,-0.4595,-0.595,-0.6703,0.0,-0.8599,-0.9299,-0.981,-1.1475,-1.2184,-1.2434,-1.3019,-1.4012,-1.5213,-1.6545,-1.7542,-1.8564,-2.0396,-2.1423,-2.2276,-2.3656,-2.4273,-2.4706,-2.5448,-2.6029,-2.6574,-2.703,-2.6958,-2.6953,-2.7383,-2.835,-2.9163,-2.9476,-3.0988,-3.2405,-3.3119,-3.2677,-3.2573,-3.3277,-3.3317,-3.3141,0.0,0.0,0.0,-3.396,-3.2834,-3.2406,-3.3125,-3.2226,-3.1626,-3.1511,-3.1626,-3.1626,-3.1511,-3.1511,-3.1511,-3.1511,-3.1626,-3.1563,-3.1351,-3.1766,-3.1643,-3.1065,-3.1624,-3.1632,-3.1228,-3.1038,-3.1063,-3.1149,-3.0541,-3.0403,-3.0499,-3.0157,-3.0059,-3.0041,0.0,0.0,0.0,0.0,0.0,0.0,0.0,0.0,0.0,0.0,0.0,0.0,0.0,0.0,0.0,0.0,0.0,0.0,0.0821,0.0412,0.0449,0.1234,0.1365,0.1714,0.2373,0.2588,0.2801,0.3042,0.2483,0.2131,0.1901,0.1228,0.0922,0.0981,0.0864,0.085,0.0905,0.0772,0.0287,-0.042,-0.1607,-0.2684,-0.371,-0.5267,-0.6008,-0.638,-0.769,-0.8428,-0.8988,-1.0589,-1.099,-1.0939,-1.1498,-1.2689,-1.4044,-1.4714,-1.5981,-1.7459,-1.869,-1.9961,-2.1156,-2.2085,-2.3023,-2.3714,-2.3767,-2.395,-2.4236,-2.4643,-2.4491,-2.4421,-2.486,-2.5965,-2.6859,-2.694,-2.912,-3.1033,-3.1551,-3.1962,-3.2406,-3.2864,-3.2645,-3.2432,-3.2354,0.0,0.0,-3.3235,0.0,-3.1785,-3.2437,-3.1885,-3.1511,-3.1482,-3.1482,-3.1467,-3.1422,-3.1451,-3.1466,-3.1511,-3.1466,-3.1107,-3.0507,-3.0477,-3.0118,-2.9574,-3.0181,-3.0442,-3.0406,-2.9862,-2.9919,-3.0233,-2.9124,-2.895,-2.9259,-2.8594,-2.835,-2.8436,0.0,0.0,0.0,0.0,0.0,0.0,0.0,0.0,0.0,0.0,0.0,0.0,0.0,0.0,0.0,0.0,0.0,0.0,0.088,0.1306,0.1772,0.2214,0.2689,0.3136,0.3551,0.3614,0.3678,0.3741,0.3732,0.3723,0.3647,0.3512,0.3468,0.3426,0.2476,0.2297,0.2639,0.118,0.0713,0.0793,-0.1007,-0.2173,-0.3041,-0.4831,-0.5825,-0.6404,-0.7505,-0.7888,-0.804,-0.946,-1.056,-1.1494,-1.2494,-1.3344,-1.4153,-1.5156,-1.616,-1.7184,-1.8057,-1.8987,-1.9963,-2.1029,-2.1712,-2.238,-2.3178,-2.34,-2.3437,-2.334,-2.2457,-2.192,-2.2519,-2.3749,-2.5043,-2.6084,-2.9244,-3.1624,-3.1876,-3.2927,-3.3628,-3.3504,-3.3421,-3.2885,-3.1626,-3.2005,0.0,0.0,-3.2173,-3.2526,-3.2225,-3.1982,-3.1664,-3.122,-3.119,-3.1012,-3.0593,-3.072,-3.1002,-3.1496,-3.0972,-3.0672,-3.0492,-3.0028,-2.946,-2.8843,-2.8509,-2.8344,-2.8324,-2.7697,-2.7795,-2.833,-2.8389,-2.8496,-2.8615,-2.8874,-2.8672,-2.8265,0.0,0.0,0.0,0.0,0.0,0.0,0.0,0.0,0.0,0.0,0.0,0.0,0.0,0.0,0.0,0.0,0.0,0.0,0.0,0.1323,0.1842,0.2412,0.2791,0.341,0.4195,0.4309,0.4463,0.4711,0.4667,0.4665,0.4691,0.448,0.4426,0.4409,0.3714,0.3398,0.3358,0.2265,0.1724,0.0,0.0,-0.1456,-0.2157,-0.4556,-0.5647,-0.6149,-0.758,-0.8475,-0.9171,-1.0489,-1.1564,-1.2535,-1.3313,-1.3761,-1.4154,-1.4888,-1.5457,-1.5949,-1.6484,-1.7417,-1.8506,-1.9624,-2.0425,-2.115,-2.1904,-2.2299,-2.2281,-2.1556,-2.1103,-2.0886,-2.1059,-2.2309,-2.3599,-2.4618,-2.7599,-3.0038,-3.079,-3.213,-3.3034,-3.3039,-3.2928,-3.2398,-3.1172,-3.1252,-3.1151,0.0,-3.1433,-3.1948,-3.1886,-3.1358,-3.0874,-3.053,-3.0608,-3.0514,-3.0284,-3.0028,-3.0116,-3.0572,-3.0101,-2.9746,-2.9476,-2.9134,-2.8464,-2.7531,0.0,-2.6852,-2.6618,-2.6544,-2.6772,-2.722,-2.7773,-2.7795,-2.7616,-2.8276,-2.7705,-2.6672,0.0,0.0,0.0,0.0,0.0,0.0,0.0,0.0,0.0,0.0,0.0,0.0,0.0,0.0,0.0,0.0,0.0,0.0,0.0,0.0,0.1383,0.2175,0.247,0.3193,0.4455,0.4717,0.5077,0.5554,0.5294,0.5228,0.5295,0.4832,0.4665,0.472,0.4665,0.4215,0.3548,0.3445,0.2772,0.1697,0.0036,-0.0824,-0.1482,0.0,0.0,-0.5855,-0.7861,-0.96,-1.1128,-1.233,-1.3153,-1.3747,-1.4064,-1.4172,-1.4216,-1.4465,-1.454,-1.457,-1.4761,-1.568,-1.6822,-1.7918,-1.8979,-1.9864,-2.0217,-2.084,-2.1034,-1.9773,-2.0135,-2.0573,-2.0273,-2.1312,-2.247,-2.3246,-2.5477,-2.7657,-2.9191,-3.0578,-3.156,-3.1801,-3.1684,-3.1322,-3.0651,-3.0355,-3.0215,-3.0215,-3.0259,-3.0592,-3.1273,-3.039,-2.9791,-2.9627,-2.9669,-2.979,-2.9985,-2.9211,-2.8987,-2.925,-2.8982,-2.8616,-2.8193,-2.8015,-2.7296,-2.6208,0.0,0.0,-2.5432,-2.6005,-2.6351,-2.6613,-2.7295,-2.723,-2.6742,-2.7195,-2.6228,-2.4814,0.0,0.0,0.0,0.0,0.0,0.0,0.0,0.0,0.0,0.0,-0.3315,-0.2501,0.0,0.0,0.0,0.0,0.0,0.0,0.0,0.0,0.0,0.2258,0.3206,0.3914,0.4333,0.4853,0.518,0.5266,0.5478,0.5653,0.5786,0.5847,0.5899,0.5898,0.5435,0.4734,0.3871,0.3439,0.2381,0.089,-0.0286,-0.1269,-0.2252,0.0,0.0,0.0,-0.8304,-0.9898,-1.126,-1.2469,-1.347,-1.4347,-1.4752,-1.501,-1.5097,-1.4885,-1.4677,-1.4518,-1.4577,-1.4747,-1.5106,-1.5982,-1.7069,-1.8082,-1.8507,-1.9458,-1.9986,-1.9175,-1.9279,-1.9641,-2.0114,-2.053,-2.1521,-2.3877,-2.5712,-2.7348,-2.8637,-3.0159,-3.081,-3.0045,-3.018,-2.9954,-2.9022,-2.9071,0.0,0.0,0.0,-2.9353,-2.9764,-3.005,-2.9753,-2.8746,-2.8387,-2.8201,-2.8318,-2.7795,-2.7838,-2.8396,-2.7877,-2.7808,-2.8163,-2.7059,-2.643,-2.6125,-2.5088,0.0,-2.5322,-2.5387,-2.5741,-2.6357,-2.7134,-2.7378,-2.7155,-2.627,-2.5734,-2.5375,0.0,0.0,0.0,0.0,0.0,0.0,0.0,-0.633,-0.595,-0.5041,-0.4241,-0.3423,-0.2609,-0.2263,-0.1704,0.0,0.0,0.0,0.0,0.0,0.0,0.0,0.0,0.0,0.3656,0.4068,0.4391,0.468,0.0,0.5413,0.5741,0.594,0.584,0.5467,0.5201,0.4419,0.3283,0.2652,0.1666,0.0413,-0.0931,-0.1796,0.0,0.0,0.0,0.0,-0.9138,-1.0557,-1.1951,-1.2875,-1.3864,-1.4822,-1.534,-1.532,-1.5075,-1.4787,-1.4348,-1.396,-1.396,-1.396,-1.4223,-1.5235,-1.594,-1.6413,-1.6643,-1.7696,-1.8396,-1.747,-1.8311,-1.9284,-1.9601,-2.0257,-2.13,-2.2823,-2.4503,-2.6098,-2.7468,-2.8898,-2.9612,-2.9137,-2.9341,-2.9126,-2.8138,-2.8557,-2.8775,-2.8487,0.0,-2.886,-2.8749,-2.8473,-2.8084,-2.7592,-2.7298,-2.7064,-2.6957,-2.664,-2.6543,-2.6638,-2.6274,-2.6091,-2.6065,-2.5678,-2.5362,-2.5106,-2.4718,0.0,-2.514,-2.5149,-2.5349,-2.5678,-2.576,-2.5562,-2.5192,-2.4708,-2.406,-2.3523,0.0,0.0,0.0,0.0,0.0,0.0,0.0,-0.6786,-0.6634,-0.5635,-0.5384,-0.4784,-0.346,-0.3121,-0.2627,0.0,0.0,0.0,0.0,0.0,0.0,0.0,0.0,0.0,0.0,0.0,0.0,0.3891,0.4235,0.0,0.0,0.0,0.0,0.0,0.4561,0.3776,0.2403,0.1852,0.0927,0.0,0.0,-0.2392,0.0,0.0,0.0,0.0,0.0,-1.0944,-1.2216,-1.3024,-1.3835,-1.4618,-1.5425,-1.536,-1.4915,-1.4501,-1.4048,-1.3689,-1.3616,-1.3601,-1.3822,-1.4712,-1.5009,-1.511,-1.4941,-1.6044,-1.6827,-1.5769,-1.7288,-1.8849,-1.8949,-1.991,-2.0959,-2.1818,-2.2957,-2.4409,-2.6271,-2.7352,-2.7969,-2.8084,-2.8364,-2.8198,-2.7297,-2.7869,0.0,-2.8027,0.0,0.0,-2.7946,-2.6914,-2.6367,-2.6453,-2.6259,-2.5986,-2.5654,-2.536,-2.5056,-2.4789,-2.4541,-2.4244,-2.3933,-2.436,-2.4319,-2.3935,-2.4262,0.0,0.0,-2.4605,-2.4636,-2.4537,-2.4203,-2.3745,-2.3246,-2.3096,-2.2464,-2.1812,0.0,0.0,0.0,0.0,0.0,0.0,0.0,-0.7949,-0.7735,-0.6315,-0.6577,-0.6555,-0.5679,-0.4415,-0.333,0.0,0.0,0.0,0.0,0.0,0.0,0.0,0.0,0.0,0.0,0.0,0.0,0.2845,0.3061,0.0,0.0,0.0,0.0,0.0,0.0,0.2982,0.1614,0.1599,0.0,0.0,0.0,0.0,0.0,0.0,0.0,0.0,0.0,-1.0487,-1.1015,-1.254,-1.2879,-1.2973,-1.4522,-1.5155,-1.5163,-1.4296,-1.4232,-1.435,-1.4056,-1.3938,-1.391,-1.3712,-1.4168,-1.4474,-1.3809,-1.4812,-1.5644,-1.4853,-1.6221,-1.7687,-1.8113,-1.8774,-1.999,-2.2087,-2.1869,-2.2499,-2.5532,-2.5719,-2.5657,-2.6104,-2.6464,-2.6471,-2.6016,-2.6151,-2.666,-2.7577,0.0,0.0,-2.7331,-2.6289,-2.5682,-2.5698,-2.5232,-2.4722,-2.4209,-2.3647,-2.3356,-2.3377,-2.2892,-2.2911,-2.3373,-2.3373,-2.332,-2.3291,-2.3212,0.0,0.0,-2.3137,-2.3028,-2.2536,-2.316,-2.3279,-2.2981,-2.1984,-2.1907,-2.2173,0.0,0.0,0.0,0.0,0.0,0.0,-0.8461,-0.8389,-0.8086,-0.7215,-0.7026,-0.6789,-0.6258,-0.5509,-0.4931,-0.4693,0.0,0.0,0.0,0.0,0.0,0.0,0.0,0.0,0.0,0.0,0.0657,0.1084,0.1142,0.0,0.0,0.0,0.0,0.0,0.0,0.0845,-0.0227,-0.1103,0.0,0.0,0.0,0.0,0.0,0.0,0.0,0.0,0.0,0.0,-1.1606,-1.2255,-1.2655,-1.2988,-1.355,-1.4275,-1.4779,-1.4423,-1.4269,-1.4188,-1.4056,-1.3982,-1.3901,-1.3579,-1.3554,-1.3525,-1.3021,-1.3839,-1.4606,-1.4147,-1.5571,-1.6987,-1.7153,-1.7993,-1.898,-2.0141,-2.0769,-2.1756,-2.3588,-2.4405,-2.4838,-2.5057,-2.5658,-2.5886,0.0,0.0,-2.6113,-2.6669,0.0,0.0,-2.6276,-2.5222,-2.4782,-2.5121,-2.4236,-2.3509,-2.2987,-2.2749,-2.2463,-2.2176,-2.1959,-2.1814,-2.1759,-2.2379,-2.2684,-2.2724,-2.3016,0.0,0.0,-2.2697,-2.2122,-2.1282,-2.1121,-2.084,-2.0415,-1.9638,-1.9523,-1.9776,0.0,0.0,0.0,0.0,0.0,-0.9873,-0.9093,-0.8873,-0.8591,-0.7997,-0.7716,-0.7459,-0.711,-0.7047,-0.703,-0.7058,-0.6287,0.0,0.0,0.0,0.0,0.0,0.0,0.0,0.0,0.0,-0.1382,-0.1118,-0.0904,-0.0689,0.0,0.0,-0.0635,-0.1214,0.0,0.0,0.0,0.0,0.0,0.0,0.0,0.0,0.0,0.0,0.0,0.0,0.0,0.0,0.0,0.0,0.0,-1.2995,-1.3114,-1.3623,-1.4218,-1.4218,-1.4216,-1.4245,-1.415,-1.4194,-1.4187,-1.3865,-1.347,-1.3067,-1.2704,-1.324,-1.368,-1.3395,-1.4924,-1.628,-1.628,-1.7226,-1.8169,-1.858,-1.9527,-2.072,-2.2215,-2.3104,-2.3821,-2.4445,0.0,-2.5076,0.0,-2.4826,-2.5136,0.0,0.0,0.0,-2.4881,-2.3562,-2.3231,-2.4223,-2.3147,-2.2385,-2.1939,-2.1765,-2.1519,-2.1187,-2.1024,-2.0763,-2.0465,-2.1564,-2.1922,-2.1679,0.0,0.0,0.0,-2.1765,-2.0997,-2.0084,-1.94,-1.8873,-1.8473,-1.8092,-1.7928,-1.8063,0.0,0.0,0.0,0.0,0.0,0.0,-0.9543,-0.9624,-0.9445,-0.8513,-0.8851,-0.9058,-0.8723,-0.9277,-0.9621,-0.9572,-0.7499,0.0,0.0,0.0,0.0,0.0,0.0,0.0,0.0,0.0,-0.3029,-0.3753,-0.3021,-0.3139,-0.4037,-0.3766,-0.3806,-0.4037,0.0,0.0,0.0,0.0,0.0,0.0,0.0,0.0,0.0,0.0,0.0,0.0,0.0,0.0,0.0,0.0,0.0,0.0,0.0,-1.3492,-1.3506,-1.3506,-1.4187,-1.482,-1.4585,-1.4692,-1.4812,-1.4577,-1.4005,-1.3404,-1.3075,-1.3001,-1.2914,-1.2592,-1.409,-1.5498,-1.5498,-1.6559,-1.7574,-1.8043,-1.8057,-1.9045,-2.1909,-2.1859,-2.2261,-2.4246,-2.4157,-2.3743,-2.3276,-2.3093,-2.3324,0.0,0.0,0.0,-2.321,-2.1133,-2.0873,-2.2848,-2.1865,-2.125,-2.1108,-2.0527,-2.0326,-2.0488,-1.9902,-1.9707,-1.9849,-2.0978,-2.0878,0.0,0.0,0.0,0.0,-1.9837,-1.9431,-1.8767,-1.8217,-1.793,-1.7801,-1.7787,-1.7787,-1.7808,0.0,0.0,0.0,0.0,0.0,0.0,0.0,-1.0646,-1.0153,-0.9213,-0.9313,-0.9281,-0.8807,-0.9343,-0.9789,-0.9988,-0.8793,0.0,0.0,0.0,0.0,0.0,0.0,0.0,0.0,0.0,-0.49,-0.5224,-0.5009,-0.5098,-0.5542,-0.546,-0.5754,-0.6417,-0.6078,-0.6342,0.0,0.0,0.0,0.0,0.0,0.0,0.0,0.0,0.0,0.0,0.0,0.0,0.0,0.0,0.0,0.0,0.0,0.0,0.0,-1.3492,-1.3872,-1.4216,-1.3894,-1.404,-1.4209,-1.3887,-1.3309,-1.2804,-1.2667,-1.2672,-1.2616,-1.2507,-1.3758,-1.4875,-1.4875,-1.5965,-1.711,-1.7834,-1.8238,-1.9132,-2.1085,-2.17,-2.2361,-2.3474,-2.3371,-2.2909,0.0,0.0,0.0,0.0,0.0,0.0,-2.1562,-2.0504,-2.0584,-2.2044,-2.032,-1.9742,-2.049,-1.9922,-1.9679,-1.9744,-1.9929,-2.0015,-2.0081,-2.0467,0.0,0.0,0.0,0.0,0.0,-1.8869,-1.8374,-1.7819,-1.7664,-1.7319,-1.6913,-1.6913,-1.6913,-1.6964,0.0,0.0,0.0,0.0,0.0,0.0,0.0,-1.1456,-1.1017,-1.0318,-1.0558,-1.0643,-1.0179,-1.0777,-1.1281,-1.1368,-1.0767,0.0,0.0,0.0,0.0,0.0,0.0,0.0,0.0,-0.6974,-0.7108,-0.746,-0.7205,-0.7305,-0.7769,-0.7688,-0.804,-0.8779,-0.8444,-0.8721,0.0,0.0,0.0,0.0,0.0,0.0,-1.2787,0.0,0.0,0.0,0.0,0.0,0.0,0.0,0.0,0.0,0.0,0.0,0.0,0.0,-1.3543,-1.3755,-1.355,-1.3733,-1.3901,-1.3579,-1.3001,-1.2521,-1.2672,-1.258,-1.2589,-1.2843,-1.3916,-1.4868,-1.5021,-1.5961,-1.6953,-1.7628,-1.7868,-1.8526,-2.0155,-2.0933,-2.1714,-2.2725,0.0,0.0,0.0,-2.0737,0.0,0.0,0.0,0.0,-1.9846,-1.8975,-1.8911,-1.9896,-1.8737,-1.8406,-1.9061,-1.897,-1.8922,-1.8987,-1.9551,-1.9844,-1.991,-2.0106,0.0,0.0,0.0,0.0,0.0,-1.8017,-1.7689,-1.7385,-1.7137,-1.6835,-1.65,-1.65,-1.65,-1.6531,0.0,0.0,0.0,0.0,0.0,0.0,0.0,-1.2061,-1.1963,-1.1665,-1.2325,-1.2707,-1.2369,-1.3239,-1.3726,-1.3461,0.0,0.0,0.0,0.0,0.0,0.0,0.0,0.0,0.0,-0.9397,-0.9498,-1.011,-0.9488,-0.9647,-1.0482,-1.0271,-1.0516,-1.1101,-1.0889,-1.1196,0.0,0.0,0.0,0.0,0.0,0.0,0.0,0.0,0.0,0.0,0.0,0.0,0.0,0.0,0.0,0.0,0.0,0.0,0.0,0.0,0.0,0.0,0.0,-1.3697,-1.3879,-1.3572,-1.3038,-1.2665,-1.2943,-1.2789,0.0,-1.3488,-1.4501,-1.5343,-1.5762,-1.638,-1.7,-1.7445,-1.7091,-1.7419,-1.9184,-1.9781,-2.0514,0.0,-2.1839,0.0,-2.1039,0.0,0.0,0.0,0.0,0.0,-1.8111,-1.6848,-1.6335,-1.6864,-1.7141,-1.724,-1.7202,-1.7765,-1.8104,-1.8224,-1.8822,-1.9192,-1.9377,-1.9841,0.0,0.0,0.0,0.0,0.0,-1.728,-1.7373,-1.7348,-1.6748,-1.65,-1.65,-1.65,-1.65,-1.65,0.0,0.0,0.0,0.0,0.0,0.0,0.0,0.0,0.0,0.0,-1.2622,-1.3005,-1.2716,-1.372,-1.4465,0.0,0.0,0.0,0.0,0.0,0.0,0.0,0.0,0.0,-1.0781,-1.0855,-1.0978,-1.1147,-1.0993,-1.1122,-1.1558,-1.1602,-1.2198,-1.3273,-1.3319,-1.3891,0.0,0.0,0.0,0.0,0.0,0.0,0.0,0.0,0.0,0.0,-1.5046,-1.4676,0.0,0.0,0.0,0.0,0.0,0.0,0.0,0.0,-1.3433,-1.344,-1.3192,0.0,-1.3594,-1.3514,-1.3382,-1.3221,0.0,-1.3381,-1.3772,-1.3956,-1.49,-1.5766,-1.6112,-1.632,-1.6656,-1.7367,-1.7022,-1.718,-1.8756,-1.9706,0.0,-2.0007,-2.0608,-2.0531,-1.9268,0.0,0.0,0.0,0.0,-1.7184,-1.6646,-1.6281,-1.5998,-1.5772,-1.5827,-1.6312,-1.7202,-1.7341,-1.7424,-1.7462,-1.8036,-1.8554,-1.9001,-1.8733,0.0,0.0,0.0,0.0,-1.7154,-1.6788,-1.6942,-1.7348,-1.6748,-1.65,-1.65,-1.65,-1.65,-1.65,0.0,0.0,0.0,0.0,0.0,0.0,0.0,0.0,0.0,0.0,0.0,0.0,0.0,0.0,0.0,0.0,0.0,0.0,0.0,0.0,0.0,0.0,0.0,-1.3188,-1.302,-1.318,-1.3139,-1.2917,-1.3157,-1.3205,-1.3145,-1.3434,-1.4008,-1.4838,-1.5252,-1.5765,0.0,0.0,0.0,0.0,-1.7188,0.0,0.0,0.0,0.0,0.0,-1.5219,-1.4763,0.0,-1.3939,-1.3758,-1.3621,0.0,0.0,0.0,0.0,-1.3992,-1.3962,-1.3772,-1.3716,-1.3756,-1.3827,-1.3895,-1.3991,-1.4029,-1.4346,-1.4697,-1.4843,-1.5629,-1.6357,-1.65,-1.6822,-1.7177,-1.7565,-1.7163,-1.713,-1.8146,0.0,-1.893,-1.8921,-1.9178,-1.9033,0.0,0.0,0.0,0.0,0.0,-1.659,-1.6124,-1.5909,-1.5654,-1.542,-1.541,-1.5719,-1.6358,-1.6641,-1.6782,-1.6782,-1.7351,-1.77,-1.7822,-1.7551,-1.7227,0.0,0.0,0.0,-1.63,-1.612,-1.6379,-1.6917,-1.6626,-1.65,-1.65,-1.65,-1.65,-1.65,0.0,0.0,0.0,0.0,0.0,0.0,0.0,0.0,0.0,0.0,0.0,0.0,0.0,0.0,0.0,0.0,0.0,0.0,0.0,0.0,0.0,0.0,0.0,-1.5513,-1.5418,-1.5481,-1.5318,-1.4818,-1.5287,-1.5345,-1.4954,-1.5355,-1.5808,-1.6233,-1.6918,-1.7242,0.0,0.0,-1.834,-1.8171,-1.834,0.0,0.0,0.0,0.0,0.0,0.0,0.0,0.0,-1.3453,-1.3484,-1.3764,-1.3764,0.0,0.0,0.0,0.0,0.0,-1.4668,-1.4499,-1.4327,-1.4329,-1.4588,-1.4926,-1.5194,-1.5397,-1.5586,-1.5819,-1.6456,-1.6973,-1.6905,-1.7392,-1.7782,-1.773,-1.735,0.0,-1.7571,-1.7397,-1.7451,-1.7959,-1.7746,0.0,0.0,0.0,0.0,0.0,0.0,-1.5758,-1.5641,-1.5254,-1.5042,-1.5071,-1.5071,-1.5128,-1.5215,-1.585,-1.6097,-1.5964,-1.656,-1.6661,-1.6367,-1.6367,-1.5902,0.0,0.0,0.0,-1.5186,-1.5365,-1.5732,-1.6175,-1.625,-1.6306,-1.6306,-1.6306,-1.6337,-1.6402,0.0,0.0,0.0,0.0,0.0,0.0,0.0,0.0,0.0,0.0,0.0,0.0,0.0,0.0,0.0,0.0,0.0,0.0,0.0,0.0,0.0,-2.0228,-1.7873,-1.637,-1.5982,-1.6384,-1.6323,-1.5879,-1.6351,-1.6548,-1.6477,-1.6648,-1.7205,-1.8027,-1.8517,-1.8754,-1.8754,-1.8931,-1.8972,-1.8923,-1.8962,0.0,0.0,0.0,0.0,0.0,0.0,0.0,0.0,-1.4821,-1.4488,-1.4535,-1.4449,0.0,0.0,0.0,0.0,0.0,-1.5027,-1.5374,-1.5581,-1.5158,-1.5444,-1.5746,-1.5242,-1.5871,-1.6509,-1.6204,-1.6804,-1.7372,-1.7332,-1.7317,-1.7278,-1.7291,0.0,-1.7387,0.0,0.0,-1.6691,-1.5971,0.0,0.0,0.0,0.0,0.0,0.0,0.0,-1.4131,-1.3495,-1.3425,-1.3449,-1.3607,-1.3635,-1.3827,-1.4299,-1.5124,-1.5153,-1.4434,-1.4919,-1.5188,-1.5243,-1.5243,-1.5205,0.0,0.0,-1.4944,-1.4618,-1.4789,-1.496,-1.513,-1.5255,-1.53,-1.53,-1.53,-1.5568,-1.5964,0.0,0.0,0.0,0.0,0.0,0.0,0.0,0.0,0.0,0.0,0.0,0.0,0.0,0.0,0.0,0.0,0.0,0.0,0.0,0.0,0.0,-2.1092,-1.9824,-1.8742,-1.7904,-1.8099,-1.7662,-1.6594,-1.7053,-1.7164,-1.6927,-1.7502,-1.8112,-1.8808,-1.9274,-1.9471,-1.9471,-1.9471,-1.9471,-1.9461,0.0,0.0,0.0,0.0,0.0,0.0,0.0,0.0,0.0,0.0,-1.4541,-1.4656,-1.4412,0.0,0.0,0.0,0.0,0.0,-1.5455,-1.5956,-1.6373,-1.642,-1.6863,-1.7231,-1.697,-1.7516,-1.7829,-1.6892,-1.7367,-1.7805,-1.727,-1.7278,-1.7347,-1.7272,0.0,-1.7048,-1.6594,-1.6287,-1.5796,0.0,0.0,0.0,0.0,0.0,0.0,0.0,0.0,0.0,-1.3009,-1.2823,-1.2913,-1.3286,-1.3304,-1.3454,-1.3773,-1.4387,-1.4494,-1.4104,-1.4309,-1.4333,-1.4194,-1.4194,-1.4079,-1.3907,0.0,-1.3941,-1.4014,-1.4154,-1.4399,-1.4698,-1.4903,-1.4983,-1.5006,-1.5085,-1.5232,-1.5445,0.0,0.0,0.0,0.0,0.0,0.0,0.0,0.0,0.0,0.0,0.0,0.0,0.0,0.0,0.0,0.0,0.0,0.0,0.0,0.0,-2.1561,-2.169,-2.1572,-2.0854,-1.949,-1.9559,-1.8875,-1.741,-1.7887,-1.7899,-1.7501,-1.8488,-1.9062,-1.9347,-1.9963,-2.0232,-2.0194,-2.0083,-2.0073,-2.0027,0.0,0.0,0.0,0.0,0.0,0.0,0.0,0.0,0.0,0.0,0.0,0.0,0.0,0.0,0.0,-1.5215,-1.5429,-1.5685,-1.578,-1.6179,-1.6764,-1.7434,-1.7829,-1.8113,-1.8352,-1.8551,-1.8445,-1.7431,-1.7765,-1.794,-1.6967,-1.6985,-1.7131,-1.7094,-1.6967,-1.6734,-1.6206,-1.5731,-1.5218,0.0,0.0,0.0,0.0,0.0,0.0,0.0,0.0,0.0,-1.2439,-1.2129,-1.2147,-1.2618,-1.2618,-1.2723,-1.2969,-1.3413,-1.3681,-1.3821,-1.3909,-1.3743,-1.3359,-1.3359,-1.3184,-1.2905,-1.2905,-1.3113,-1.3454,-1.3586,-1.3849,-1.419,-1.441,-1.4536,-1.4582,-1.4846,-1.4949,-1.4949,0.0,0.0,0.0,0.0,0.0,0.0,0.0,0.0,0.0,0.0,0.0,0.0,0.0,0.0,0.0,0.0,0.0,0.0,0.0,0.0,-2.2903,-2.3382,-2.2941,-2.1708,-1.9647,-2.0004,-1.9723,-1.8663,-1.9134,-1.9182,-1.8881,-2.0018,-2.0354,-2.0076,-2.1045,-2.1476,-2.1458,-2.1019,-2.0809,-2.0775,-2.0237,0.0,0.0,0.0,0.0,0.0,0.0,0.0,0.0,0.0,0.0,0.0,0.0,0.0,-1.5215,-1.5215,-1.5232,-1.5334,-1.5703,-1.5995,-1.65,-1.7658,-1.7598,-1.7458,-1.8165,-1.7806,-1.7383,-1.7458,-1.7632,-1.7416,-1.6362,-1.61,-1.6125,-1.6433,-1.6719,-1.6881,-1.6837,0.0,0.0,0.0,0.0,0.0,0.0,0.0,0.0,0.0,0.0,0.0,-1.0783,-1.0457,0.0,-1.0603,-1.0603,-1.0844,-1.1369,-1.1941,-1.2491,-1.3003,-1.3359,-1.333,-1.2954,-1.2954,-1.2935,-1.2905,-1.2905,-1.2929,-1.2954,-1.3099,-1.3172,-1.322,-1.33,-1.3409,-1.3576,-1.4233,-1.4443,-1.4512,0.0,0.0,0.0,0.0,0.0,0.0,0.0,0.0,0.0,0.0,0.0,0.0,0.0,0.0,0.0,0.0,0.0,0.0,0.0,-2.2647,-2.3039,-2.3573,-2.309,-2.2246,-2.1063,-2.052,-1.9705,-1.86,-1.8797,-1.9321,-2.0188,-2.0281,-2.0583,-2.1126,-2.1765,-2.1699,-2.1116,-2.1229,-2.1097,-2.0787,-2.0074,-1.9704,0.0,0.0,0.0,0.0,0.0,0.0,0.0,0.0,-1.4555,-1.4521,-1.4521,-1.4684,-1.4889,-1.4889,-1.5043,-1.5215,-1.5394,-1.6218,-1.7127,-1.7572,-1.7491,-1.7523,-1.8499,-1.8673,-1.849,-1.7972,-1.8095,-1.7842,-1.6518,-1.6411,-1.6411,-1.6133,-1.6191,-1.6199,-1.5994,0.0,0.0,0.0,0.0,0.0,0.0,0.0,0.0,0.0,0.0,0.0,0.0,-1.007,0.0,-1.0377,-1.0403,-1.0651,-1.12,-1.1435,-1.1635,-1.1843,-1.2731,-1.3062,-1.2905,-1.2905,-1.2905,-1.2905,-1.2905,-1.2905,-1.2905,-1.2954,-1.2978,-1.2978,-1.3089,-1.3238,-1.3433,-1.3681,-1.3823,-1.3928,0.0,0.0,0.0,0.0,0.0,0.0,0.0,0.0,0.0,0.0,0.0,0.0,0.0,0.0,0.0,0.0,0.0,0.0,-2.1886,-2.2387,-2.2912,-2.3451,-2.2964,-2.2474,-2.2076,-2.0751,-1.9738,-1.903,-1.9083,-1.9627,-2.0605,-2.0748,-2.1082,-2.1539,-2.2113,-2.2016,-2.1368,-2.1401,-2.1303,-2.1095,-2.038,-2.0031,0.0,0.0,0.0,0.0,0.0,0.0,0.0,0.0,-1.4662,-1.4453,-1.4453,-1.4555,-1.4684,-1.4684,-1.4917,-1.517,-1.5296,-1.6009,-1.6801,-1.6991,-1.6711,-1.6684,-1.7778,-1.83,-1.8353,-1.7796,-1.7492,-1.7023,-1.6095,-1.5789,0.0,0.0,-1.5148,-1.512,0.0,0.0,0.0,0.0,0.0,0.0,0.0,0.0,0.0,0.0,0.0,0.0,0.0,-0.9951,0.0,0.0,-1.0138,-1.0318,-1.0685,-1.0846,-1.0956,-1.0956,-1.1918,-1.2446,-1.2652,-1.2832,-1.2905,-1.2905,-1.2905,-1.2905,-1.2905,-1.2905,-1.2905,-1.2905,-1.3061,-1.3186,-1.331,-1.3372,-1.3467,-1.3539,0.0,0.0,0.0,0.0,0.0,0.0,0.0,0.0,0.0,0.0,0.0,0.0,0.0,0.0,0.0,0.0,0.0,0.0,-2.1472,-2.2061,-2.2637,-2.3184,-2.2673,-2.24,-2.2388,-2.0701,-1.9941,-2.0195,-2.0398,-2.0346,-2.0049,-2.1641,-2.1926,-2.1146,-2.2147,-2.2592,-2.2518,-2.1577,-2.1451,-2.1846,-2.1368,-2.0967,-2.0571,0.0,0.0,0.0,0.0,0.0,0.0,0.0,-1.4915,-1.5206,-1.5172,-1.4975,-1.4692,-1.4692,-1.4865,-1.5116,-1.5483,-1.5358,-1.526,-1.5821,-1.524,-1.4745,-1.5777,-1.6176,-1.6465,-1.6649,-1.5503,-1.4592,-1.4838,-1.3847,0.0,-1.3341,-1.3464,-1.3704,0.0,0.0,0.0,0.0,0.0,0.0,0.0,0.0,0.0,0.0,0.0,0.0,0.0,0.0,0.0,0.0,-0.9588,-0.9588,-0.9588,-1.0138,-1.0403,-1.0403,-1.093,-1.151,-1.2101,-1.2627,-1.2881,-1.2881,-1.2881,-1.2881,-1.2881,-1.2881,-1.2905,-1.2905,-1.3061,-1.3109,-1.3123,-1.3324,-1.3396,-1.3409,0.0,0.0,0.0,0.0,0.0,0.0,0.0,0.0,0.0,0.0,0.0,0.0,0.0,0.0,0.0,0.0,0.0,0.0,-2.2062,-2.2276,-2.2561,-2.2909,-2.26,-2.24,-2.2388,-2.1891,-2.1068,-1.9926,-2.0403,-2.0823,-2.1227,-2.1681,-2.1641,-2.1206,-2.1824,-2.1546,-2.0587,-2.0976,-2.1007,-2.0838,-2.0787,-2.0711,-2.0571,0.0,0.0,0.0,0.0,0.0,0.0,0.0,0.0,0.0,-1.4752,-1.5129,-1.5326,-1.4522,-1.505,-1.5666,-1.4448,-1.4825,-1.5442,-1.5049,-1.4897,-1.4827,-1.4688,-1.5192,-1.5693,-1.5662,-1.5113,-1.4532,-1.4119,-1.3838,0.0,-1.287,-1.2781,0.0,0.0,0.0,0.0,0.0,0.0,0.0,0.0,0.0,0.0,0.0,0.0,0.0,0.0,0.0,0.0,0.0,-0.9588,-0.9588,-0.9588,-0.9769,-0.9847,-0.9847,-1.037,-1.093,-1.146,-1.1635,-1.171,-1.171,-1.171,-1.171,-1.1735,-1.2175,-1.2554,-1.2905,-1.2929,-1.3027,-1.3099,-1.3204,-1.3145,-1.3006,0.0,0.0,0.0,0.0,0.0,0.0,0.0,0.0,0.0,0.0,0.0,0.0,0.0,0.0,0.0,0.0,0.0,0.0,0.0,-2.2305,-2.2491,-2.2782,-2.2631,-2.239,-2.2061,-2.227,-2.1773,-2.0479,-2.0667,-2.1014,-2.1425,-2.142,-2.1143,-2.0611,-2.108,-2.0711,-1.973,-2.0082,-2.0291,-2.0404,-2.0483,-2.0658,-2.0807,0.0,0.0,0.0,0.0,0.0,0.0,0.0,0.0,0.0,-1.4863,-1.5104,-1.5193,-1.4651,-1.4908,-1.5173,-1.4421,-1.4453,-1.4652,-1.4324,-1.4115,-1.3848,-1.3384,-1.4035,-1.4729,-1.4954,-1.436,-1.3684,-1.3306,-1.2868,0.0,-1.174,0.0,0.0,0.0,0.0,0.0,0.0,0.0,0.0,0.0,0.0,0.0,0.0,0.0,0.0,0.0,0.0,0.0,0.0,-0.9588,-0.9588,-0.9588,-0.9588,-0.9588,-0.9614,-0.9932,-1.0259,-1.0584,-1.0998,-1.12,-1.12,-1.12,-1.1334,-1.1585,-1.1952,-1.2431,-1.2905,-1.2905,-1.2856,-1.2746,-1.2849,-1.2819,-1.2713,0.0,0.0,0.0,0.0,0.0,0.0,0.0,0.0,0.0,0.0,-2.3068,0.0,0.0,0.0,0.0,0.0,0.0,0.0,0.0,0.0,-2.2448,-2.2822,-2.2865,-2.2538,-2.1786,-2.2283,-2.2296,-2.1747,-2.126,-2.1006,-2.1002,-2.1002,-2.0505,-1.9649,-2.0064,-2.0012,-1.9528,-1.908,-1.9459,-2.0343,-2.0389,-2.071,-2.1158,-2.0796,0.0,0.0,0.0,0.0,0.0,0.0,0.0,0.0,-1.5369,-1.5068,-1.4819,-1.4974,-1.4577,-1.4184,-1.4831,-1.4128,-1.326,-1.3642,-1.3107,-1.2377,-1.2154,-1.2801,-1.3595,-1.4259,-1.3325,-1.2404,-1.2375,-1.1394,-1.0491,0.0,0.0,0.0,0.0,0.0,0.0,0.0,0.0,0.0,0.0,0.0,0.0,0.0,0.0,0.0,0.0,0.0,0.0,-0.9588,-0.9588,-0.9588,-0.9588,-0.9588,-0.9588,0.0,-0.9588,-0.9588,-0.964,-1.0617,-1.1049,-1.1049,-1.1049,-1.1385,-1.1952,-1.1952,-1.2255,-1.2725,-1.2788,-1.2516,-1.2109,-1.2306,-1.2407,-1.2416,0.0,0.0,0.0,0.0,0.0,0.0,0.0,0.0,0.0,0.0,0.0,0.0,0.0,0.0,0.0,0.0,0.0,0.0,0.0,0.0,-2.2564,-2.3166,-2.3402,-2.3629,-2.3838,-2.3769,-2.3681,-2.3535,-2.2567,-2.1714,-2.1002,-2.1002,-2.0317,-1.9097,-1.9171,-1.8924,-1.8467,-1.877,-1.9264,-1.9884,-2.0262,-2.071,-2.119,-2.1094,-2.0828,0.0,0.0,0.0,0.0,0.0,0.0,0.0,-1.5608,-1.5984,-1.607,-1.471,-1.4766,-1.4874,-1.331,-1.2846,-1.281,-1.2736,-1.273,-1.2624,-1.2191,-1.2082,-1.2115,-1.2053,-1.1761,-1.1519,-1.1332,-1.0799,-1.0289,0.0,0.0,0.0,0.0,0.0,0.0,0.0,0.0,0.0,0.0,0.0,0.0,0.0,0.0,0.0,0.0,0.0,0.0,-0.9588,-0.9588,-0.9588,-0.9588,-0.9588,-0.9588,0.0,-0.9588,-0.9588,-0.9614,-0.9847,-0.995,-0.995,-0.995,-1.0259,-1.0761,-1.0761,-1.0964,-1.1315,-1.1997,-1.1826,-1.1271,-1.1978,-1.1901,-1.1432,0.0,0.0,0.0,0.0,0.0,0.0,0.0,0.0,0.0,0.0,0.0,0.0,0.0,0.0,0.0,0.0,0.0,0.0,0.0,0.0,-2.2776,-2.342,-2.3834,-2.4284,-2.4723,-2.4463,-2.429,-2.429,-2.3342,-2.2363,-2.1412,-2.0959,-2.0217,-1.9275,-1.9275,-1.8988,-1.849,-1.8782,-1.9206,-1.9734,-2.0217,-2.071,-2.119,-2.119,-2.0935,-2.0431,-1.9007,0.0,0.0,0.0,0.0,0.0,0.0,0.0,-1.5549,-1.463,-1.4212,-1.3838,-1.2739,-1.2424,-1.2422,-1.2552,-1.2587,-1.2501,-1.2175,-1.1796,-1.1347,-1.0793,-1.0835,-1.0871,-1.0511,-1.0141,0.0,0.0,0.0,0.0,0.0,0.0,0.0,0.0,0.0,0.0,0.0,0.0,0.0,0.0,0.0,0.0,0.0,-0.8553,-0.8817,-0.9021,-0.9204,-0.9309,-0.9309,-0.9517,-0.9588,-0.9588,-0.9588,-0.9588,-0.9588,-0.9588,-0.9588,-0.9588,-0.9588,-0.9841,-1.0208,-1.0208,-1.036,-1.0612,-1.1243,-1.1069,-1.0592,-1.1217,-1.1186,-1.087,0.0,0.0,0.0,0.0,0.0,0.0,0.0,0.0,0.0,0.0,0.0,0.0,0.0,0.0,0.0,0.0,0.0,0.0,0.0,0.0,0.0,-2.3742,-2.4361,-2.4764,-2.4898,-2.4711,-2.4498,-2.4334,-2.3682,-2.2949,-2.213,-2.103,-2.0238,-1.9688,-1.9688,-1.939,-1.8896,-1.9,-1.935,-1.9844,-2.0247,-2.0718,-2.119,-2.119,-2.0999,-2.0516,-1.9067,-1.8335,-1.7862,-1.6351,0.0,0.0,0.0,0.0,-1.468,-1.4546,-1.3536,-1.2478,-1.2504,-1.2322,-1.2186,-1.2586,-1.2517,-1.226,-1.1898,-1.1448,-1.0878,-0.9985,-1.0089,-1.0238,-0.9747,-0.9363,0.0,0.0,0.0,0.0,0.0,0.0,0.0,0.0,0.0,0.0,0.0,0.0,0.0,0.0,0.0,0.0,-0.7643,-0.801,-0.8235,-0.8315,-0.8771,-0.9008,-0.9008,-0.9387,-0.9588,-0.9588,-0.9588,-0.9588,-0.9588,-0.9588,-0.9588,-0.9607,-0.9563,-0.9647,-0.9865,-0.9802,-0.9865,-1.0058,-1.0486,-1.0377,-1.0012,-1.0351,-1.0487,-1.044,0.0,0.0,0.0,0.0,0.0,0.0,0.0,0.0,0.0,0.0,-2.477,0.0,0.0,0.0,0.0,0.0,0.0,0.0,-2.4287,0.0,0.0,-2.4476,-2.503,-2.5122,-2.4572,-2.4817,-2.4537,-2.3736,-2.3334,-2.3162,-2.3187,-2.1685,-2.0557,-1.9688,-1.9688,-1.939,-1.8919,-1.939,-1.9863,-2.031,-2.0368,-2.073,-2.119,-2.119,-2.1158,-2.0901,-1.9317,-1.8629,-1.8203,-1.6613,-1.5929,0.0,0.0,0.0,-1.4916,-1.4335,-1.3528,-1.2681,-1.2034,-1.1948,-1.211,-1.2175,-1.2179,-1.1863,-1.0867,-1.0587,-1.0224,0.0,-0.9255,-0.9368,-0.8724,0.0,0.0,0.0,0.0,0.0,0.0,0.0,0.0,0.0,0.0,0.0,0.0,0.0,0.0,0.0,-0.6269,0.0,-0.6588,-0.7149,-0.761,-0.7957,-0.8633,-0.9008,-0.9008,-0.9387,-0.9588,-0.9588,-0.9588,-0.9588,-0.9588,-0.9588,-0.9588,-0.9599,-0.9343,-0.9286,-0.9269,-0.8987,-0.8886,-0.8996,-0.9803,-0.9826,-0.9453,-0.9915,-1.0004,-0.9868,0.0,0.0,0.0,0.0,0.0,0.0,0.0,0.0,0.0,0.0,0.0,-2.5394,0.0,0.0,0.0,-2.4715,-2.4695,-2.4558,-2.4256,-2.4641,-2.4808,-2.4609,-2.4676,-2.4739,-2.4795,-2.4406,-2.4123,-2.3891,-2.2724,-2.2434,-2.2929,-2.14,-2.08,-2.0917,-2.0343,-1.9959,-1.9772,-1.9973,-2.0201,-2.0432,-2.0715,-2.098,-2.119,-2.119,-2.119,-2.0976,-1.9391,-1.8665,-1.8257,-1.6629,-1.5964,-1.5841,-1.5972,0.0,0.0,0.0,-1.2895,-1.2052,-1.1766,-1.169,-1.167,-1.1684,-1.1605,-1.1242,-1.0362,-0.9969,-0.9465,-0.826,-0.7976,-0.7991,-0.8203,0.0,0.0,0.0,0.0,0.0,0.0,0.0,0.0,0.0,0.0,0.0,0.0,0.0,0.0,0.0,-0.6011,-0.6154,-0.6268,-0.6723,-0.7106,-0.745,-0.799,-0.8395,-0.8659,-0.9054,-0.9387,-0.9588,-0.9588,-0.9588,-0.9588,-0.9588,-0.9588,-0.9599,-0.9324,-0.92,-0.9178,-0.8848,-0.8692,-0.8768,-0.9335,-0.9414,-0.9316,-0.9807,-0.9931,-0.9877,0.0,0.0,0.0,0.0,0.0,0.0,0.0,0.0,0.0,0.0,0.0,0.0,0.0,0.0,0.0,0.0,-2.5371,-2.5103,-2.4451,-2.45,-2.4571,-2.4568,-2.4255,-2.4233,-2.4528,-2.4002,-2.3718,-2.3635,-2.2334,-2.1989,-2.2561,-2.1221,-2.1078,-2.186,-2.0997,-2.0542,-2.0396,-2.0553,-2.0591,-2.0642,-2.1042,-2.119,-2.1213,-2.1335,-2.131,-2.1001,-1.9679,-1.8927,-1.8345,-1.6821,-1.6105,-1.5885,-1.5805,-1.4852,0.0,0.0,0.0,-1.1297,-1.1407,-1.108,-1.0832,-1.107,-1.0646,-1.0018,-0.9531,-0.8989,-0.8322,0.0,-0.6692,-0.6592,-0.726,0.0,0.0,0.0,0.0,0.0,0.0,0.0,0.0,0.0,0.0,0.0,0.0,0.0,0.0,0.0,-0.591,-0.5908,-0.5973,-0.6349,-0.6674,-0.6864,-0.7402,-0.791,-0.8395,-0.8896,-0.9309,-0.9588,-0.9588,-0.9588,-0.9588,-0.9588,-0.9588,-0.9566,-0.9211,-0.9126,-0.917,-0.876,-0.8663,-0.8862,-0.9104,-0.9269,-0.944,-0.9766,-0.9936,-1.0052,0.0,0.0,0.0,0.0,0.0,0.0,0.0,0.0,0.0,0.0,0.0,0.0,-2.5597,-2.5597,-2.5597,-2.5597,-2.5578,-2.5502,-2.5256,-2.4941,-2.4694,-2.4499,-2.4234,0.0,-2.321,-2.3758,-2.352,-2.24,-2.2486,-2.2539,-2.2482,-2.1585,-2.141,-2.1871,-2.1397,-2.0891,-2.0435,-2.0937,-2.1175,-2.1164,-2.1178,-2.119,-2.125,-2.171,-2.1583,-2.1138,-2.0532,-1.9646,-1.8588,-1.7299,-1.6501,-1.606,-1.5849,-1.4975,-1.3874,0.0,0.0,0.0,-1.0655,-1.0016,-0.9472,-1.0168,-0.9117,-0.7873,-0.7892,0.0,-0.656,-0.5853,-0.5476,-0.5307,0.0,0.0,0.0,0.0,0.0,0.0,0.0,0.0,0.0,0.0,0.0,0.0,0.0,0.0,0.0,0.0,-0.5563,-0.5337,-0.5352,-0.5914,-0.6236,-0.6236,-0.7182,-0.791,-0.8395,-0.9178,-0.9588,-0.9588,-0.9588,-0.9588,-0.9588,-0.9588,-0.9588,-0.9559,-0.8977,-0.8914,-0.9148,-0.8487,-0.859,-0.9178,-0.9192,-0.9509,-0.9938,-0.9692,-0.9897,-1.0236,0.0,0.0,0.0,0.0,0.0,0.0,0.0,0.0,0.0,0.0,0.0,0.0,0.0,-2.5597,-2.5597,-2.5597,-2.5597,-2.5505,-2.5314,-2.4943,-2.4836,-2.5058,-2.4402,-2.4122,-2.4317,-2.3769,-2.3359,-2.3134,-2.1734,-2.1321,-2.1762,-2.037,-2.0148,-2.0931,-2.1132,-2.1241,-2.1371,-2.125,-2.1569,-2.2109,-2.1454,-2.1581,-2.2099,-2.1645,-2.1751,-2.1959,-2.0413,-1.9679,-1.9239,-1.7759,-1.6822,-1.6289,-1.6201,-1.528,-1.3961,-1.2608,-1.126,-1.0227,-1.0523,-0.9764,-0.889,-0.9009,-0.8115,-0.7069,-0.6636,-0.6333,-0.5918,-0.5176,-0.4838,-0.4582,0.0,0.0,0.0,0.0,0.0,0.0,0.0,0.0,0.0,0.0,0.0,0.0,0.0,0.0,0.0,0.0,0.0,0.0,-0.5859,-0.6073,-0.6372,-0.6756,-0.7133,-0.767,-0.8395,-0.8949,-0.9335,-0.9588,-0.9588,-0.9588,-0.9588,-0.9588,-0.9588,-0.9592,-0.9182,-0.92,-0.9424,-0.9024,-0.9072,-0.9486,-0.9646,-0.9823,-1.0035,-1.0319,-1.0548,-1.0698,0.0,0.0,0.0,0.0,0.0,0.0,0.0,0.0,0.0,-2.5629,0.0,0.0,0.0,0.0,-2.5597,-2.5597,-2.5597,-2.5656,-2.5763,-2.515,-2.5029,-2.5565,-2.4637,-2.4286,-2.4683,-2.3656,-2.316,-2.3301,-2.1378,-2.0651,-2.1072,-1.9778,-1.9608,-2.0423,-2.0756,-2.1195,-2.1634,-2.133,-2.1684,-2.2352,-2.1535,-2.1903,-2.2868,-2.218,-2.2479,-2.2939,-2.1056,-2.0218,-1.9686,-1.7935,-1.6866,-1.6298,-1.6237,-1.51,-1.3504,-1.1958,-1.0703,-0.9876,-1.0244,-0.9294,-0.816,-0.8181,-0.7112,-0.5974,-0.555,-0.53,-0.4983,-0.4413,-0.4183,-0.3949,0.0,0.0,0.0,0.0,0.0,0.0,0.0,0.0,0.0,0.0,0.0,0.0,0.0,0.0,0.0,0.0,0.0,0.0,-0.5891,-0.61,-0.648,-0.7085,-0.7219,-0.7649,-0.8395,-0.8798,-0.9211,-0.9588,-0.9588,-0.9588,-0.9588,-0.9588,-0.9588,-0.9599,-0.9409,-0.9431,-0.9592,-0.9317,-0.9351,-0.964,-0.9888,-1.0076,-1.0231,-1.0718,-1.0972,-1.1074,0.0,0.0,0.0,0.0,0.0,0.0,0.0,0.0,-2.6442,-2.5726,0.0,0.0,0.0,0.0,0.0,-2.5662,-2.5662,-2.5953,-2.6665,-2.567,-2.5316,-2.5887,-2.4912,-2.4325,-2.4177,-2.3505,-2.3059,-2.2774,-2.1537,-2.079,-2.0521,-1.9939,-1.993,-2.0389,-2.0389,-2.0676,-2.119,-2.119,-2.1479,-2.1906,-2.1399,-2.2111,-2.3442,-2.3407,-2.3705,-2.3959,-2.2403,-2.1192,-1.9976,-1.7769,-1.6643,-1.6114,-1.5893,-1.4489,-1.2696,-1.149,-1.0446,-0.9695,0.0,0.0,0.0,-0.7805,-0.6165,-0.447,-0.4719,0.0,-0.3562,-0.352,-0.3463,-0.3399,0.0,0.0,0.0,0.0,0.0,0.0,0.0,0.0,0.0,0.0,0.0,0.0,0.0,0.0,0.0,0.0,0.0,-0.5506,-0.5337,-0.5891,-0.648,-0.7085,-0.7482,-0.791,-0.8395,-0.8771,-0.9159,-0.9588,-0.9588,-0.9588,-0.9562,-0.9588,-0.9588,-0.9588,-0.9588,-0.9614,-0.9592,-0.9332,-0.9383,-0.964,-0.9914,-1.0205,-1.0547,-1.082,-1.1074,-1.1301,0.0,0.0,0.0,0.0,0.0,0.0,-2.7235,-2.6879,-2.662,0.0,0.0,0.0,-2.5662,-2.6085,-2.6587,-2.7089,-2.7122,-2.7025,-2.6851,-2.6539,-2.625,-2.5981,-2.6151,-2.6193,-2.6075,-2.543,-2.5094,-2.5015,-2.2736,-2.1385,-2.0909,-1.969,-1.939,-1.9895,-1.9895,-2.0366,-2.119,-2.119,-2.2121,-2.3454,-2.2214,-2.2834,-2.4384,-2.3305,-2.3067,-2.3125,-2.1402,-2.0569,-1.9984,0.0,-1.7585,-1.7183,-1.6398,-1.5142,-1.3685,-1.2483,-1.1407,-1.0444,-0.9625,0.0,0.0,0.0,0.0,0.0,0.0,0.0,-0.3544,-0.3583,-0.3469,-0.3399,0.0,0.0,0.0,0.0,0.0,0.0,0.0,0.0,0.0,0.0,0.0,0.0,0.0,0.0,0.0,0.0,-0.5718,-0.562,-0.5667,-0.6245,-0.6729,-0.7085,-0.7214,-0.7616,-0.8395,-0.8182,-0.8441,-0.9159,-0.9159,-0.9001,-0.8758,-0.9328,-0.9439,-0.9185,-0.9484,-0.9725,-0.9855,-0.9611,-0.9651,-0.9914,-1.0231,-1.0539,-1.082,-1.1099,-1.1251,-1.1301,0.0,0.0,0.0,0.0,0.0,-2.9021,-2.8271,-2.7818,-2.7462,0.0,0.0,0.0,-2.6503,-2.7138,-2.7608,-2.7688,-2.7504,-2.7349,-2.7356,-2.6974,-2.6647,-2.6478,-2.6607,-2.6732,-2.6793,-2.595,-2.564,-2.5893,-2.3215,-2.1735,-2.1387,-1.9924,-1.9505,-1.9998,-1.9998,-2.0423,-2.119,-2.119,-2.2121,-2.3465,-2.233,-2.3086,-2.4797,-2.3718,-2.3455,0.0,0.0,0.0,-1.9897,-1.8212,-1.7421,0.0,0.0,-1.5122,-1.407,-1.276,-1.1529,-1.042,-0.9567,-0.8734,-0.7951,-0.74,0.0,0.0,-0.4882,-0.4514,-0.4296,0.0,-0.3865,-0.365,0.0,0.0,0.0,0.0,0.0,0.0,0.0,0.0,0.0,0.0,0.0,0.0,0.0,-0.5694,-0.5958,-0.601,-0.5926,-0.5931,-0.6095,-0.6484,-0.681,-0.7085,-0.7112,-0.7434,-0.8103,-0.783,-0.8043,-0.8745,-0.8745,-0.8633,-0.8421,-0.9047,-0.9211,-0.9035,-0.955,-0.9862,-0.9999,-0.9991,-1.0069,-1.0231,-1.0539,-1.0769,-1.0922,-1.12,-1.1301,-1.1301,0.0,0.0,-2.9086,-2.9977,-3.0058,-2.9767,-2.9038,-2.8859,-2.8526,0.0,-2.7655,-2.7724,-2.8008,-2.8498,-2.8628,-2.8223,-2.7556,-2.7422,-2.8115,-2.7174,-2.6733,-2.699,-2.6623,-2.6562,-2.6905,-2.5851,-2.5583,-2.6104,-2.3481,-2.2133,-2.1977,-2.0485,-1.9998,-2.0412,-2.0412,-2.0687,-2.119,-2.119,-2.172,-2.2457,-2.2035,-2.3074,0.0,0.0,-2.4011,-2.3922,-2.2206,-2.0869,-1.961,-1.7677,-1.6744,0.0,0.0,0.0,0.0,0.0,-1.1343,-1.0223,-0.9576,-0.8882,-0.8248,-0.802,-0.7517,0.0,-0.6057,-0.5625,-0.5272,0.0,-0.4331,-0.3894,-0.3894,0.0,0.0,0.0,0.0,0.0,0.0,0.0,0.0,0.0,0.0,0.0,-0.4749,-0.5282,-0.5781,-0.616,-0.6201,-0.6284,-0.6492,-0.6636,-0.681,-0.7085,-0.7112,-0.73,-0.7696,-0.767,-0.7857,-0.8315,-0.8315,-0.8289,-0.8262,-0.8718,-0.8929,-0.8982,-0.9636,-0.9973,-1.0076,-1.0411,-1.0547,-1.0573,-1.0794,-1.0922,-1.0972,-1.1217,-1.1301,-1.1301,0.0,-2.9356,-2.9394,-3.1251,-3.1105,-3.0474,-2.9783,-2.9183,-2.8597,-2.8011,-2.7422,-2.7875,-3.0035,-2.9389,-2.9437,-3.1024,-2.9642,-2.8802,-2.9109,-2.7995,-2.7041,-2.6472,-2.6866,-2.7243,-2.7608,-2.7383,-2.7313,-2.744,-2.5113,-2.3524,-2.2583,-2.0997,-2.032,-2.0412,-2.0412,-2.0687,-2.119,-2.119,-2.1211,-2.1262,-2.1504,-2.2909,-2.4705,-2.2956,-2.2104,-2.1675,-2.0306,-1.9253,-1.8386,-1.7635,-1.7009,-1.6501,0.0,0.0,0.0,-1.298,0.0,0.0,0.0,0.0,0.0,0.0,0.0,0.0,-0.645,-0.5472,-0.4705,0.0,-0.3982,-0.336,-0.336,0.0,0.0,0.0,0.0,0.0,0.0,0.0,0.0,0.0,0.0,0.0,-0.4749,-0.5282,-0.5781,-0.616,-0.6151,-0.6238,-0.6478,-0.6636,-0.681,-0.7085,-0.7112,-0.73,-0.7696,-0.7375,-0.7429,-0.783,-0.783,-0.767,-0.7375,-0.8156,-0.8527,-0.856,-0.9237,-0.9862,-1.0419,-1.0718,-1.082,-1.082,-1.0871,-1.1023,-1.1226,-1.1276,-1.1301,-1.1301,-2.8913,-2.9277,-2.9913,-3.1688,-3.1681,-3.1348,-3.0992,-3.0077,-2.9348,-2.9035,-2.9053,-2.9365,-3.0029,-3.0323,-3.0537,-3.0638,-3.008,-2.9494,-2.8966,-2.8427,-2.771,-2.6839,-2.7139,-2.7314,-2.7284,-2.7298,-2.7298,-2.7298,-2.5432,-2.4052,-2.3103,-2.1546,-2.0791,-2.0791,-2.0791,-2.096,-2.119,-2.119,-2.1078,-2.0906,-2.1124,0.0,-2.259,-2.1549,-2.0781,-2.0165,-1.9545,-1.8577,-1.7596,-1.7293,-1.694,0.0,-1.6266,-1.6014,-1.5432,0.0,-1.2606,-1.1704,0.0,0.0,0.0,-0.8383,0.0,0.0,0.0,-0.6789,-0.6156,-0.5847,-0.4965,-0.4187,-0.402,0.0,-0.3256,0.0,0.0,0.0,0.0,0.0,0.0,0.0,0.0,0.0,-0.515,-0.5448,-0.5782,-0.6258,-0.638,-0.6515,-0.6632,-0.6807,-0.6972,-0.7085,-0.7112,-0.7192,-0.7402,-0.7192,-0.7192,-0.7402,-0.7402,-0.7295,-0.7139,-0.7996,-0.8474,-0.8653,-0.9543,-1.0061,-1.0293,-1.0863,-1.0761,-1.0318,-1.0888,-1.1175,-1.1301,-1.1301,-1.1301,-1.1301,-2.8142,-2.8914,-3.001,-3.1704,-3.1875,-3.185,-3.1996,-3.1023,-3.0227,-3.0073,-3.0469,-3.0475,-2.9751,-3.0943,-3.1295,-3.0012,-3.0037,-2.9787,-2.8936,-2.8739,-2.8294,-2.7496,-2.7454,-2.7343,-2.7172,-2.7059,-2.7031,-2.7086,-2.5332,-2.4197,-2.3543,-2.1956,-2.119,-2.119,-2.119,-2.1152,-2.1103,-2.1103,-2.0863,-2.0479,0.0,-2.0461,-2.0465,-2.0155,-1.9685,-1.9147,-1.8925,-1.812,-1.7108,-1.6911,-1.6731,-1.6543,-1.6193,-1.6,0.0,0.0,0.0,0.0,0.0,0.0,0.0,0.0,0.0,-0.8724,0.0,0.0,0.0,-0.7073,-0.6141,0.0,0.0,0.0,0.0,0.0,0.0,0.0,0.0,0.0,0.0,0.0,0.0,0.0,0.0,-0.5634,-0.5951,-0.635,-0.6648,-0.6791,-0.6791,-0.6984,-0.7112,-0.7112,-0.7112,-0.7112,-0.7112,-0.7112,-0.7112,-0.7112,-0.7112,-0.7112,-0.7139,-0.7863,-0.8342,-0.8699,-0.981,-1.012,-0.9917,-1.0778,-1.0523,-0.9692,-1.0727,-1.1065,-1.0956,-1.0956,-1.104,-1.1124,-2.8509,-2.8292,-2.8806,-3.1542,-3.1454,-3.1244,-3.1915,-3.143,-3.0795,-3.0248,-2.939,-2.9384,-3.0922,-3.0678,-3.0859,-3.1951,-3.05,-2.9711,-3.0235,-2.9139,-2.8326,-2.8097,-2.7982,-2.8106,-2.8464,-2.7974,-2.7813,-2.8055,-2.5651,-2.428,-2.3834,-2.204,-2.119,-2.119,-2.119,-2.1033,-2.0752,-2.0752,-2.0007,0.0,-1.8879,-1.953,0.0,-1.8939,-1.8537,-1.8643,-1.7551,-1.7079,-1.6903,0.0,-1.6605,-1.6526,0.0,-1.6061,-1.5739,-1.4178,0.0,0.0,0.0,0.0,0.0,0.0,-0.8685,0.0,0.0,0.0,-0.7279,-0.7181,0.0,0.0,0.0,0.0,0.0,0.0,0.0,0.0,0.0,0.0,0.0,0.0,0.0,0.0,0.0,-0.5833,-0.6317,-0.6387,-0.6648,-0.6791,-0.6791,-0.6984,-0.7112,-0.7112,-0.7112,-0.7112,-0.7112,-0.7112,-0.7112,-0.7112,-0.7112,-0.7112,-0.7112,-0.7338,-0.7622,-0.8057,-0.9093,-0.9439,-0.9361,-1.0164,-1.0138,-0.9666,-1.0267,-1.0216,-0.9795,-0.9795,-1.0087,-1.0506,-2.7547,-2.832,-2.9426,-3.0865,-3.1302,-3.1561,-3.1788,-3.1508,-3.0755,-2.9334,-3.0015,-3.0661,-3.0703,-3.1078,-3.1264,-3.1189,-3.105,-3.0909,0.0,-3.0577,-3.0195,-2.9746,-2.9286,-2.8925,-2.8703,-2.8436,-2.794,-2.7166,-2.5721,-2.45,-2.341,-2.1906,-2.119,-2.1213,-2.1242,-2.1008,-2.0547,-2.0575,-1.9889,0.0,0.0,0.0,0.0,-1.7746,-1.7515,-1.7574,-1.7068,-1.6908,-1.6908,0.0,-1.6621,0.0,0.0,0.0,0.0,-1.4253,0.0,0.0,0.0,0.0,0.0,0.0,0.0,0.0,-0.8673,0.0,-0.7912,0.0,0.0,0.0,0.0,0.0,0.0,0.0,-0.5707,0.0,0.0,0.0,0.0,0.0,0.0,0.0,0.0,0.0,0.0,0.0,-0.6617,-0.674,-0.6643,-0.7036,-0.723,-0.7117,-0.7225,-0.723,-0.7112,-0.7112,-0.7112,-0.7112,-0.7112,-0.7139,-0.723,-0.7515,-0.7883,-0.8355,-0.8995,-0.9152,-0.9021,-0.9666,-0.9406,-0.8679,-0.9249,-0.9536,-0.9588,-0.9588,-0.9744,-0.9984,-2.7676,-2.8827,-3.0109,-3.0776,-3.1457,-3.1867,-3.1786,-3.1468,-3.0793,-2.9519,-3.0821,-3.1527,-3.0594,-3.1267,-3.1363,-3.0353,-3.1202,-3.1565,0.0,0.0,-3.1606,-3.1055,-3.0556,-2.9939,-2.9209,-2.9026,-2.8232,-2.6752,-2.5683,-2.457,-2.3413,-2.19,-2.127,-2.1388,-2.146,-2.1028,-2.027,-2.0465,-1.9843,-1.8639,-1.8244,-1.7738,-1.716,-1.6974,-1.6908,-1.6908,-1.6908,-1.6908,-1.689,-1.678,-1.6537,0.0,-1.5788,0.0,0.0,0.0,0.0,0.0,-1.2553,0.0,0.0,0.0,0.0,0.0,0.0,0.0,0.0,0.0,0.0,0.0,0.0,0.0,0.0,-0.6342,0.0,-0.67,0.0,0.0,0.0,0.0,0.0,0.0,0.0,0.0,0.0,-0.6393,-0.663,-0.6757,-0.663,-0.7105,-0.731,-0.7117,-0.7294,-0.7304,-0.7112,-0.7112,-0.7112,-0.7112,-0.7112,-0.7144,-0.7257,-0.7616,-0.7984,-0.8335,-0.8863,-0.889,-0.8593,-0.9145,-0.8784,-0.7955,-0.8395,-0.8778,-0.9145,-0.9145,-0.9249,-0.9432,-2.9799,-2.9848,-3.0325,-3.1643,-3.1893,-3.1913,-3.1872,-3.1323,-3.1127,-3.1729,-3.1333,-3.1022,-3.0994,-3.0994,0.0,0.0,0.0,-3.104,-3.0994,0.0,-3.1707,0.0,0.0,-3.112,-3.0455,-2.9883,-2.8935,-2.765,-2.5558,-2.443,-2.4218,-2.2153,-2.1422,-2.1871,-2.1883,-2.1136,-1.9961,-2.047,-1.9703,-1.8074,-1.7692,-1.7042,-1.6395,0.0,-1.6908,-1.6908,-1.6908,0.0,0.0,-1.6434,-1.6306,0.0,0.0,0.0,0.0,0.0,0.0,0.0,0.0,0.0,0.0,-1.1423,0.0,0.0,0.0,0.0,-0.9588,0.0,0.0,0.0,0.0,0.0,-0.7755,-0.7237,-0.7333,0.0,0.0,0.0,0.0,0.0,0.0,0.0,0.0,0.0,0.0,-0.6852,-0.6835,-0.6816,-0.6882,-0.7219,-0.731,-0.7117,-0.7294,-0.7304,-0.7112,-0.7112,-0.7112,-0.7112,-0.7112,-0.7112,-0.7112,-0.7386,-0.7521,-0.7574,-0.8435,-0.8468,-0.7981,-0.8573,-0.8468,-0.7901,-0.7928,-0.7928,-0.7955,-0.7955,-0.8315,-0.883,-3.1051,-3.1126,-3.1324,-3.1581,-3.1608,-3.1326,-3.0618,-3.1161,-3.166,-3.1748,-3.1971,0.0,0.0,-3.1105,-3.0774,0.0,0.0,-3.1584,-3.1919,-3.245,0.0,0.0,-3.2334,-3.1991,0.0,-3.0303,-2.9017,-2.7952,-2.5902,-2.441,-2.3393,-2.223,-2.1583,-2.1433,-2.1471,-2.084,-1.9729,0.0,0.0,0.0,0.0,-1.7015,-1.6307,0.0,0.0,-1.6481,-1.6255,-1.6233,0.0,-1.5749,-1.5581,-1.5486,-1.4868,-1.4586,-1.4372,-1.385,-1.3708,0.0,0.0,0.0,-1.2389,-1.2143,0.0,0.0,0.0,0.0,0.0,0.0,0.0,0.0,0.0,0.0,-0.9587,-0.9418,-0.8957,-0.8526,0.0,0.0,0.0,0.0,0.0,0.0,0.0,0.0,0.0,-0.7122,-0.6965,-0.683,-0.6774,-0.7163,-0.7357,-0.7304,-0.7351,-0.7357,-0.7299,-0.7165,-0.7112,-0.7112,-0.7112,-0.7144,-0.723,-0.7338,-0.7467,-0.7649,-0.7931,-0.7996,-0.7928,-0.8135,-0.8082,-0.7901,-0.7901,-0.7901,-0.7901,-0.7901,-0.8029,-0.8262,-3.1998,-3.1964,-3.1862,-3.1527,-3.1259,-3.0945,-3.0457,-3.1395,-3.2094,0.0,-3.2345,0.0,-3.1349,0.0,-3.0612,0.0,-3.0931,-3.149,-3.205,-3.2643,0.0,-3.3276,-3.2946,-3.2485,0.0,0.0,0.0,0.0,-2.5831,-2.4343,-2.2877,-2.2039,-2.1583,-2.1445,-2.1483,-2.0805,-1.963,-1.9883,-1.9286,0.0,0.0,-1.6709,0.0,0.0,-1.6,-1.6102,0.0,-1.5769,-1.5623,-1.5133,-1.504,-1.501,-1.4431,-1.4215,-1.4101,-1.377,-1.364,-1.3601,-1.3601,-1.323,0.0,-1.2856,-1.2481,0.0,-1.1764,0.0,0.0,0.0,0.0,0.0,0.0,0.0,-1.0495,-1.0496,-1.0023,-0.9544,0.0,-0.8582,0.0,0.0,0.0,0.0,0.0,0.0,-0.7712,-0.7482,-0.7354,-0.7178,0.0,0.0,-0.7508,-0.7399,-0.7394,-0.7394,-0.7394,-0.7209,-0.7112,-0.7112,-0.7112,-0.7139,-0.723,-0.7338,-0.7467,-0.7643,-0.7729,-0.7815,-0.7901,-0.7901,-0.7901,-0.7901,-0.7901,-0.7901,-0.7901,-0.7901,-0.7901,-0.7975,-3.2611,-3.2344,-3.1953,-3.1481,-3.0877,0.0,0.0,0.0,-3.2342,0.0,-3.2368,-3.1833,-3.062,-3.0475,-3.0219,-2.9641,-3.0133,-3.0783,-3.1401,-3.2047,0.0,0.0,-3.3199,-3.2555,-3.1211,0.0,0.0,0.0,0.0,-2.4251,-2.2696,-2.1696,-2.1445,-2.186,-2.186,-2.1012,-1.9591,-2.0109,-1.9203,-1.7385,-1.6673,-1.615,-1.5737,-1.536,-1.5426,-1.5728,-1.5728,-1.5464,-1.5092,-1.4684,-1.4684,-1.4754,-1.4155,-1.4109,-1.4207,-1.404,-1.389,-1.3799,-1.3799,-1.3623,-1.3485,-1.3485,0.0,0.0,0.0,0.0,-1.2151,0.0,0.0,0.0,0.0,0.0,0.0,-1.0583,-1.0537,-1.0407,-1.0155,0.0,-0.8976,0.0,0.0,0.0,-0.847,-0.84,-0.8276,-0.7977,-0.7967,-0.7835,0.0,0.0,-0.7704,-0.7437,-0.7405,-0.7399,-0.741,-0.7225,-0.7122,-0.7112,-0.7112,-0.7112,-0.7112,-0.7354,-0.7494,-0.7494,-0.7762,-0.7875,-0.7901,-0.7901,-0.7901,-0.7901,-0.7901,-0.7901,-0.7901,-0.7901,-0.7901,-0.7975,-3.2591,-3.2307,-3.2041,0.0,-3.0551,-3.0347,0.0,0.0,0.0,0.0,-3.1581,-3.0853,-3.054,-3.0105,-2.9768,-2.9617,-3.0133,0.0,0.0,0.0,0.0,-3.218,-3.1789,-3.1473,-3.1213,-2.9047,-2.7656,-2.7089,0.0,-2.3662,-2.2911,-2.2097,-2.1606,-2.1385,-2.1385,-2.0566,-1.9163,-1.9309,-1.8341,-1.6664,-1.6467,-1.5987,0.0,0.0,-1.4939,-1.4545,-1.4545,-1.4548,-1.4463,-1.3939,-1.3909,-1.4022,-1.3726,-1.367,-1.37,-1.3631,-1.3601,-1.3571,-1.3571,-1.3352,-1.3146,-1.3146,-1.2894,-1.2729,0.0,0.0,0.0,0.0,0.0,0.0,0.0,0.0,0.0,-1.1913,-1.1154,-1.0415,-1.0153,0.0,0.0,-0.941,0.0,0.0,-0.9233,-0.8659,-0.8358,-0.862,-0.8154,-0.7813,0.0,0.0,0.0,-0.7998,-0.7605,-0.7508,-0.7709,-0.7449,-0.7235,-0.7112,-0.7112,-0.7112,-0.7112,-0.7166,-0.7252,-0.7365,-0.7521,-0.7655,-0.7756,-0.7869,-0.7901,-0.7901,-0.7901,-0.7901,-0.7901,-0.7901,-0.7901,-0.7928,-3.2841,-3.2422,-3.2144,-3.1933,0.0,0.0,-3.195,-3.1754,0.0,-3.1832,-3.1051,0.0,-3.0043,-2.9273,-2.8778,-2.8778,-2.8862,0.0,-2.8963,0.0,0.0,-3.015,-2.9859,-2.9665,-2.9584,-2.7772,0.0,-2.6178,0.0,-2.3073,-2.2519,-2.1901,-2.1433,-2.119,-2.119,-2.0522,-1.9341,-1.8549,-1.7503,-1.6328,-1.621,0.0,0.0,-1.5043,-1.4615,-1.4076,-1.3905,-1.3898,-1.3894,-1.361,-1.364,-1.3769,-1.367,-1.367,-1.3687,-1.3522,-1.3411,-1.3325,-1.3153,-1.2935,-1.2794,-1.2966,-1.2837,-1.2749,-1.3125,-1.3211,-1.3271,0.0,0.0,0.0,0.0,0.0,0.0,-1.2362,-1.1492,0.0,0.0,0.0,0.0,0.0,-0.8918,0.0,-0.9367,-0.8776,-0.8538,-0.9008,-0.8549,-0.8221,0.0,0.0,0.0,-0.8207,-0.7795,-0.7637,-0.7801,-0.754,-0.7299,-0.7112,-0.7112,-0.7112,-0.7112,-0.7171,-0.723,-0.7311,-0.7494,-0.7616,-0.7696,-0.7842,-0.7901,-0.7901,-0.7901,-0.7901,-0.7901,-0.7901,-0.7901,-0.7901,-3.3073,-3.2555,0.0,0.0,0.0,0.0,0.0,-3.1993,0.0,-3.1178,0.0,-2.974,-2.9152,-2.8143,-2.748,-2.7404,0.0,-2.6785,-2.6784,-2.6844,-2.7177,-2.7773,-2.7743,-2.7617,-2.7373,-2.6711,-2.5732,0.0,0.0,-2.2531,-2.1883,-2.1399,-2.119,-2.119,-2.119,0.0,0.0,-1.7795,-1.6703,-1.6197,-1.5865,-1.5497,-1.5103,-1.4744,-1.4358,-1.3973,-1.3631,-1.3511,-1.3511,-1.3511,-1.361,-1.3761,-1.3761,-1.3851,-1.387,-1.3464,-1.3281,-1.3096,-1.2687,-1.2438,-1.2398,-1.2769,-1.282,-1.2889,-1.3271,-1.3365,-1.3374,-1.3425,-1.3126,-1.2859,0.0,0.0,0.0,0.0,0.0,0.0,0.0,0.0,0.0,0.0,0.0,0.0,0.0,0.0,-0.8754,-0.9217,-0.9073,0.0,0.0,0.0,0.0,-0.8236,-0.7998,0.0,-0.7801,0.0,-0.7331,-0.7112,-0.7112,-0.7112,-0.7112,-0.723,-0.7284,-0.7284,-0.7568,-0.767,-0.7696,-0.7842,-0.7901,-0.7901,-0.7901,-0.7901,-0.7901,-0.7901,-0.7901,-0.7901,-3.2388,-3.2359,0.0,0.0,0.0,-3.2032,-3.1046,-3.0356,-3.0099,-3.0501,-2.8825,-2.7548,-2.7421,-2.6782,-2.6215,-2.584,-2.6074,0.0,0.0,0.0,0.0,-2.6755,-2.6355,-2.632,-2.6764,-2.4942,-2.407,0.0,0.0,0.0,-2.1883,-2.1399,-2.119,-2.119,-2.119,0.0,-1.862,-1.6816,0.0,-1.5857,-1.5471,-1.5103,-1.4735,-1.4341,-1.3956,-1.3605,-1.3536,-1.3511,-1.3511,-1.3511,-1.3511,-1.3541,-1.3541,-1.3571,-1.3532,-1.317,-1.3058,-1.2952,-1.2556,-1.2175,-1.1926,-1.1994,-1.1798,-1.1773,-1.2432,-1.2586,-1.268,-1.3006,-1.2597,-1.2134,-1.2022,0.0,0.0,0.0,0.0,0.0,0.0,0.0,0.0,0.0,0.0,-0.8981,0.0,0.0,0.0,0.0,0.0,0.0,0.0,0.0,0.0,0.0,-0.8247,0.0,0.0,0.0,-0.7521,-0.7112,-0.7112,-0.7112,-0.7112,-0.7112,-0.7139,-0.7144,-0.7413,-0.7542,-0.7547,-0.7788,-0.7901,-0.7901,-0.7901,-0.7901,-0.7901,-0.7901,-0.7901,-0.7901,-3.2313,0.0,0.0,0.0,0.0,0.0,0.0,-2.8811,0.0,-2.893,-2.7782,-2.6681,-2.6134,-2.5269,-2.4664,-2.4444,-2.4322,-2.4082,-2.3629,-2.3865,-2.4037,-2.4116,-2.3871,-2.3988,-2.4553,-2.3294,-2.2995,-2.381,0.0,0.0,-2.2306,0.0,0.0,-2.1158,0.0,-1.9425,0.0,0.0,0.0,-1.548,-1.5292,-1.4881,-1.4358,-1.417,-1.3853,-1.3511,-1.3511,-1.3511,-1.3511,-1.3511,-1.3391,-1.3271,-1.3451,-1.3245,-1.2894,-1.2751,-1.2543,-1.2303,-1.1918,-1.1687,-1.1567,-1.1772,-1.1678,-1.1713,-1.2261,-1.2389,-1.244,-1.2666,-1.2265,-1.1875,-1.1803,-1.1772,0.0,0.0,0.0,0.0,0.0,0.0,-0.955,0.0,0.0,0.0,0.0,0.0,0.0,0.0,0.0,0.0,0.0,0.0,0.0,0.0,0.0,0.0,0.0,0.0,0.0,-0.7112,-0.7112,-0.7112,-0.7112,-0.7112,-0.7112,-0.7112,-0.7306,-0.7392,-0.7413,-0.7681,-0.7842,-0.7901,-0.7901,-0.7901,-0.7901,-0.7901,-0.7901,-0.7901,-3.1891,-3.1562,0.0,0.0,-3.037,0.0,-2.8521,-2.7293,-2.6668,-2.7246,-2.6542,-2.562,-2.4785,-2.3781,-2.3111,-2.3016,-2.2677,-2.2237,-2.1796,-2.1765,-2.1791,-2.1904,-2.1894,-2.2157,-2.2707,-2.218,-2.2284,0.0,0.0,0.0,0.0,0.0,0.0,0.0,0.0,0.0,0.0,0.0,-1.593,-1.5172,-1.5129,-1.4701,-1.4084,-1.4007,-1.3776,-1.3511,-1.3511,-1.3511,-1.3511,-1.3511,-1.3322,-1.3143,-1.3425,-1.3048,-1.25,-1.2443,-1.2132,-1.1729,-1.1404,-1.1301,-1.137,-1.1618,-1.1695,-1.1789,-1.2184,-1.2278,-1.2278,-1.2278,-1.2011,-1.1839,-1.2028,-1.2142,0.0,0.0,0.0,0.0,0.0,0.0,0.0,0.0,0.0,0.0,-0.9225,0.0,0.0,0.0,0.0,0.0,0.0,0.0,0.0,0.0,0.0,-0.8307,-0.7876,0.0,-0.751,0.0,-0.7112,-0.7112,-0.7112,-0.7112,-0.7112,-0.7112,-0.723,-0.7338,-0.7392,-0.7649,-0.7815,-0.7901,-0.7901,-0.7901,-0.7901,-0.7901,-0.7901,-0.7901,0.0,0.0,0.0,0.0,0.0,0.0,-2.6435,-2.5766,-2.5542,-2.6104,-2.4429,-2.3144,-2.3035,-2.2432,-2.1867,-2.1449,-2.1757,-2.1765,-2.1285,-2.1285,-2.1452,-2.1871,-2.1894,-2.2157,-2.2707,-2.218,-2.194,0.0,0.0,0.0,0.0,0.0,0.0,0.0,0.0,0.0,0.0,-1.6254,-1.5609,-1.518,-1.4863,-1.4478,-1.4059,-1.3699,-1.3545,-1.3511,-1.3511,-1.3511,-1.3511,-1.3511,-1.3485,-1.3468,-1.3502,-1.3237,-1.288,-1.252,-1.2132,-1.1729,-1.1404,-1.1301,-1.131,-1.1344,-1.1353,-1.1456,-1.178,-1.1866,-1.1866,-1.1866,-1.184,-1.2028,-1.2749,-1.2215,-1.1785,0.0,0.0,0.0,0.0,0.0,-0.9439,-0.9131,0.0,0.0,0.0,-0.9344,0.0,0.0,-0.9462,0.0,0.0,0.0,0.0,-0.8873,0.0,-0.8388,-0.8149,-0.7664,0.0,-0.7112,-0.7112,-0.7112,-0.7112,-0.7112,-0.7112,-0.7112,-0.723,-0.744,-0.767,-0.7815,-0.7901,-0.7901,-0.7901,-0.7901,-0.7901,-0.7901,-0.7901,-0.7901,0.0,0.0,0.0,0.0,0.0,0.0,0.0,-2.3881,-2.334,-2.3241,-2.298,-2.2547,-2.1908,-2.1186,-2.0782,-2.0848,-2.0347,-2.0059,-2.0133,-1.9898,-1.9954,-2.0392,-2.0415,-2.0649,-2.114,-2.0621,-2.05,0.0,0.0,0.0,0.0,0.0,0.0,0.0,0.0,-1.7085,-1.6634,-1.6068,-1.5574,-1.518,-1.4829,-1.4453,-1.405,-1.3656,-1.3511,-1.3511,-1.3511,-1.3511,-1.3476,-1.3262,-1.3194,-1.3194,-1.3194,-1.2783,-1.2242,-1.2079,-1.1772,-1.1464,-1.1344,-1.1301,-1.1301,-1.1301,-1.1301,-1.1336,-1.1464,-1.1499,-1.1499,-1.1499,-1.1858,-1.2269,-1.2569,-1.2369,-1.2057,0.0,0.0,0.0,0.0,0.0,0.0,-0.8896,0.0,-0.8836,0.0,-0.932,-0.9649,0.0,0.0,0.0,0.0,0.0,0.0,-0.9255,0.0,-0.8398,-0.8213,-0.7822,-0.7467,-0.7112,-0.7112,-0.7112,-0.7112,-0.7112,-0.7112,-0.7112,-0.7171,-0.7333,-0.7595,-0.7628,-0.7768,-0.7901,-0.7901,-0.7901,-0.7901,-0.7901,-0.7901,-0.7901,-2.6411,0.0,-2.46,0.0,-2.3827,-2.3239,-2.2446,-2.1687,-2.1101,-2.0839,-2.1298,-2.138,-2.073,-2.0171,-1.9892,-2.0072,-1.9287,-1.8851,-1.9011,-1.874,-1.8646,-1.8782,-1.8793,0.0,-1.9436,-1.9089,-1.9121,-1.9612,-1.9349,0.0,0.0,0.0,0.0,0.0,-1.713,-1.6626,-1.6201,-1.5788,-1.5403,-1.5026,-1.4658,-1.4273,-1.3896,-1.3613,-1.3511,-1.3511,-1.3511,-1.3511,-1.3459,-1.31,-1.3009,-1.2992,-1.2872,-1.2363,-1.1788,-1.1788,-1.1446,-1.104,-1.104,-1.0913,-1.0804,-1.0804,-1.0804,-1.0804,-1.0804,-1.0804,-1.0869,-1.1057,-1.1508,-1.1917,-1.2094,-1.2178,-1.2043,-1.1578,0.0,0.0,0.0,0.0,0.0,0.0,-0.8614,-0.8662,-0.8957,-0.9372,-0.9763,0.0,0.0,0.0,0.0,0.0,0.0,0.0,0.0,0.0,0.0,-0.7849,-0.7488,-0.7112,-0.7112,-0.7112,-0.7112,-0.7112,-0.7112,-0.7112,-0.7139,-0.7279,-0.744,-0.7521,-0.7676,-0.7842,-0.7875,-0.7901,-0.7901,-0.7901,-0.7901,-0.7901,-2.4404,-2.3256,-2.2253,-2.1903,-2.0589,-1.9555,-1.9555,-1.916,-1.8997,-1.9363,-1.9076,-1.8997,-1.9394,-1.9406,-1.9262,-1.8865,-1.8822,-1.8607,-1.8138,-1.8097,-1.7872,0.0,0.0,-1.751,-1.7912,-1.7922,-1.8112,-1.8519,0.0,0.0,-1.8512,0.0,-1.778,-1.7851,-1.6783,-1.6131,-1.578,-1.5394,-1.5018,-1.4658,-1.4264,-1.387,-1.3511,-1.3511,-1.3511,-1.3511,-1.3511,-1.3511,-1.3459,-1.31,-1.3009,-1.294,-1.2526,-1.2141,-1.1788,-1.1788,-1.1151,-1.0403,-1.0403,-1.0035,-0.9614,-0.9614,-0.9614,-0.9614,-0.9614,-0.9614,-0.9797,-1.0469,-1.0616,-1.0806,-1.1385,-1.1509,-1.1516,-1.1516,0.0,0.0,0.0,0.0,0.0,-0.874,-0.8933,-0.8987,-0.8734,-0.9432,0.0,0.0,0.0,0.0,0.0,0.0,0.0,-0.8911,-0.8635,0.0,-0.8213,-0.7658,-0.7304,-0.7112,-0.7112,-0.7112,-0.7112,-0.7112,-0.7112,-0.7112,-0.723,-0.729,-0.7317,-0.7595,-0.7696,-0.7723,-0.7842,-0.7901,-0.7901,-0.7901,-0.7901,-0.7901,-2.1713,-2.0718,-1.9885,-1.978,-1.9351,-1.8916,-1.8577,-1.8183,-1.7833,-1.7645,-1.7324,-1.7028,-1.6847,-1.7348,-1.7634,0.0,-1.6638,-1.6218,0.0,-1.6097,-1.5998,-1.6138,-1.6129,-1.6354,-1.6801,-1.6459,-1.6449,-1.6805,0.0,0.0,0.0,-1.6501,-1.6422,-1.644,-1.5826,-1.5506,-1.5377,-1.5009,-1.4786,-1.4649,-1.4256,-1.4024,-1.3879,-1.3613,-1.3511,-1.3476,-1.3237,-1.2898,-1.2458,-1.1832,-1.1379,-1.1005,-1.0616,-1.0833,-1.119,-1.0928,-1.0379,-0.9847,-0.9847,-0.9718,-0.9588,-0.9588,-0.9588,-0.9588,-0.9588,-0.9588,-0.9705,-1.01,-1.0398,-1.0711,-1.1098,-1.0953,-1.0818,-1.0818,-1.0263,0.0,0.0,0.0,0.0,0.0,-0.8734,-0.8674,0.0,-0.9378,0.0,0.0,0.0,0.0,0.0,0.0,0.0,0.0,-0.8854,0.0,-0.8213,-0.7844,-0.7488,-0.7112,-0.7112,-0.7112,-0.7112,-0.7112,-0.7112,-0.7112,-0.7139,-0.723,-0.7311,-0.7494,-0.7622,-0.7723,-0.7842,-0.7901,-0.7901,-0.7901,-0.7901,-0.7901,-1.9624,-1.8772,-1.8036,-1.7885,-1.7557,-1.7251,-1.692,-1.6688,-1.6474,-1.6364,-1.5999,-1.565,-1.5361,-1.5667,0.0,-1.608,-1.5365,-1.4946,-1.5058,-1.4805,-1.4678,-1.4815,-1.4806,-1.5019,-1.5464,0.0,0.0,-1.5519,-1.5177,-1.5137,-1.5386,-1.5386,-1.5386,-1.5369,-1.512,-1.5018,-1.4992,-1.4624,-1.4461,-1.4427,-1.4033,-1.3817,-1.3675,-1.34,-1.3117,-1.2824,-1.2612,-1.2174,-1.1557,-1.089,-1.0424,-1.0058,-0.9664,-0.9779,-1.0109,-1.0096,-0.9718,-0.9302,-0.9302,-0.9145,-0.8968,-0.8968,-0.8968,-0.8968,-0.8968,-0.8968,-0.905,-0.9295,-0.965,-0.9957,-1.025,-1.0192,-1.011,-1.011,-0.9766,-0.9444,-0.9239,0.0,0.0,0.0,0.0,0.0,0.0,-0.9414,-0.9654,0.0,0.0,0.0,0.0,0.0,0.0,-0.901,-0.8228,0.0,-0.7644,-0.726,-0.7092,-0.7112,-0.7112,-0.7112,-0.7112,-0.7112,-0.7112,-0.7112,-0.7112,-0.7144,-0.7225,-0.7413,-0.7547,-0.7649,-0.7815,-0.7901,-0.7901,-0.7901,-0.7901,-0.7901,-1.8011,-1.7293,0.0,0.0,-1.5476,0.0,-1.4863,-1.4863,-1.5004,-1.539,-1.5068,-1.4796,-1.4789,-1.4426,-1.4339,-1.4775,0.0,0.0,0.0,-1.416,-1.3971,-1.3511,-1.3511,-1.3682,-1.405,-1.4059,-1.4247,-1.4649,-1.4699,-1.4684,-1.4684,-1.4684,-1.4684,-1.4684,-1.4658,-1.4608,-1.4582,-1.4158,-1.3996,-1.3962,-1.3565,-1.3208,-1.292,-1.292,-1.2436,-1.1734,-1.1681,-1.1298,-1.0723,-1.0149,-0.9904,-0.9758,-0.9394,-0.8916,-0.8653,-0.9354,-0.9171,-0.8751,-0.8751,-0.8342,-0.7901,-0.7901,-0.7901,-0.7901,-0.7901,-0.7901,-0.7973,-0.8237,-0.8512,-0.8764,-0.9047,-0.9312,-0.9492,-0.951,-0.9498,-0.9312,-0.8806,0.0,0.0,0.0,0.0,0.0,0.0,-0.9516,-0.9522,0.0,0.0,0.0,0.0,0.0,-0.8509,-0.7684,-0.7031,-0.6685,-0.6648,-0.6139,-0.6272,-0.7025,-0.7085,-0.7112,-0.7112,-0.7112,-0.7112,-0.7112,-0.7112,-0.7112,-0.7112,-0.7381,-0.7494,-0.7521,-0.7794,-0.7901,-0.7901,-0.7901,-0.7901,-0.7901,0.0,0.0,-1.533,-1.5242,-1.5047,-1.4775,-1.4419,-1.4369,-1.4276,-1.4025,-1.3895,-1.3847,-1.3844,-1.3744,-1.3722,-1.3812,-1.3833,-1.3782,-1.3662,-1.3662,-1.3631,-1.3511,-1.3511,-1.3554,-1.3648,-1.3648,-1.3845,-1.423,-1.4538,-1.4684,-1.4684,-1.4684,-1.4684,-1.4675,-1.4109,-1.387,-1.3813,-1.3166,-1.2888,-1.288,-1.2791,-1.2466,-1.2089,-1.2089,-1.171,-1.1141,-1.0664,-1.0165,-0.9599,-0.9,-0.8487,-0.8075,-0.7988,-0.7863,-0.791,-0.8751,-0.8573,-0.8109,-0.8109,-0.8002,-0.7901,-0.7901,-0.7901,-0.7901,-0.7901,-0.7901,-0.7973,-0.8237,-0.8339,-0.8554,-0.9011,-0.9149,-0.9269,-0.948,-0.9336,-0.9149,-0.9023,-0.8836,0.0,0.0,-0.9005,-0.9137,-0.9486,-0.9516,-0.9594,0.0,0.0,0.0,0.0,-0.863,-0.7779,-0.7097,-0.6835,-0.6493,-0.6083,-0.5958,-0.6068,-0.6426,-0.6891,-0.7112,-0.7112,-0.7112,-0.7112,-0.7112,-0.7112,-0.7112,-0.7112,-0.7279,-0.7419,-0.7521,-0.7676,-0.7815,-0.7901,-0.7901,-0.7901,-0.7901,-1.4401,-1.4363,-1.4404,-1.454,-1.441,-1.4172,-1.3911,-1.3881,-1.3731,-1.3307,-1.3277,-1.3216,-1.3056,-1.3025,-1.3025,-1.3025,-1.3329,-1.3511,-1.3511,-1.3511,-1.3511,-1.3511,-1.3511,-1.3511,-1.3511,-1.3511,-1.3613,-1.3827,-1.4042,-1.4058,-1.3931,-1.3931,-1.3835,-1.3668,-1.3059,-1.2774,-1.2727,-1.2072,-1.181,-1.181,-1.181,-1.1555,-1.1205,-1.1205,-1.0715,-1.0009,-0.9667,-0.9132,-0.8516,-0.8088,-0.7699,-0.7419,-0.7419,-0.7419,-0.7521,-0.8043,-0.8017,-0.7815,-0.7815,-0.7842,-0.7901,-0.7901,-0.7901,-0.7901,-0.7901,-0.7901,-0.7937,-0.8081,-0.8207,-0.8375,-0.8686,-0.8836,-0.8969,-0.9119,-0.9017,-0.8921,-0.8921,-0.88,0.0,-0.9065,-0.9095,-0.9203,-0.9492,-0.9516,-0.9576,-0.9715,0.0,0.0,-0.8788,-0.765,-0.7001,-0.6896,-0.6132,-0.5614,-0.5385,-0.5822,-0.6093,-0.6209,-0.681,-0.7112,-0.7112,-0.7112,-0.7112,-0.7112,-0.7112,-0.7112,-0.7112,-0.7306,-0.7392,-0.7446,-0.7681,-0.7783,-0.7815,-0.7875,-0.7901,-0.7901,-1.3951,-1.3745,-1.3577,-1.3838,-1.3527,-1.3267,-1.3296,-1.3305,-1.321,-1.2972,-1.292,-1.2797,-1.2421,-1.2382,-1.2351,-1.229,-1.2803,-1.3199,-1.3329,-1.3359,-1.3359,-1.3359,-1.329,-1.329,-1.3359,-1.329,-1.323,-1.323,-1.3141,-1.2943,-1.2647,-1.2647,-1.2503,-1.2219,-1.1788,-1.1609,-1.1578,-1.1048,-1.086,-1.086,-1.086,-1.0613,-1.0266,-1.0266,-0.9631,-0.8736,-0.8701,-0.8233,-0.761,-0.7436,-0.7318,-0.7257,-0.7257,-0.7257,-0.7284,-0.7413,-0.7542,-0.7649,-0.767,-0.7762,-0.7848,-0.7848,-0.7848,-0.7875,-0.7875,-0.7875,-0.7901,-0.7901,-0.8075,-0.8243,-0.8285,-0.8499,-0.8674,-0.8752,-0.8734,-0.871,-0.871,0.0,-0.8836,-0.9017,-0.9107,-0.9257,-0.9492,-0.9516,-0.9466,-0.9322,-0.8794,-0.8126,0.0,-0.6517,-0.6225,-0.6679,-0.531,-0.464,-0.478,-0.5639,-0.61,-0.6209,-0.681,-0.7112,-0.7112,-0.7112,-0.7112,-0.7112,-0.7112,-0.7112,-0.7112,-0.7354,-0.7386,-0.7365,-0.7714,-0.7788,-0.7756,-0.7869,-0.7901,-0.7901,-1.2191,-1.2425,-1.2556,-1.2363,-1.2287,-1.2245,-1.2303,-1.2322,-1.2397,-1.2543,-1.2582,-1.2413,-1.1958,-1.1896,-1.1741,-1.1267,-1.1329,-1.1741,-1.2605,-1.2666,-1.2666,-1.2666,-1.2274,-1.2243,-1.2666,-1.2274,-1.205,-1.205,-1.1435,-1.1098,-1.1068,-1.1068,-1.1038,-1.0962,-1.0781,-1.0703,-1.0672,-1.03,-1.0174,-1.0174,-1.0174,-0.9756,-0.9161,-0.9161,-0.8665,-0.7947,-0.7721,-0.7544,-0.7419,-0.7214,-0.7144,-0.7139,-0.7139,-0.7139,-0.7139,-0.7166,-0.7252,-0.7392,-0.7494,-0.7542,-0.7574,-0.7574,-0.7649,-0.7723,-0.7723,-0.7815,-0.7901,-0.7901,-0.7931,-0.8027,-0.8249,-0.8321,-0.8524,-0.8963,-0.8848,-0.871,-0.871,0.0,-0.8969,-0.8788,-0.9173,-0.9468,-0.9478,-0.9516,-0.9223,-0.8547,-0.8406,-0.7974,-0.7109,-0.6245,-0.5731,-0.5708,-0.4895,-0.451,-0.4633,-0.5158,-0.5687,-0.6209,-0.681,-0.7112,-0.7112,-0.7112,-0.7112,-0.7112,-0.7112,-0.7112,-0.7112,-0.7139,-0.7279,-0.7467,-0.7547,-0.7681,-0.7875,-0.7901,-0.7901,-0.7901,-1.1331,-1.1504,-1.1685,-1.178,-1.1784,-1.185,-1.2068,-1.2094,-1.1994,-1.1684,-1.1647,-1.133,-1.0525,-1.0444,-1.0354,-1.0114,-1.0084,-1.0271,-1.0758,-1.1341,-1.1686,-1.1686,-1.1492,-1.1454,-1.1686,-1.1363,-1.1207,-1.1207,-1.0731,-1.0383,-1.0214,-1.0214,-1.0125,-0.9926,-0.9603,-0.953,-0.9612,-0.9213,-0.9019,-0.9019,-0.9019,-0.875,-0.8295,-0.8295,-0.7995,-0.7573,-0.7431,-0.7337,-0.7235,-0.7122,-0.7112,-0.7112,-0.7112,-0.7112,-0.7112,-0.7112,-0.7198,-0.7344,-0.7467,-0.7494,-0.7494,-0.7494,-0.7542,-0.7595,-0.7595,-0.7649,-0.7681,-0.7681,-0.7735,-0.7818,-0.7942,-0.8048,-0.8159,-0.8399,-0.8481,0.0,0.0,-0.8933,-0.9107,-0.9137,-0.9366,-0.9516,-0.9516,-0.9099,-0.8709,-0.8337,-0.7527,-0.6897,-0.6473,-0.5532,-0.4927,-0.4792,-0.4315,-0.4225,-0.454,-0.4772,-0.5308,-0.6209,-0.648,-0.6783,-0.7112,-0.7112,-0.7112,-0.7112,-0.7112,-0.7112,-0.7112,-0.7171,-0.7279,-0.7419,-0.7542,-0.7676,-0.7809,-0.7875,-0.7901,-0.7901,-1.0682,-1.065,-1.0655,-1.0898,-1.0945,-1.104,-1.1293,-1.1347,-1.1136,-1.0605,-1.0523,-1.0166,-0.9249,-0.9143,-0.9084,-0.8968,-0.8944,-0.8944,-0.8944,-0.9771,-1.0403,-1.0695,-1.0725,-1.0707,-1.0515,-1.036,-1.0271,-1.0196,-0.9824,-0.9482,-0.9243,-0.9243,-0.9106,-0.8852,-0.8557,-0.8491,-0.8621,-0.8254,-0.8095,-0.8095,-0.8095,-0.7955,-0.772,-0.772,-0.754,-0.7337,-0.7337,-0.7219,-0.7112,-0.7112,-0.7112,-0.7112,-0.7112,-0.7112,-0.7112,-0.7112,-0.7171,-0.7284,-0.7386,-0.7408,-0.7408,-0.7408,-0.744,-0.7467,-0.7467,-0.7467,-0.7494,-0.7494,-0.7568,-0.7643,-0.7643,-0.7729,-0.7839,-0.7898,0.0,0.0,0.0,-0.8926,-0.9196,-0.9286,-0.9273,-0.9256,-0.9171,-0.8478,-0.7969,-0.7762,-0.6608,-0.5791,-0.5606,-0.474,-0.4192,-0.407,-0.386,-0.3983,-0.4491,-0.4491,-0.5066,-0.6209,-0.6209,-0.6507,-0.7112,-0.7112,-0.7112,-0.7112,-0.7112,-0.7112,-0.7112,-0.7198,-0.7284,-0.7365,-0.7568,-0.7696,-0.7756,-0.7869,-0.7901,-0.7901,-0.9877,-0.9584,-0.9278,-0.9042,-0.8996,-0.9025,-0.9051,-0.9041,-0.9138,-0.9376,-0.9408,-0.9227,-0.8704,-0.8639,-0.8469,-0.7949,-0.7914,-0.7914,-0.7914,-0.7976,-0.8573,-0.9755,-0.9975,-0.9744,-0.9075,-0.9052,-0.895,-0.8751,-0.7983,-0.7614,-0.7591,-0.7591,-0.7558,-0.754,-0.7762,-0.7865,-0.7882,-0.7852,-0.7828,-0.7828,-0.7828,-0.7658,-0.7421,-0.7421,-0.7299,-0.7112,-0.7112,-0.7122,-0.7112,-0.7112,-0.7112,-0.7112,-0.7112,-0.7112,-0.7112,-0.7112,-0.7112,-0.7112,-0.7139,-0.7139,-0.7139,-0.7139,-0.7225,-0.7311,-0.7311,-0.7413,-0.7494,-0.7494,-0.7521,-0.7515,-0.7515,-0.7521,-0.7622,-0.7851,0.0,0.0,-0.851,-0.8964,-0.9168,-0.8795,-0.8663,-0.8468,-0.8219,-0.7648,-0.6966,-0.6237,-0.5784,-0.5184,-0.4371,-0.4023,-0.3794,-0.3652,-0.3624,-0.3897,-0.4491,-0.4491,-0.5066,-0.6209,-0.6209,-0.6507,-0.7112,-0.7112,-0.7112,-0.7112,-0.7112,-0.7112,-0.7112,-0.7112,-0.7273,-0.7494,-0.7521,-0.7655,-0.7875,-0.7901,-0.7901,-0.7901,-0.8942,-0.8804,-0.8672,-0.8573,-0.8547,-0.8618,-0.8765,-0.8809,-0.8764,-0.8644,-0.8628,-0.8369,-0.7728,-0.7655,-0.7577,-0.7382,-0.7354,-0.7354,-0.7354,-0.7354,-0.7726,-0.8478,-0.8588,-0.8503,-0.8237,-0.8056,-0.7934,-0.7862,-0.7421,-0.7225,-0.7225,-0.7225,-0.7225,-0.723,-0.7316,-0.744,-0.7557,-0.7557,-0.7557,-0.7557,-0.7557,-0.7412,-0.7225,-0.7225,-0.7165,-0.7112,-0.7112,-0.7112,-0.7112,-0.7112,-0.7112,-0.7112,-0.7112,-0.7112,-0.7112,-0.7112,-0.7112,-0.7112,-0.7112,-0.7112,-0.7112,-0.7112,-0.7139,-0.7171,-0.7171,-0.7225,-0.7246,-0.7246,-0.7306,-0.7365,-0.7365,-0.744,-0.7522,-0.7646,0.0,-0.8069,-0.812,-0.845,-0.8661,-0.8593,-0.8122,-0.7858,-0.7955,-0.6858,-0.6015,-0.5709,-0.5062,-0.4524,-0.411,-0.391,-0.3744,-0.3613,-0.3613,-0.3722,-0.3941,-0.4325,-0.4873,-0.5632,-0.6018,-0.6507,-0.7112,-0.7112,-0.7112,-0.7112,-0.7112,-0.7112,-0.7112,-0.7112,-0.7246,-0.7494,-0.7494,-0.7655,-0.7901,-0.7901,-0.7901,-0.7901,-0.8182,-0.8117,-0.8097,-0.8097,-0.8163,-0.8254,-0.8351,-0.8369,-0.8249,-0.7888,-0.7855,-0.7648,-0.7155,-0.7149,-0.7171,-0.7117,-0.7155,-0.7165,-0.7117,-0.7112,-0.7268,-0.7672,-0.7763,-0.7763,-0.7664,-0.7503,-0.7357,-0.731,-0.7165,-0.7112,-0.7112,-0.7112,-0.7112,-0.7112,-0.7112,-0.7176,-0.731,-0.731,-0.731,-0.731,-0.731,-0.7235,-0.7112,-0.7112,-0.7112,-0.7112,-0.7112,-0.7112,-0.7112,-0.7112,-0.7112,-0.7112,-0.7112,-0.7112,-0.7112,-0.7112,-0.7112,-0.7112,-0.7112,-0.7112,-0.7112,-0.7112,-0.7112,-0.7112,-0.7112,-0.7112,-0.7112,-0.7112,-0.7171,-0.723,-0.723,-0.7306,-0.7381,-0.7381,-0.7588,-0.7751,-0.7835,-0.79,-0.7964,-0.8009,-0.7318,-0.6854,-0.6998,-0.5847,-0.5089,-0.5089,-0.4464,-0.4024,-0.3885,-0.3799,-0.3691,-0.3613,-0.3613,-0.3613,-0.3613,-0.4024,-0.457,-0.5308,-0.5719,-0.6344,-0.7112,-0.7112,-0.7112,-0.7112,-0.7112,-0.7112,-0.7112,-0.7112,-0.7246,-0.7494,-0.7494,-0.7655,-0.7901,-0.7901,-0.7901,-0.7901,-0.7696,-0.7527,-0.7394,-0.7394,-0.7616,-0.772,-0.7431,-0.7394,-0.7337,-0.7117,-0.7112,-0.7112,-0.7112,-0.7278,-0.7326,-0.7112,-0.7283,-0.7321,-0.7106,-0.7117,-0.7198,-0.7389,-0.7642,-0.7658,-0.7399,-0.7394,-0.7299,-0.7112,-0.7112,-0.7112,-0.7112,-0.7112,-0.7112,-0.7112,-0.7112,-0.7112,-0.7112,-0.7112,-0.7112,-0.7112,-0.7085,-0.7085,-0.7112,-0.7085,-0.7085,-0.7112,-0.7085,-0.7085,-0.7112,-0.7085,-0.7085,-0.7085,-0.7085,-0.7085,-0.7085,-0.7085,-0.7085,-0.7112,-0.7085,-0.7085,-0.7085,-0.7112,-0.7112,-0.7112,-0.7112,-0.7112,-0.7112,-0.7112,-0.7112,-0.7112,-0.7112,-0.7112,-0.7112,-0.7085,-0.7262,-0.7445,-0.7643,-0.7406,-0.713,-0.6996,-0.6108,-0.5381,-0.5133,-0.4542,-0.4196,-0.4196,-0.3956,-0.3744,-0.3613,-0.3613,-0.3613,-0.3613,-0.3613,-0.3613,-0.3613,-0.3613,-0.4187,-0.5304,-0.5304,-0.5937,-0.7085,-0.7085,-0.7085,-0.7112,-0.7112,-0.7112,-0.7112,-0.7112,-0.7246,-0.7494,-0.7494,-0.7655,-0.7901,-0.7901,-0.7901,-0.7901,-0.7268,-0.7225,-0.7219,-0.7362,-0.7453,-0.7503,-0.7405,-0.7394,-0.7337,-0.7117,-0.7112,-0.7112,-0.7112,-0.7278,-0.7367,-0.7321,-0.7351,-0.7362,-0.7321,-0.7494,-0.7618,-0.7693,-0.744,-0.7343,-0.7394,-0.7256,-0.7155,-0.7112,-0.7112,-0.7112,-0.7112,-0.7112,-0.7112,-0.7112,-0.7112,-0.7112,-0.7112,-0.7112,-0.7112,-0.7058,-0.6642,-0.6729,-0.7058,-0.6615,-0.6729,-0.7058,-0.662,-0.6729,-0.6977,-0.6127,-0.6127,-0.6399,-0.5964,-0.6127,-0.6372,-0.5959,-0.6426,-0.6918,-0.6073,-0.6154,-0.6566,-0.6999,-0.7112,-0.7112,-0.7112,-0.7112,-0.7112,-0.7112,-0.7112,-0.7112,-0.7112,-0.7112,-0.6972,-0.6539,-0.6512,-0.6441,-0.6082,-0.5933,-0.589,-0.5935,-0.5261,-0.483,-0.4951,-0.4332,-0.3913,-0.3913,-0.3766,-0.3638,-0.3613,-0.3613,-0.3613,-0.3613,-0.3613,-0.3613,-0.3613,-0.4024,-0.4408,-0.4736,-0.5117,-0.5714,-0.648,-0.648,-0.6701,-0.7112,-0.7112,-0.7112,-0.7112,-0.7112,-0.7198,-0.7365,-0.7467,-0.7595,-0.7783,-0.7869,-0.7901,-0.7901,-0.7209,-0.7305,-0.7445,-0.7682,-0.7776,-0.7809,-0.7742,-0.7725,-0.7607,-0.7273,-0.7311,-0.7332,-0.7241,-0.7526,-0.7658,-0.7567,-0.7557,-0.7557,-0.7557,-0.772,-0.7838,-0.7966,-0.7305,-0.7077,-0.7394,-0.7278,-0.7182,-0.7112,-0.7112,-0.7112,-0.7085,-0.6864,-0.6756,-0.6729,-0.6507,-0.6399,-0.6399,-0.6399,-0.6399,-0.6344,-0.5991,-0.6073,-0.6344,-0.5991,-0.6073,-0.6344,-0.5964,-0.6073,-0.629,-0.5555,-0.5555,-0.5769,-0.5414,-0.555,-0.5773,-0.5418,-0.5828,-0.6236,-0.55,-0.5578,-0.5937,-0.629,-0.6399,-0.6399,-0.6399,-0.6399,-0.6399,-0.6399,-0.6399,-0.6399,-0.6399,-0.6399,-0.6263,-0.5909,-0.5855,-0.5719,-0.5359,-0.5117,-0.5007,-0.5081,-0.4543,-0.4215,-0.438,-0.3993,-0.3716,-0.3716,-0.3638,-0.3613,-0.3613,-0.3613,-0.3613,-0.3613,-0.3613,-0.3613,-0.3613,-0.3968,-0.427,-0.4519,-0.5034,-0.55,-0.5855,-0.6344,-0.662,-0.6756,-0.6999,-0.7112,-0.7112,-0.7112,-0.7219,-0.7392,-0.7467,-0.7628,-0.7783,-0.7875,-0.7901,-0.7901,-0.7374,-0.7578,-0.7822,-0.8158,-0.8318,-0.8382,-0.8209,-0.8207,-0.802,-0.7514,-0.7637,-0.7709,-0.7421,-0.7871,-0.8084,-0.7822,-0.7838,-0.7855,-0.7833,-0.7789,-0.7896,-0.8136,-0.7197,-0.6849,-0.7258,-0.726,-0.7163,-0.6949,-0.697,-0.697,-0.6949,-0.6401,-0.6141,-0.61,-0.5555,-0.5304,-0.5304,-0.5304,-0.5304,-0.5304,-0.525,-0.5254,-0.5304,-0.525,-0.5254,-0.5304,-0.525,-0.5254,-0.5304,-0.525,-0.5199,-0.5144,-0.5144,-0.5199,-0.5226,-0.5171,-0.5226,-0.5281,-0.5171,-0.5199,-0.5226,-0.5171,-0.5144,-0.5171,-0.5281,-0.5304,-0.5304,-0.5304,-0.5304,-0.5304,-0.5304,-0.5304,-0.5277,-0.5226,-0.5226,-0.5199,-0.5167,-0.4736,-0.4408,-0.4408,-0.3944,-0.3613,-0.3613,-0.3613,-0.3613,-0.3613,-0.3613,-0.3613,-0.3613,-0.3613,-0.3613,-0.3613,-0.3613,-0.3613,-0.3613,-0.3613,-0.3888,-0.4436,-0.4924,-0.5195,-0.5332,-0.6426,-0.6701,-0.6317,-0.6864,-0.7112,-0.7112,-0.7112,-0.7246,-0.7467,-0.7494,-0.7655,-0.7875,-0.7901,-0.7901,-0.7901,-0.7346,-0.731,-0.7458,-0.8104,-0.8074,-0.8,-0.8191,-0.8207,-0.8079,-0.7763,-0.7768,-0.7709,-0.7421,-0.7871,-0.8084,-0.7822,-0.8145,-0.828,-0.8117,-0.7771,-0.7599,-0.7648,-0.6888,-0.6423,-0.6304,-0.6151,-0.5986,-0.586,-0.5943,-0.5939,-0.5831,-0.5718,-0.5582,-0.5496,-0.5363,-0.5304,-0.5304,-0.5304,-0.5304,-0.5254,-0.4842,-0.4924,-0.525,-0.4846,-0.4924,-0.525,-0.4818,-0.4952,-0.5226,-0.4818,-0.4353,-0.3968,-0.3968,-0.4298,-0.457,-0.4104,-0.4598,-0.5117,-0.4215,-0.4325,-0.457,-0.4079,-0.3968,-0.4215,-0.5089,-0.5304,-0.5304,-0.5304,-0.5304,-0.5304,-0.5304,-0.5304,-0.5171,-0.4736,-0.468,-0.4515,-0.4024,-0.3858,-0.3805,-0.3805,-0.3666,-0.3613,-0.3613,-0.3613,-0.3613,-0.3613,-0.3613,-0.3613,-0.3613,-0.3613,-0.3613,-0.3613,-0.3613,-0.3613,-0.3613,-0.3613,-0.3669,-0.3805,-0.3913,-0.4432,-0.5308,-0.5578,-0.6127,-0.6918,-0.7058,-0.7112,-0.7112,-0.7112,-0.7139,-0.7219,-0.7413,-0.7547,-0.7601,-0.7821,-0.7901,-0.7901,-0.6912,-0.6744,-0.6668,-0.7157,-0.7192,-0.7163,-0.7335,-0.735,-0.7242,-0.6977,-0.7069,-0.7019,-0.6752,-0.7102,-0.7275,-0.7135,-0.7361,-0.7441,-0.7359,-0.7099,-0.6961,-0.6961,-0.6264,-0.5795,-0.5607,-0.5248,-0.5223,-0.5608,-0.5587,-0.5576,-0.5489,-0.5178,-0.4983,-0.4897,-0.4625,-0.4487,-0.4487,-0.4487,-0.4487,-0.446,-0.4187,-0.4242,-0.446,-0.4187,-0.4242,-0.446,-0.4159,-0.4242,-0.4432,-0.4159,-0.3858,-0.3613,-0.3613,-0.3805,-0.3996,-0.3694,-0.4024,-0.4349,-0.3749,-0.3833,-0.3996,-0.3666,-0.3613,-0.3749,-0.4349,-0.4487,-0.4487,-0.4487,-0.4487,-0.4487,-0.4487,-0.4487,-0.4405,-0.4104,-0.4079,-0.3968,-0.3638,-0.3613,-0.3613,-0.3613,-0.3613,-0.3613,-0.3613,-0.3613,-0.3613,-0.3613,-0.3613,-0.3635,-0.369,-0.3693,-0.3693,-0.3693,-0.3693,-0.3693,-0.3693,-0.3638,-0.364,-0.3751,-0.3981,-0.4226,-0.4519,-0.5425,-0.5972,-0.6263,-0.6837,-0.7112,-0.7112,-0.7112,-0.7166,-0.73,-0.7434,-0.7574,-0.7708,-0.7848,-0.7901,-0.7901,-0.6325,-0.6146,-0.5933,-0.6199,-0.6274,-0.6363,-0.6392,-0.64,-0.6314,-0.6105,-0.6278,-0.6298,-0.603,-0.6201,-0.6367,-0.6396,-0.64,-0.64,-0.64,-0.6264,-0.6199,-0.6199,-0.5507,-0.5094,-0.5047,-0.4542,-0.4673,-0.5422,-0.5352,-0.5273,-0.5213,-0.4652,-0.4371,-0.4325,-0.3833,-0.3613,-0.3613,-0.3613,-0.3613,-0.3613,-0.3613,-0.3613,-0.3613,-0.3613,-0.3613,-0.3613,-0.3613,-0.3613,-0.3613,-0.3613,-0.3613,-0.3613,-0.3613,-0.3613,-0.3613,-0.3613,-0.3613,-0.3613,-0.3613,-0.3613,-0.3613,-0.3613,-0.3613,-0.3613,-0.3613,-0.3613,-0.3613,-0.3613,-0.3613,-0.3613,-0.3613,-0.3613,-0.3613,-0.3613,-0.3613,-0.3613,-0.3613,-0.3613,-0.3613,-0.3613,-0.3613,-0.3613,-0.3613,-0.3613,-0.3621,-0.3638,-0.3641,-0.3693,-0.3808,-0.3813,-0.3813,-0.3813,-0.3813,-0.3813,-0.3813,-0.3698,-0.3721,-0.3903,-0.4278,-0.4243,-0.3812,-0.5478,-0.5927,-0.5523,-0.662,-0.7112,-0.7112,-0.7112,-0.7246,-0.7467,-0.7494,-0.7655,-0.7875,-0.7901,-0.7901,-0.7901,-0.5914,-0.5848,-0.5873,-0.6302,-0.6193,-0.6129,-0.6375,-0.64,-0.6388,-0.6367,-0.6384,-0.6298,-0.603,-0.6034,-0.6137,-0.6384,-0.64,-0.64,-0.64,-0.5804,-0.5441,-0.5441,-0.4791,-0.4425,-0.4408,-0.4359,-0.4298,-0.4313,-0.4408,-0.4342,-0.4121,-0.4013,-0.3896,-0.3722,-0.3638,-0.3613,-0.3613,-0.3613,-0.3613,-0.3613,-0.3613,-0.3613,-0.3613,-0.3613,-0.3613,-0.3613,-0.3613,-0.3613,-0.3613,-0.3613,-0.3613,-0.3613,-0.3613,-0.3613,-0.3613,-0.3613,-0.3613,-0.3613,-0.3613,-0.3613,-0.3613,-0.3613,-0.3613,-0.3613,-0.3613,-0.3613,-0.3613,-0.3613,-0.3613,-0.3613,-0.3613,-0.3613,-0.3613,-0.3613,-0.3613,-0.3613,-0.3613,-0.3613,-0.3613,-0.3613,-0.3613,-0.3613,-0.3613,-0.3613,-0.3654,-0.3753,-0.3761,-0.3813,-0.3873,-0.3878,-0.3878,-0.3878,-0.3878,-0.3878,-0.3878,-0.3821,-0.383,-0.3903,-0.3978,-0.4145,-0.448,-0.5154,-0.5686,-0.6127,-0.681,-0.7112,-0.7112,-0.7112,-0.7198,-0.7338,-0.7467,-0.7595,-0.7756,-0.7842,-0.7901,-0.7901,-0.5189,-0.503,-0.4882,-0.5074,-0.5081,-0.5081,-0.5213,-0.5219,-0.5219,-0.5219,-0.5219,-0.5196,-0.5068,-0.5062,-0.5088,-0.5216,-0.5219,-0.5219,-0.5219,-0.4921,-0.4758,-0.4758,-0.4464,-0.43,-0.43,-0.43,-0.4273,-0.4221,-0.4205,-0.4075,-0.3903,-0.3865,-0.3743,-0.3613,-0.3613,-0.3613,-0.3613,-0.3613,-0.3613,-0.3613,-0.3613,-0.3613,-0.3613,-0.3613,-0.3613,-0.3613,-0.3613,-0.3613,-0.3613,-0.3613,-0.3613,-0.3613,-0.3613,-0.3613,-0.3613,-0.3613,-0.3613,-0.3613,-0.3613,-0.3613,-0.3613,-0.3613,-0.3613,-0.3613,-0.3613,-0.3613,-0.3613,-0.3613,-0.3613,-0.3613,-0.3613,-0.3613,-0.3613,-0.3613,-0.3613,-0.3613,-0.3613,-0.3613,-0.3613,-0.3613,-0.3613,-0.3613,-0.3613,-0.3671,-0.3728,-0.3807,-0.3846,-0.3909,-0.4,-0.4005,-0.4005,-0.4005,-0.4005,-0.4005,-0.4005,-0.3879,-0.3914,-0.4137,-0.3931,-0.396,-0.424,-0.4764,-0.5318,-0.5843,-0.637,-0.6783,-0.7112,-0.7112,-0.7225,-0.7413,-0.7467,-0.7628,-0.7815,-0.7875,-0.7901,-0.7901]},{"header":{"parameterUnit":"m.s-1","parameterCategory":1,"la1":30.6,"la2":28.766,"lo1":-90.7593,"lo2":-88.6598,"dy":0.0162,"dx":0.0183,"nx":116,"ny":114,"refTime":"2023-09-09T06:00:00:Z","depth":0,"parameterNumber":3,"parameterNumberName":"V-component_of_WINDS"},"data":[0.0,0.0,0.0,0.0,0.0,0.0,0.0,0.0,0.0,0.0,0.0,0.0,0.0,0.0,0.0,0.0,0.0,0.0,0.0,0.0,0.0,0.0,0.0,0.0,0.0,0.0,0.0,0.0,0.0,0.0,0.0,0.0,0.0,0.0,0.0,0.0,0.0,0.0,0.0,0.0,0.0,0.0,0.0,0.0,0.0,0.0,0.0,0.0,0.0,0.0,0.0,0.0,0.0,0.0,0.0,0.0,0.0,0.0,0.0,0.0,0.0,0.0,0.0,0.0,0.0,0.0,0.0,0.0,0.0,0.0,0.0,0.0,0.0,0.0,0.0,0.0,0.0,0.0,0.0,0.0,0.0,0.0,0.0,0.0,0.0,0.0,0.0,0.0,0.0,0.0,0.0,0.0,0.0,0.0,0.0,0.0,0.0,0.0,0.0,0.0,0.0,0.0,0.0,0.0,0.0,0.0,0.0,0.0,0.0,0.0,0.0,0.0,0.0,0.0,0.0,0.0,0.0,0.0,0.0,0.0,0.0,0.0,0.0,0.0,0.0,0.0,0.0,0.0,0.0,0.0,0.0,0.0,0.0,0.0,0.0,0.0,0.0,0.0,0.0,0.0,0.0,0.0,0.0,0.0,0.0,0.0,0.0,0.0,0.0,0.0,0.0,0.0,0.0,0.0,0.0,0.0,0.0,0.0,0.0,0.0,0.0,0.0,0.0,0.0,0.0,0.0,0.0,0.0,0.0,0.0,0.0,0.0,0.0,0.0,0.0,0.0,0.0,0.0,0.0,0.0,0.0,0.0,0.0,0.0,0.0,0.0,0.0,0.0,0.0,0.0,0.0,0.0,0.0,0.0,0.0,0.0,0.0,0.0,0.0,0.0,0.0,0.0,0.0,0.0,0.0,0.0,0.0,0.0,0.0,0.0,0.0,0.0,0.0,0.0,0.0,0.0,0.0,0.0,0.0,0.0,0.0,0.0,0.0,0.0,0.0,0.0,0.0,0.0,0.0,0.0,0.0,0.0,0.0,0.0,0.0,0.0,0.0,0.0,0.0,0.0,0.0,0.0,0.0,0.0,0.0,0.0,0.0,0.0,0.0,0.0,0.0,0.0,0.0,0.0,0.0,0.0,0.0,0.0,0.0,0.0,0.0,0.0,0.0,0.0,0.0,0.0,0.0,0.0,0.0,0.0,0.0,0.0,0.0,0.0,0.0,0.0,0.0,0.0,0.0,0.0,0.0,0.0,0.0,0.0,0.0,0.0,0.0,0.0,0.0,0.0,0.0,0.0,0.0,0.0,0.0,0.0,0.0,0.0,0.0,0.0,0.0,0.0,0.0,0.0,0.0,0.0,0.0,0.0,0.0,0.0,0.0,0.0,0.0,0.0,0.0,0.0,0.0,0.0,0.0,0.0,0.0,0.0,0.0,0.0,0.0,0.0,0.0,0.0,0.0,0.0,0.0,0.0,0.0,0.0,0.0,0.0,0.0,0.0,0.0,0.0,0.0,0.0,0.0,0.0,0.0,0.0,0.0,0.0,0.0,0.0,0.0,0.0,0.0,0.0,0.0,0.0,0.0,0.0,0.0,0.0,0.0,0.0,0.0,0.0,0.0,0.0,0.0,0.0,0.0,0.0,0.0,0.0,0.0,0.0,0.0,0.0,0.0,0.0,0.0,0.0,0.0,0.0,0.0,0.0,0.0,0.0,0.0,0.0,0.0,0.0,0.0,0.0,0.0,0.0,0.0,0.0,0.0,0.0,0.0,0.0,0.0,0.0,0.0,0.0,0.0,0.0,0.0,0.0,0.0,0.0,0.0,0.0,0.0,0.0,0.0,0.0,0.0,0.0,0.0,0.0,0.0,0.0,0.0,0.0,0.0,0.0,0.0,0.0,0.0,0.0,0.0,0.0,0.0,0.0,0.0,0.0,0.0,0.0,0.0,0.0,0.0,0.0,0.0,0.0,0.0,0.0,0.0,0.0,0.0,0.0,0.0,0.0,0.0,0.0,0.0,0.0,0.0,0.0,0.0,0.0,0.0,0.0,0.0,0.0,0.0,0.0,0.0,0.0,0.0,0.0,0.0,0.0,0.0,0.0,0.0,0.0,0.0,0.0,0.0,0.0,0.0,0.0,0.0,0.0,0.0,0.0,0.0,0.0,0.0,0.0,0.0,0.0,0.0,0.0,0.0,0.0,0.0,0.0,0.0,0.0,0.0,0.0,0.0,0.0,0.0,0.0,0.0,0.0,0.0,0.0,0.0,0.0,0.0,0.0,0.0,0.0,0.0,0.0,0.0,0.0,0.0,0.0,0.0,0.0,0.0,0.0,0.0,0.0,0.0,0.0,0.0,0.0,0.0,0.0,0.0,0.0,0.0,0.0,0.0,0.0,0.0,0.0,0.0,0.0,0.0,0.0,0.0,0.0,0.0,0.0,0.0,0.0,0.0,0.0,0.0,0.0,0.0,0.0,0.0,0.0,0.0,0.0,0.0,0.0,0.0,0.0,0.0,0.0,0.0,0.0,0.0,0.0,0.0,0.0,0.0,0.0,0.0,0.0,0.0,0.0,0.0,0.0,0.0,0.0,0.0,0.0,0.0,0.0,0.0,0.0,0.0,0.0,0.0,0.0,0.0,0.0,0.0,0.0,0.0,0.0,0.0,0.0,0.0,0.0,0.0,0.0,0.0,0.0,0.0,0.0,0.0,0.0,0.0,0.0,0.0,0.0,0.0,0.0,0.0,0.0,0.0,0.0,0.0,0.0,0.0,0.0,0.0,0.0,0.0,0.0,0.0,0.0,0.0,0.0,0.0,0.0,0.0,0.0,0.0,0.0,0.0,0.0,0.0,0.0,0.0,0.0,0.0,0.0,0.0,0.0,0.0,0.0,0.0,0.0,0.0,0.0,0.0,0.0,0.0,0.0,0.0,0.0,0.0,0.0,0.0,0.0,0.0,0.0,0.0,0.0,0.0,0.0,0.0,0.0,0.0,0.0,0.0,0.0,0.0,0.0,0.0,0.0,0.0,0.0,0.0,0.0,0.0,0.0,0.0,0.0,0.0,0.0,0.0,0.0,0.0,0.0,0.0,0.0,0.0,0.0,0.0,0.0,0.0,0.0,0.0,0.0,0.0,0.0,0.0,0.0,0.0,0.0,0.0,0.0,0.0,0.0,0.0,0.0,0.0,0.0,0.0,0.0,0.0,0.0,0.0,0.0,0.0,0.0,0.0,0.0,0.0,0.0,0.0,0.0,0.0,0.0,0.0,0.0,0.0,0.0,0.0,0.0,0.0,0.0,0.0,0.0,0.0,0.0,0.0,0.0,0.0,0.0,0.0,0.0,0.0,0.0,0.0,0.0,0.0,0.0,0.0,0.0,0.0,0.0,0.0,0.0,0.0,0.0,0.0,0.0,0.0,0.0,0.0,0.0,0.0,0.0,0.0,0.0,0.0,0.0,0.0,0.0,0.0,0.0,0.0,0.0,0.0,0.0,0.0,0.0,0.0,0.0,0.0,0.0,0.0,0.0,0.0,0.0,0.0,0.0,0.0,0.0,0.0,0.0,0.0,0.0,0.0,0.0,0.0,0.0,0.0,0.0,0.0,0.0,0.0,0.0,0.0,0.0,0.0,0.0,0.0,0.0,0.0,0.0,0.0,0.0,0.0,0.0,0.0,0.0,0.0,0.0,0.0,0.0,0.0,0.0,0.0,0.0,0.0,0.0,0.0,0.0,0.0,0.0,0.0,0.0,0.0,0.0,0.0,0.0,0.0,0.0,0.0,0.0,0.0,0.0,0.0,0.0,0.0,0.0,0.0,0.0,0.0,0.0,0.0,0.0,0.0,0.0,0.0,0.0,0.0,0.0,0.0,0.0,0.0,0.0,0.0,0.0,0.0,0.0,0.0,0.0,0.0,0.0,0.0,0.0,0.0,0.0,0.0,0.0,0.0,0.0,0.0,0.0,0.0,0.0,0.0,0.0,0.0,0.0,0.0,0.0,0.0,0.0,0.0,0.0,0.0,0.0,0.0,0.0,0.0,0.0,0.0,0.0,0.0,0.0,0.0,0.0,0.0,0.0,0.0,0.0,0.0,0.0,0.0,0.0,0.0,0.0,0.0,0.0,0.0,0.0,0.0,0.0,0.0,0.0,0.0,0.0,0.0,0.0,0.0,0.0,0.0,0.0,0.0,0.0,0.0,0.0,0.0,0.0,0.0,0.0,0.0,0.0,0.0,0.0,0.0,0.0,0.0,0.0,0.0,0.0,0.0,0.0,0.0,0.0,0.0,0.0,0.0,0.0,0.0,0.0,0.0,0.0,0.0,0.0,0.0,0.0,0.0,0.0,0.0,0.0,0.0,0.0,0.0,0.0,0.0,0.0,0.0,0.0,0.0,0.0,0.0,0.0,0.0,0.0,0.0,0.0,0.0,0.0,0.0,0.0,0.0,0.0,0.0,0.0,0.0,0.0,0.0,0.0,0.0,0.0,0.0,0.0,0.0,0.0,0.0,0.0,0.0,0.0,0.0,0.0,0.0,0.0,0.0,0.0,0.0,0.0,0.0,0.0,0.0,0.0,0.0,0.0,0.0,0.0,0.0,0.0,0.0,0.0,0.0,0.0,0.0,0.0,0.0,0.0,0.0,0.0,0.0,0.0,0.0,0.0,0.0,0.0,0.0,0.0,0.0,0.0,0.0,0.0,0.0,0.0,0.0,0.0,0.0,0.0,0.0,0.0,0.0,0.0,0.0,0.0,0.0,0.0,0.0,0.0,0.0,0.0,0.0,0.0,0.0,0.0,0.0,0.0,0.0,0.0,0.0,0.0,0.0,0.0,0.0,0.0,0.0,0.0,0.0,0.0,0.0,0.0,0.0,0.0,0.0,0.0,0.0,0.0,0.0,0.0,0.0,0.0,0.0,0.0,0.0,0.0,0.0,0.0,0.0,0.0,0.0,0.0,0.0,0.0,0.0,0.0,0.0,0.0,0.0,0.0,0.0,0.0,0.0,0.0,0.0,0.0,0.0,0.0,0.0,0.0,0.0,0.0,0.0,0.0,0.0,0.0,0.0,0.0,0.0,0.0,0.0,0.0,0.0,0.0,0.0,0.0,0.0,0.0,0.0,0.0,0.0,0.0,0.0,0.0,0.0,0.0,0.0,0.0,0.0,0.0,0.0,0.0,0.0,0.0,0.0,0.0,0.0,0.0,0.0,0.0,0.0,0.0,0.0,0.0,0.0,0.0,0.0,0.0,0.0,0.0,0.0,0.0,0.0,0.0,0.0,0.0,0.0,0.0,0.0,0.0,0.0,0.0,0.0,0.0,0.0,0.0,0.0,0.0,0.0,0.0,0.0,0.0,0.0,0.0,0.0,0.0,0.0,0.0,0.0,0.0,0.0,0.0,0.0,0.0,0.0,0.0,0.0,0.0,0.0,0.0,0.0,0.0,0.0,0.0,0.0,0.0,0.0,0.0,0.0,0.0,0.0,0.0,0.0,0.0,0.0,0.0,0.0,0.0,0.0,0.0,0.0,0.0,0.0,0.0,0.0,0.0,0.0,0.0,0.0,0.0,0.0,0.0,0.0,0.0,0.0,0.0,0.0,0.0,0.0,0.0,0.0,0.0,0.0,0.0,0.0,0.0,0.0,0.0,0.0,0.0,0.0,0.0,0.0,0.0,0.0,0.0,0.0,0.0,0.0,0.0,0.0,0.0,0.0,0.0,0.0,0.0,0.0,0.0,0.0,0.0,0.0,0.0,0.0,0.0,0.0,0.0,0.0,0.0,0.0,0.0,0.0,0.0,0.0,0.0,0.0,0.0,0.0,0.0,0.0,0.0,0.0,0.0,0.0,0.0,0.0,0.0,0.0,0.0,0.0,0.0,0.0,0.0,0.0,0.0,0.0,0.0,0.0,0.0,0.0,0.0,0.0,0.0,0.0,0.0,0.0,0.0,0.0,0.0,0.0,0.0,0.0,0.0,0.0,0.0,0.0,0.0,0.0,0.0,0.0,0.0,0.0,0.0,0.0,0.0,0.0,0.0,0.0,0.0,0.0,0.0,0.0,0.0,0.0,0.0,0.0,0.0,0.0,0.0,0.0,0.0,0.0,0.0,0.0,0.0,1.0735,0.0,0.0,0.0,0.0,0.0,0.0,0.0,0.0,0.0,0.0,0.0,0.0,0.0,0.0,0.0,0.0,0.0,0.0,0.0,0.0,0.0,0.0,0.0,0.0,0.0,0.0,0.0,0.0,0.0,0.0,0.0,0.0,0.0,0.0,0.0,0.0,0.0,0.0,0.0,1.577,1.5177,1.4394,1.328,1.1914,1.0338,0.0,0.0,0.0,0.0,0.0,0.0,0.0,0.0,0.0,0.0,0.0,0.0,0.0,0.0,0.0,0.0,0.0,0.0,0.0,0.0,0.0,0.0,0.0,0.0,0.0,0.0,0.0,0.0,0.0,0.0,0.0,0.0,0.0,0.0,0.0,0.0,0.0,0.0,0.0,0.0,0.0,0.0,0.0,0.0,0.0,0.0,0.0,0.0,0.0,0.0,0.0,0.0,0.0,0.0,0.0,0.0,0.0,0.0,0.0,0.0,0.0,0.0,0.0,0.0,0.0,0.0,0.0,0.0,0.0,0.0,0.0,1.1326,0.0,0.0,0.0,0.0,0.0,0.0,0.0,0.0,0.0,0.0,0.0,0.0,0.0,0.0,0.0,0.0,0.0,0.0,0.0,0.0,0.0,0.0,0.0,0.0,0.0,0.0,0.0,0.0,0.0,0.0,0.0,0.0,0.0,0.0,0.0,0.0,0.0,1.7428,1.6637,1.6112,1.5861,1.5058,1.3647,1.1804,1.104,0.0,0.0,0.0,0.0,0.0,0.0,0.0,0.0,0.0,0.0,0.0,0.0,0.0,0.0,0.0,0.0,0.0,0.0,0.0,0.0,0.0,0.0,0.0,0.0,0.0,0.0,0.0,0.0,0.0,0.0,0.0,0.0,0.0,0.0,0.0,0.0,0.0,0.0,0.0,0.0,0.0,0.0,0.0,0.0,0.0,0.0,0.0,0.0,0.0,0.0,0.0,0.0,0.0,0.0,0.0,0.0,0.0,0.0,0.0,0.0,0.0,0.0,0.0,1.7856,1.7068,1.5999,1.4798,1.4282,1.4228,1.3161,1.2543,1.2264,0.0,0.0,0.0,0.0,0.0,0.0,0.0,0.0,0.0,0.0,0.0,0.0,0.0,0.0,0.0,0.0,0.0,0.0,0.0,0.0,0.0,0.0,0.0,2.2762,2.3062,0.0,0.0,0.0,0.0,0.0,0.0,0.0,0.0,0.0,1.8639,1.8583,1.9171,1.8425,1.8081,1.8154,1.6819,1.5827,1.5016,1.3492,1.2368,1.1586,0.0,0.0,0.0,0.0,0.0,0.0,0.0,0.0,0.0,0.0,0.0,0.0,0.0,0.0,0.0,0.0,0.0,0.0,0.0,0.0,0.0,0.0,0.0,0.0,0.0,0.0,0.0,0.0,0.0,0.0,0.0,0.0,0.0,0.0,0.0,0.0,0.0,0.0,0.0,0.0,0.0,1.7991,1.8636,0.0,0.0,0.0,0.0,0.0,0.0,0.0,0.0,0.0,0.0,0.0,0.0,0.0,1.7517,1.3432,1.8733,2.1713,2.2229,1.9382,1.7943,1.77,1.6123,1.5365,1.5365,1.5189,0.0,1.3224,1.2774,0.0,0.0,0.0,0.0,0.0,0.0,0.0,0.0,0.0,0.0,0.0,0.0,0.0,0.0,0.0,0.0,0.0,0.0,0.0,0.0,0.0,0.0,2.4732,2.4873,0.0,0.0,0.0,0.0,0.0,0.0,0.0,2.0105,2.0681,2.012,2.025,2.1127,2.1036,2.0675,2.0049,1.9008,1.8084,1.723,1.652,1.4941,1.2829,1.1813,0.0,0.0,0.0,0.0,0.0,0.0,0.0,0.0,0.0,0.0,0.0,0.0,0.0,0.0,0.0,0.0,0.0,0.0,0.0,0.0,0.0,0.0,0.0,0.0,0.0,0.0,0.0,0.0,0.0,0.0,0.0,0.0,0.0,0.0,0.0,0.0,0.0,0.0,0.0,1.8243,1.9555,1.979,1.9681,1.9256,0.0,0.0,0.0,0.0,0.0,0.0,0.0,0.0,0.0,2.1478,2.0373,1.9074,1.7775,2.1241,2.2989,2.2997,2.0506,1.9535,1.9805,1.8323,1.7895,1.8227,1.7707,1.6854,1.5818,1.4559,1.3745,1.3218,0.0,0.0,0.0,0.0,1.1979,1.2059,0.0,0.0,0.0,0.0,0.0,0.0,0.0,0.0,0.0,0.0,0.0,0.0,2.4523,2.5545,2.6314,2.6588,0.0,0.0,0.0,0.0,0.0,0.0,0.0,2.1271,2.219,2.1826,2.1994,2.2723,2.298,2.256,2.1451,2.0722,1.9824,1.8924,1.8857,1.7126,1.4128,1.3031,1.2021,1.1095,0.0,0.0,0.0,0.0,0.0,0.0,0.0,0.0,0.0,0.0,0.0,0.0,0.0,0.0,0.0,0.0,0.0,0.0,0.0,0.0,0.0,0.0,0.0,0.0,0.0,0.0,0.0,0.0,0.0,0.0,0.0,0.0,0.0,0.0,0.0,0.0,0.0,2.0615,2.1428,2.1239,2.1318,2.094,0.0,0.0,0.0,0.0,0.0,0.0,1.9836,2.0838,2.1661,2.2259,2.0694,2.0394,2.1425,2.2454,2.298,2.2973,2.1624,2.1104,2.1276,2.0275,1.9843,1.9917,1.915,1.8513,1.7944,1.6046,1.5064,1.4684,1.3772,1.3226,1.3017,1.3309,1.3325,1.3299,0.0,0.0,0.0,0.0,0.0,0.0,0.0,0.0,0.0,0.0,0.0,2.5492,2.6202,2.6225,2.6614,2.7628,2.7226,2.6777,0.0,0.0,2.4714,2.4089,2.3103,2.2896,2.3579,2.3953,2.3947,2.3619,2.3519,2.3061,2.2238,2.1428,2.0677,2.002,1.9825,1.8395,1.6087,1.5006,1.3587,1.1917,1.0716,0.0,0.0,0.0,0.0,0.0,0.0,0.0,0.0,0.0,0.0,0.0,0.0,0.0,0.0,0.0,0.0,0.0,0.0,0.0,0.0,0.0,0.0,0.0,0.0,0.0,0.0,0.0,0.0,0.0,0.0,0.0,0.0,0.0,0.0,0.0,0.0,0.0,0.0,2.3583,2.4103,0.0,0.0,0.0,0.0,2.1283,2.1703,2.2211,2.2739,2.2717,2.2761,2.2921,2.2847,2.2846,2.2869,2.2965,2.2981,2.2981,2.2922,2.2386,2.1574,2.1262,2.034,1.8978,1.8651,1.8563,1.8519,1.6615,1.5502,1.4939,1.4451,1.425,1.4228,1.4256,1.4256,1.425,0.0,0.0,0.0,0.0,0.0,0.0,0.0,0.0,0.0,2.5859,2.5961,2.6096,2.636,2.7125,2.7529,2.7292,2.7928,2.78,2.6608,0.0,2.5007,2.5485,2.403,2.3954,2.5523,2.5991,2.5969,2.544,2.5184,2.4464,2.3312,2.2553,2.1631,2.0594,2.0457,1.9468,1.7902,1.6783,1.562,1.4396,1.2915,1.1944,0.0,0.0,0.0,0.0,0.0,0.0,0.0,0.0,0.0,0.0,0.0,0.0,0.0,0.0,0.0,0.0,0.0,0.0,0.0,0.0,0.0,0.0,0.0,0.0,0.0,0.0,0.0,0.0,0.0,0.0,0.0,0.0,0.0,0.0,0.0,0.0,0.0,2.4831,2.4697,0.0,2.3024,2.2733,2.2748,2.2886,2.347,2.392,2.4142,2.3373,2.293,2.3028,2.2991,2.2584,2.1647,2.2569,2.2696,2.2072,2.2245,2.219,2.183,2.1607,2.1259,2.0877,2.0166,1.9896,1.9808,1.8531,1.8,1.7842,1.6525,1.6056,1.605,1.5393,1.5232,1.5349,0.0,0.0,0.0,0.0,0.0,0.0,0.0,0.0,0.0,2.5899,2.6051,2.6202,2.6437,2.7311,2.7642,2.699,2.7942,2.791,2.629,0.0,2.5341,2.5773,2.5101,2.5421,2.6937,2.7258,2.72,2.6808,2.5741,2.4669,2.3601,2.2536,2.1555,2.0739,2.0633,2.0253,1.9609,1.858,1.753,1.6308,1.4581,1.3817,1.3603,0.0,0.0,0.0,0.0,0.0,0.0,0.0,0.0,0.0,0.0,0.0,0.0,0.0,0.0,0.0,0.0,0.0,0.0,0.0,0.0,0.0,0.0,0.0,0.0,0.0,0.0,0.0,0.0,0.0,0.0,0.0,0.0,0.0,0.0,0.0,2.6952,2.6754,2.6256,2.565,2.4853,2.4508,2.4413,2.4676,2.5083,2.5293,2.511,2.4518,2.3997,2.358,2.3958,2.3428,2.1829,2.2874,2.2925,2.1977,2.2097,2.2282,2.2556,2.2414,2.2245,2.2049,2.1125,2.0703,2.0626,1.9592,1.9513,1.9932,1.8348,1.7772,1.771,1.7105,1.6665,1.6396,0.0,0.0,0.0,0.0,0.0,0.0,0.0,0.0,2.4739,2.5196,2.5394,2.5795,2.6539,2.6757,2.6806,2.6706,2.7198,2.6909,2.5427,2.5832,2.5726,2.4871,2.633,2.7353,2.7698,2.7623,2.754,2.7517,2.5087,2.3612,2.2995,2.1319,2.0475,2.041,2.0386,2.0671,2.1121,2.0399,1.9169,1.7561,1.5694,1.5124,1.5217,0.0,0.0,0.0,0.0,0.0,0.0,0.0,0.0,0.0,0.0,0.0,0.0,0.0,0.0,0.0,0.0,0.0,0.0,0.0,0.0,0.0,0.0,0.0,0.0,0.0,0.0,0.0,0.0,0.0,0.0,0.0,0.0,0.0,2.8988,2.9871,3.0238,2.9481,2.8944,2.8354,2.7519,2.6992,2.6636,2.6627,2.6573,2.6336,2.5707,2.6263,2.6009,2.4687,2.5829,2.5505,2.3595,2.3981,2.3709,2.2714,2.2592,2.2853,2.3508,2.3639,2.3137,2.2159,2.1354,2.0942,2.0835,1.9666,1.9911,2.098,1.9723,1.9221,1.9228,1.9153,1.8469,1.7307,0.0,0.0,0.0,0.0,0.0,0.0,0.0,0.0,2.4833,2.6053,2.5753,2.5759,2.6662,2.6199,2.555,2.4906,2.5372,2.5257,2.4168,0.0,2.4613,2.5279,2.7763,2.8751,2.7936,2.728,2.6542,2.571,2.4193,2.2935,2.1926,2.1356,2.0912,2.0601,2.0263,2.0274,2.051,2.0086,2.0036,2.0138,1.8674,1.8051,1.7959,0.0,0.0,0.0,0.0,0.0,0.0,0.0,0.0,0.0,0.0,0.0,0.0,0.0,0.0,0.0,0.0,0.0,0.0,0.0,0.0,0.0,0.0,0.0,0.0,0.0,0.0,0.0,0.0,0.0,0.0,0.0,0.0,3.1378,3.1032,3.103,3.1113,3.1262,3.0606,2.9735,2.8739,2.8298,2.7636,2.6526,2.6293,2.5951,2.55,2.6166,2.6262,2.5514,2.3887,2.2971,2.2783,2.3746,2.3582,2.2412,2.2661,2.247,2.1923,2.1981,2.1824,2.1552,2.1303,2.1213,2.1147,2.0842,2.0913,2.1092,1.9799,1.9402,1.9449,1.8419,1.7463,1.6555,0.0,0.0,0.0,0.0,0.0,0.0,0.0,0.0,2.4527,2.576,2.5816,2.5818,2.6054,2.5847,2.5232,2.41,2.4521,2.4489,2.3692,2.4093,2.4965,2.6361,2.7963,2.8608,2.8167,2.6719,2.5627,2.497,2.3202,2.192,2.1151,2.0638,2.0218,1.9886,1.9628,1.9879,2.0506,2.0093,2.06,2.1625,2.0936,2.0717,2.0681,1.9693,1.9812,2.0451,1.9982,2.0375,2.1128,2.1217,0.0,0.0,0.0,0.0,0.0,0.0,0.0,0.0,0.0,0.0,0.0,0.0,0.0,0.0,0.0,0.0,0.0,0.0,0.0,0.0,0.0,0.0,0.0,0.0,3.1685,3.256,3.2712,3.2931,3.3017,3.2841,3.1901,3.0896,3.0056,2.8911,2.7848,2.6958,2.628,2.5829,2.5598,2.581,2.567,2.5127,2.3556,2.2715,2.2664,2.3009,2.2763,2.2043,2.2521,2.2366,2.1722,2.1722,2.1643,0.0,2.1206,2.1112,2.1104,2.0754,2.0686,0.0,0.0,0.0,0.0,0.0,1.7751,1.7147,0.0,0.0,0.0,0.0,0.0,0.0,0.0,0.0,2.4096,2.4896,2.5546,2.5717,2.5171,2.5571,2.5321,2.4051,2.4291,2.4293,2.3768,2.4836,2.606,2.7324,2.7335,2.7517,2.8045,2.5851,2.4683,2.4654,2.2142,2.0799,2.0532,1.9569,1.9044,1.8869,1.8824,1.9581,2.0895,2.0344,2.0922,2.2239,2.2441,2.2738,2.286,2.1367,2.1993,2.362,2.3115,2.3871,2.5123,2.5123,0.0,0.0,0.0,0.0,0.0,0.0,0.0,0.0,0.0,0.0,0.0,0.0,0.0,0.0,0.0,0.0,0.0,0.0,0.0,0.0,0.0,0.0,0.0,0.0,3.2814,3.3121,3.4004,3.4848,3.5004,3.4018,3.2847,3.1914,3.1326,2.9278,2.7935,2.7733,2.6652,2.5928,2.5829,0.0,0.0,0.0,0.0,2.3699,2.3055,2.2171,2.1737,2.1793,2.2218,2.2353,2.219,2.219,2.197,2.1549,2.1105,2.0882,2.081,2.0016,1.9931,2.0263,2.0505,2.058,2.0411,1.9265,1.8697,0.0,0.0,0.0,0.0,0.0,0.0,0.0,0.0,0.0,2.4096,2.4896,2.462,2.4585,2.5183,2.4699,2.4241,2.4086,2.4049,2.3995,2.3873,2.5237,2.5864,2.5452,2.6578,2.6823,2.5992,2.4322,2.3344,2.3132,2.1362,2.0222,1.9642,1.9442,1.9327,1.9269,1.8947,1.9639,2.1018,2.0437,2.102,2.2343,2.2185,2.228,2.2626,2.3454,2.3958,2.4367,2.5298,2.6017,2.6514,2.6511,2.6524,2.6633,2.7113,2.6952,0.0,0.0,0.0,0.0,0.0,0.0,0.0,0.0,0.0,0.0,0.0,0.0,0.0,0.0,0.0,0.0,0.0,0.0,0.0,3.4568,3.4856,3.4897,3.49,3.4367,3.3832,3.3499,3.3183,3.2653,3.1601,3.0897,2.9996,2.8737,2.7827,2.69,2.5861,2.4686,2.3966,2.3881,2.3159,2.3148,2.3948,2.2441,2.1877,2.2274,0.0,0.0,2.1652,2.1618,2.1275,2.075,2.0784,2.0741,2.0571,2.0413,2.0196,2.0002,1.9961,1.9824,1.9491,1.8897,1.8423,1.8052,0.0,0.0,0.0,0.0,0.0,0.0,0.0,0.0,2.4507,2.4933,2.5,2.5054,2.5201,2.5015,2.4788,2.4516,2.4318,2.4339,2.4685,2.5426,2.5842,2.5804,2.6191,2.6118,2.5504,2.3995,2.294,2.2403,2.1221,2.021,1.9354,1.9354,1.9299,1.9187,1.8992,1.9506,2.0516,2.0608,2.1246,2.2238,2.2681,2.29,2.3132,2.4309,2.556,2.6832,2.7739,2.8843,2.9895,3.0205,3.0395,3.0614,3.1297,3.0935,3.028,0.0,0.0,0.0,0.0,0.0,0.0,0.0,0.0,0.0,0.0,0.0,0.0,0.0,0.0,3.4241,3.4399,0.0,3.548,3.5838,3.5748,3.5429,3.4888,3.3903,3.3051,3.2578,3.2238,3.1783,3.0949,3.026,2.9602,2.8798,2.7807,2.6932,2.6302,2.5482,2.4841,2.4395,2.3508,2.3146,2.3281,2.2715,2.2514,2.2738,2.2489,2.2051,2.1367,2.1325,2.0903,2.0201,2.0314,2.0273,2.0201,2.0201,1.9999,1.9771,1.9729,1.9553,1.9291,1.9039,1.8833,1.8665,0.0,0.0,0.0,0.0,0.0,0.0,0.0,0.0,0.0,2.4987,2.5523,2.5682,2.5149,2.5485,2.5527,2.4992,2.4741,2.4928,2.564,2.5538,2.5791,2.6581,2.5864,2.5352,2.5168,2.378,2.2679,2.186,2.1045,2.0206,1.9355,1.9355,1.9265,1.9112,1.9112,1.9474,2.0129,2.0887,2.159,2.2249,2.3265,2.3816,2.4092,2.4759,2.6467,2.8637,2.9422,3.0744,3.2259,3.3107,3.3435,3.366,3.4614,3.4195,3.3246,3.2509,3.2241,0.0,0.0,0.0,0.0,0.0,0.0,0.0,0.0,3.3548,3.4285,3.5088,3.6038,3.6701,3.6623,3.6945,3.714,3.6937,3.6377,3.5708,3.4897,3.3604,3.2472,3.1841,3.1191,3.064,3.0218,2.9374,2.8892,2.8892,2.785,2.713,2.6954,2.6659,2.6055,2.5093,2.4415,2.3577,2.254,2.2908,2.2999,2.2872,2.2872,2.2246,2.1142,2.1151,2.0702,1.9902,1.9902,1.9902,1.9902,1.9902,1.9784,1.9676,1.9676,1.9548,1.942,1.9341,1.9256,1.9191,0.0,0.0,0.0,0.0,0.0,0.0,0.0,0.0,0.0,2.4992,2.5069,2.5113,2.5103,0.0,2.515,2.5086,2.5053,2.5397,2.6243,2.5619,2.5532,2.6237,2.5375,2.4507,2.3656,2.2727,2.1816,2.094,2.014,1.968,1.9567,1.9567,1.9541,1.9528,1.9528,1.9966,2.0741,2.1369,2.2086,2.2841,2.3328,2.4348,2.5552,2.5451,2.6027,2.713,2.9021,2.9711,2.9958,3.1684,3.1809,3.1549,3.3325,3.3786,3.3416,3.222,3.1856,3.1564,3.0114,3.0808,3.2413,3.4369,3.4198,3.4437,0.0,3.7376,3.6703,3.8107,3.8452,3.8645,3.8998,3.8801,3.8539,3.8394,3.7625,3.6756,3.5953,3.3873,3.2326,3.2015,3.1088,3.0422,3.0361,3.0086,2.9947,2.9947,2.9338,2.865,2.7885,2.7368,2.6648,2.5639,2.5511,2.4691,2.3053,2.3091,2.2725,2.2035,2.2035,2.1661,2.0916,2.0936,2.0566,1.9902,1.9902,1.9902,1.9902,1.9902,1.9902,1.9863,1.9863,1.9863,1.9784,1.942,1.9081,1.8779,0.0,0.0,0.0,0.0,0.0,0.0,0.0,0.0,0.0,0.0,0.0,2.5219,2.5313,2.5264,2.5229,2.5228,2.562,2.6011,2.6389,2.6559,2.6343,2.5646,2.5285,2.4429,2.3012,2.2667,2.21,2.127,2.0923,2.0494,2.0017,2.0002,2.0016,2.0031,2.0509,2.084,2.1178,2.2355,2.3015,2.3347,2.4447,2.5005,2.5289,2.6505,2.7,2.7298,2.9109,2.9958,0.0,3.1321,3.1699,3.1951,3.2964,3.3436,3.3501,3.2985,3.3045,3.3265,3.3274,3.3144,3.3537,3.5784,3.6518,3.7101,3.8564,3.8629,3.8605,3.9377,3.9538,3.9513,3.9326,3.9165,3.8871,3.8443,3.7758,3.7084,3.6596,3.475,3.3357,3.3116,3.1564,3.0301,2.9698,2.9297,2.9184,2.95,2.8745,2.8237,2.8183,2.7576,2.691,2.6297,2.6297,2.5983,2.5263,2.552,2.508,2.3932,2.3932,2.3475,2.2652,2.2634,2.2035,2.0962,2.0518,2.0294,2.0294,2.0294,2.0255,2.0118,1.9831,1.9659,1.9514,1.935,1.9209,1.9031,0.0,0.0,0.0,0.0,0.0,0.0,0.0,0.0,0.0,0.0,0.0,0.0,0.0,2.5401,2.5357,2.537,2.587,2.6386,2.6856,2.7257,2.715,2.6427,2.6184,2.5376,2.3883,2.363,2.3127,2.2323,2.2072,2.1643,2.1014,2.1249,2.1378,2.1417,2.2246,2.2558,2.2557,2.3942,2.4461,2.448,2.5835,2.6273,2.6282,2.7615,2.8227,2.8482,2.9372,2.9966,3.0433,3.0968,3.1386,3.1773,3.2446,3.2849,3.3006,3.2878,3.308,3.3604,3.4695,3.4545,3.462,3.6832,3.8102,3.8858,3.9024,3.9364,3.9698,3.9888,3.9831,3.9542,3.8943,3.878,3.8583,3.8103,3.776,3.7471,3.7281,3.5653,3.4421,3.4255,3.2335,3.072,3.0012,2.8934,2.8453,2.8846,2.8011,2.7655,2.8048,2.758,2.7115,2.6721,2.6879,2.6837,2.6541,2.7177,2.6913,2.5724,2.5701,2.504,2.3789,2.3789,2.3226,2.2237,2.1346,2.1011,2.0962,2.0804,2.0496,2.0159,1.9912,1.9597,1.9287,1.9011,1.8965,1.8891,0.0,0.0,0.0,0.0,0.0,0.0,0.0,0.0,0.0,0.0,0.0,0.0,0.0,0.0,2.5515,2.5598,2.5601,2.6346,2.8031,2.7374,2.7651,2.9297,2.8501,2.7635,2.6785,2.5829,2.4929,2.4124,2.3273,2.2846,2.2838,2.3684,2.4078,2.4116,2.4993,2.5382,2.5437,2.6266,2.6579,2.6572,2.7264,2.8427,2.9633,2.8736,2.9391,3.0672,2.973,2.9207,2.9154,3.04,3.035,3.0021,3.139,3.1837,3.1726,3.1075,3.0935,3.1318,3.2773,3.4108,3.5592,3.7785,3.8475,3.8946,4.023,4.0095,3.9686,3.9718,3.9244,3.8647,3.7963,3.766,3.7536,3.7521,3.7907,3.8188,3.8165,3.643,3.5156,3.517,3.3335,3.2037,0.0,2.9767,2.8293,2.8306,2.779,2.7496,2.7508,2.7483,2.7238,2.6734,2.7201,2.6993,2.5925,2.6956,2.7164,2.6466,2.6468,2.5426,2.35,2.35,2.35,2.3404,2.2403,2.1952,2.192,2.1242,2.0558,1.993,2.0173,1.9893,1.9209,1.8344,1.8087,1.8057,0.0,0.0,0.0,0.0,0.0,0.0,0.0,0.0,0.0,0.0,0.0,0.0,0.0,0.0,0.0,0.0,2.6121,2.6713,2.7294,2.8154,2.8376,2.7803,2.8036,2.7491,2.6071,2.5718,2.5403,2.5127,2.4835,2.4696,2.4711,2.5576,2.5989,2.6047,2.7509,2.8133,2.8107,2.8337,2.8744,2.9275,2.9442,2.9814,3.0235,3.0296,3.0292,3.0224,0.0,2.9703,2.902,2.9009,2.9195,2.947,2.9729,3.0453,3.1306,3.1784,3.2296,3.3069,3.4811,3.5976,3.7209,3.9319,3.989,4.0075,4.0683,4.0362,3.9897,3.9671,3.8396,3.741,3.7689,3.7267,3.7044,3.756,3.7828,3.8069,3.8345,3.7114,3.6245,3.6568,3.5145,0.0,0.0,0.0,0.0,2.9997,2.837,2.7503,2.7865,2.7097,2.6625,2.6567,2.6613,2.6517,2.6315,2.6656,2.6719,2.6491,2.6373,2.5955,2.5276,2.46,2.4115,2.3732,2.2853,2.2269,2.1928,2.1705,2.1463,2.1161,2.0484,2.0108,1.9768,1.8614,1.8198,1.8154,0.0,0.0,0.0,0.0,0.0,0.0,0.0,0.0,0.0,0.0,0.0,0.0,0.0,0.0,0.0,0.0,0.0,2.6588,2.6909,2.7981,2.8257,2.7441,2.8203,2.7986,2.6531,2.6489,2.6486,2.6463,2.6177,2.6357,2.6984,2.7866,2.8452,2.8824,3.0254,3.1035,3.1269,3.0917,3.0895,3.1092,3.1035,3.0776,3.0515,3.1156,3.1202,0.0,3.1139,3.0774,3.0081,2.913,2.8968,2.9116,2.8817,2.9627,3.0934,3.221,3.3166,3.428,3.6326,3.7293,3.8198,4.006,4.0397,4.0317,4.0431,4.0176,3.9677,3.8964,3.7533,3.6425,3.6421,3.6369,3.6499,3.6974,3.7507,3.8026,3.8521,3.7508,3.6898,3.7448,3.6439,3.5539,0.0,0.0,0.0,3.0644,2.8795,2.7738,2.7795,2.6862,2.6361,2.6499,2.6361,2.6361,2.6499,2.6499,2.6499,2.6499,2.6361,2.6193,2.5959,2.5324,2.4723,2.4162,2.3294,2.2719,2.2378,2.2139,2.1902,2.1609,2.0941,2.0555,2.0235,1.9258,1.8828,1.8635,0.0,0.0,0.0,0.0,0.0,0.0,0.0,0.0,0.0,0.0,0.0,0.0,0.0,0.0,0.0,0.0,0.0,0.0,2.6882,2.7009,2.7438,2.8254,2.9069,2.9071,2.8181,2.8163,2.8123,2.8058,2.7348,2.7848,2.949,3.0405,3.1295,3.2114,3.2996,3.3856,3.4578,3.3702,3.285,3.2067,3.1991,3.1468,3.0773,3.1476,3.2218,3.2823,3.2501,3.2297,3.2004,3.0644,2.9691,2.9064,2.8911,2.9623,3.0818,3.238,3.36,3.4922,3.7079,3.794,3.8562,3.9946,3.9977,3.9662,3.9653,3.9566,3.907,3.7676,3.6653,3.5615,3.4374,3.509,3.5886,3.5996,3.7105,3.8152,3.8788,3.7839,3.7278,3.7889,3.7225,3.6658,3.657,0.0,0.0,3.0454,0.0,2.8183,2.746,2.6873,2.6559,2.6533,2.6533,2.6521,2.6483,2.6449,2.6461,2.6499,2.6461,2.616,2.5598,2.5573,2.5272,2.4705,2.3739,2.3307,2.3226,2.2554,2.1887,2.1317,2.1551,2.1227,2.063,2.0115,1.9851,1.9452,0.0,0.0,0.0,0.0,0.0,0.0,0.0,0.0,0.0,0.0,0.0,0.0,0.0,0.0,0.0,0.0,0.0,0.0,2.602,2.7195,2.7971,2.8136,2.8918,2.9227,2.8923,2.8916,2.8908,2.8899,2.9334,2.9788,3.025,3.1131,3.1666,3.1926,3.2836,3.3378,3.3529,3.2752,3.2668,3.3037,3.2973,3.3151,3.3495,3.358,3.368,3.3733,3.3506,3.3016,3.2396,3.1684,3.1561,3.1795,3.2129,3.2821,3.3648,3.4343,3.5563,3.6747,3.7023,3.7979,3.8864,3.8832,3.917,3.9355,3.8959,3.8848,3.8529,3.7534,3.5852,3.4574,3.4677,3.4962,3.5683,3.7338,3.8809,3.9757,3.9806,3.9502,3.9113,3.8627,3.8362,3.7664,3.6222,3.6175,0.0,0.0,3.0732,2.9609,2.8952,2.8048,2.7343,2.6901,2.6875,2.6604,2.6071,2.5892,2.6072,2.6487,2.6047,2.5737,2.5586,2.5197,2.472,2.4148,2.3449,2.3158,2.309,2.2529,2.2408,2.2585,2.213,2.1865,2.1612,2.0834,2.031,1.9837,0.0,0.0,0.0,0.0,0.0,0.0,0.0,0.0,0.0,0.0,0.0,0.0,0.0,0.0,0.0,0.0,0.0,0.0,0.0,2.694,2.7634,2.757,2.8339,2.8547,2.8067,2.8405,2.8382,2.7965,2.9259,3.009,3.0481,3.1381,3.2,3.2397,3.2916,3.3382,3.372,3.291,3.2904,0.0,0.0,3.3347,3.3466,3.4032,3.4205,3.4217,3.4729,3.4964,3.499,3.4577,3.4067,3.3639,3.3906,3.4274,3.4705,3.5289,3.6087,3.6789,3.6916,3.7672,3.8368,3.8204,3.8313,3.8253,3.7465,3.7481,3.7265,3.5787,3.4691,3.3999,3.4031,3.4766,3.5908,3.7459,3.9233,4.041,4.0308,4.0303,3.9896,3.8769,3.8299,3.7517,3.6177,3.603,3.5365,0.0,3.2338,3.119,3.0524,2.9434,2.8664,2.8346,2.7741,2.6937,2.5922,2.559,2.5608,2.5824,2.5595,2.5349,2.5064,2.4773,2.4203,2.3462,0.0,2.2782,2.2484,2.2421,2.2514,2.2739,2.2591,2.2408,2.2164,2.1894,2.1163,2.0328,0.0,0.0,0.0,0.0,0.0,0.0,0.0,0.0,0.0,0.0,0.0,0.0,0.0,0.0,0.0,0.0,0.0,0.0,0.0,0.0,2.6957,2.6885,2.7546,2.7491,2.6622,2.7271,2.7226,2.6414,2.8219,2.9462,3.0223,3.1171,3.1927,3.255,3.2676,3.3131,3.3759,3.3122,3.293,3.3062,3.3223,3.2841,3.2329,0.0,0.0,3.4526,3.5827,3.7119,3.8177,3.7949,3.6761,3.5351,3.5141,3.5077,3.5186,3.5802,3.5876,3.5949,3.6651,3.7053,3.7343,3.7567,3.7349,3.6775,3.5642,3.5825,3.562,3.3484,3.3428,3.3573,3.3001,3.4356,3.5959,3.7201,3.9044,4.043,4.0642,4.0763,4.0305,3.8836,3.7843,3.6999,3.6287,3.5385,3.4835,3.4835,3.3754,3.2735,3.1894,3.079,3.0118,2.9952,2.8714,2.7477,2.6238,2.5787,2.5421,2.5148,2.5249,2.4985,2.44,2.4246,2.3675,2.2783,0.0,0.0,2.1769,2.2211,2.2407,2.243,2.2954,2.2849,2.2489,2.2769,2.2008,2.0867,0.0,0.0,0.0,0.0,0.0,0.0,0.0,0.0,0.0,0.0,2.6059,2.6582,0.0,0.0,0.0,0.0,0.0,0.0,0.0,0.0,0.0,2.6819,2.684,2.6786,2.6603,2.6671,2.665,2.6473,2.8183,2.9084,2.9257,3.0081,3.0171,2.9653,3.0436,3.0534,3.0163,3.0785,3.112,3.1374,3.2753,3.3218,3.3244,0.0,0.0,0.0,3.5968,3.7101,3.8321,3.8664,3.8844,3.8758,3.7936,3.7624,3.7484,3.6959,3.6327,3.5822,3.5967,3.6045,3.6023,3.5686,3.5786,3.568,3.4533,3.4568,3.4356,3.2635,3.2324,3.2448,3.2823,3.3095,3.4525,3.8304,3.9217,4.0073,4.196,4.2183,4.1637,4.0235,3.8978,3.7741,3.6486,3.5266,0.0,0.0,0.0,3.3618,3.2198,3.1528,3.0676,2.9638,2.8761,2.8201,2.7889,2.7195,2.6533,2.5906,2.5489,2.4984,2.4374,2.3471,2.2975,2.276,2.1809,0.0,2.1867,2.1971,2.2278,2.2761,2.3175,2.328,2.309,2.2141,2.1594,2.1292,0.0,0.0,0.0,0.0,0.0,0.0,0.0,2.6239,2.6428,2.5343,2.6044,2.6676,2.6787,2.723,2.7369,0.0,0.0,0.0,0.0,0.0,0.0,0.0,0.0,0.0,2.6645,2.6625,2.6593,2.6544,0.0,2.9031,2.9027,2.9864,3.0043,2.9676,2.9684,2.9791,2.9977,2.9941,3.0521,3.1579,3.2819,3.3565,0.0,0.0,0.0,0.0,3.6651,3.7589,3.8786,3.8901,3.9286,3.9644,3.9069,3.8278,3.743,3.6598,3.5512,3.4552,3.4552,3.4552,3.455,3.4522,3.4676,3.4411,3.284,3.3106,3.3103,3.1115,3.1398,3.2093,3.2381,3.2896,3.4087,3.6613,3.8278,3.9618,4.0723,4.1851,4.1901,4.0103,3.876,3.7448,3.6014,3.503,3.4369,3.4024,0.0,3.4016,3.2926,3.1972,3.085,2.9524,2.921,2.8519,2.7372,2.7109,2.6601,2.5836,2.5651,2.525,2.4627,2.3841,2.3291,2.2905,2.211,0.0,2.2047,2.2007,2.2133,2.2321,2.2196,2.1977,2.1659,2.0963,2.0368,1.9914,0.0,0.0,0.0,0.0,0.0,0.0,0.0,2.5661,2.6003,2.5158,2.6171,2.6962,2.6966,2.7656,2.7923,0.0,0.0,0.0,0.0,0.0,0.0,0.0,0.0,0.0,0.0,0.0,0.0,2.6631,2.8338,0.0,0.0,0.0,0.0,0.0,2.9631,2.9683,3.0119,2.9747,3.0337,0.0,0.0,3.3685,0.0,0.0,0.0,0.0,0.0,3.7701,3.8745,3.8645,3.8799,3.8969,3.8909,3.8136,3.7031,3.5892,3.4769,3.3882,3.3701,3.3665,3.368,3.3834,3.381,3.3251,3.1413,3.1917,3.2152,2.9972,3.0791,3.192,3.2088,3.265,3.3541,3.4916,3.6829,3.85,3.9597,4.113,4.1563,4.0015,3.8684,3.742,3.6143,3.4958,0.0,3.3924,0.0,0.0,3.3305,3.2004,3.0803,2.9769,2.968,2.8797,2.6975,2.6958,2.6519,2.5613,2.558,2.527,2.4675,2.4254,2.3794,2.3265,2.2924,0.0,0.0,2.2497,2.2231,2.1756,2.1366,2.0823,2.0207,1.9813,1.9229,1.867,0.0,0.0,0.0,0.0,0.0,0.0,0.0,2.5897,2.643,2.5096,2.7004,2.8253,2.7605,2.7875,2.8399,0.0,0.0,0.0,0.0,0.0,0.0,0.0,0.0,0.0,0.0,0.0,0.0,2.6783,2.8528,0.0,0.0,0.0,0.0,0.0,0.0,2.9616,2.8431,2.9879,0.0,0.0,0.0,0.0,0.0,0.0,0.0,0.0,0.0,3.6573,3.7335,3.7613,3.7271,3.6762,3.7103,3.7629,3.7647,3.5385,3.5116,3.5406,3.4682,3.4498,3.432,3.362,3.3176,3.2509,3.0924,3.1495,3.1898,3.0284,3.0749,3.1664,3.2344,3.1556,3.1912,3.5346,3.4998,3.5918,4.0563,4.0861,4.0762,4.1172,4.0078,3.8969,3.8121,3.5341,3.4046,3.5139,0.0,0.0,3.2572,3.133,3.0539,3.0423,2.9871,2.9203,2.8408,2.7809,2.6927,2.568,2.5091,2.4515,2.3993,2.3993,2.3991,2.3909,2.3932,0.0,0.0,2.3596,2.2878,2.148,2.1787,2.1285,2.0243,1.9068,1.8918,1.9148,0.0,0.0,0.0,0.0,0.0,0.0,2.4229,2.582,2.6448,2.4853,2.6567,2.7615,2.6839,2.7381,2.8145,2.9017,0.0,0.0,0.0,0.0,0.0,0.0,0.0,0.0,0.0,0.0,2.7355,2.8378,2.906,0.0,0.0,0.0,0.0,0.0,0.0,2.9773,2.9667,2.9726,0.0,0.0,0.0,0.0,0.0,0.0,0.0,0.0,0.0,0.0,3.5987,3.6102,3.586,3.5325,3.44,3.5331,3.658,3.5587,3.5206,3.5007,3.4682,3.4606,3.4407,3.361,3.2925,3.2154,3.1052,3.1359,3.1592,3.0513,3.1062,3.178,3.209,3.1402,3.1433,3.3355,3.3727,3.4816,3.7748,3.9056,3.9846,4.01,3.9322,3.8468,0.0,0.0,3.4418,3.4212,0.0,0.0,3.1315,3.0058,2.9535,2.9939,2.8948,2.8079,2.7395,2.7111,2.6534,2.5623,2.5372,2.4928,2.4325,2.4475,2.4486,2.4422,2.4148,0.0,0.0,2.3452,2.2512,2.1144,2.1029,2.048,1.9628,1.8717,1.8526,1.8685,0.0,0.0,0.0,0.0,0.0,2.3689,2.3999,2.5409,2.5959,2.4612,2.6049,2.6895,2.6079,2.7006,2.7938,2.8575,2.8214,0.0,0.0,0.0,0.0,0.0,0.0,0.0,0.0,0.0,2.813,2.9275,2.9576,3.009,0.0,0.0,3.0618,3.0894,0.0,0.0,0.0,0.0,0.0,0.0,0.0,0.0,0.0,0.0,0.0,0.0,0.0,0.0,0.0,0.0,0.0,3.43,3.2976,3.3719,3.508,3.508,3.5186,3.5258,3.5023,3.5131,3.5113,3.4317,3.3339,3.2343,3.1542,3.1575,3.1557,3.0807,3.1378,3.2038,3.2038,3.1562,3.139,3.21,3.2904,3.4146,3.6163,3.7611,3.8683,3.9216,0.0,3.7976,0.0,3.5786,3.4439,0.0,0.0,0.0,3.107,2.9424,2.8688,2.906,2.777,2.6855,2.6438,2.6227,2.5873,2.5362,2.5167,2.4799,2.4335,2.4861,2.4833,2.4396,0.0,0.0,0.0,2.334,2.2321,2.098,2.0444,1.9759,1.9005,1.8531,1.8364,1.8341,0.0,0.0,0.0,0.0,0.0,0.0,2.3845,2.459,2.4931,2.4377,2.5706,2.6399,2.5606,2.6944,2.7941,2.7999,2.8482,0.0,0.0,0.0,0.0,0.0,0.0,0.0,0.0,0.0,2.912,2.8996,3.0004,3.0837,3.1461,3.0668,3.0722,3.1461,0.0,0.0,0.0,0.0,0.0,0.0,0.0,0.0,0.0,0.0,0.0,0.0,0.0,0.0,0.0,0.0,0.0,0.0,0.0,3.3393,3.3429,3.3429,3.5113,3.6796,3.5985,3.6363,3.6777,3.5967,3.4555,3.3176,3.2361,3.218,3.1962,3.1166,3.174,3.2402,3.2402,3.1895,3.1705,3.2383,3.2576,3.3747,3.7009,3.6925,3.7232,3.9086,3.8659,3.7904,3.7159,3.5306,3.3857,0.0,0.0,0.0,3.2241,2.9765,2.8144,2.784,2.6525,2.5893,2.6008,2.5348,2.4933,2.4799,2.4143,2.3747,2.3655,2.5001,2.4881,0.0,0.0,0.0,0.0,2.3588,2.26,2.1027,2.0366,1.9439,1.8514,1.85,1.85,1.8481,0.0,0.0,0.0,0.0,0.0,0.0,0.0,2.4123,2.4588,2.4079,2.5501,2.6301,2.5577,2.6942,2.813,2.8702,2.8539,0.0,0.0,0.0,0.0,0.0,0.0,0.0,0.0,0.0,2.928,2.9819,3.0133,3.0673,3.1429,3.1166,3.1431,3.2079,3.127,3.0659,0.0,0.0,0.0,0.0,0.0,0.0,0.0,0.0,0.0,0.0,0.0,0.0,0.0,0.0,0.0,0.0,0.0,0.0,0.0,3.3393,3.4335,3.5186,3.4389,3.4751,3.5168,3.4371,3.294,3.1691,3.1451,3.1365,3.1324,3.1053,3.1927,3.2736,3.2736,3.2197,3.2179,3.3453,3.3502,3.3989,3.5795,3.6747,3.7399,3.775,3.7676,3.7112,0.0,0.0,0.0,0.0,0.0,0.0,3.0298,2.9013,2.8331,2.8407,2.6185,2.5099,2.5303,2.4657,2.4301,2.4273,2.45,2.4606,2.4578,2.4994,0.0,0.0,0.0,0.0,0.0,2.2488,2.1704,2.0817,2.059,2.0011,1.9328,1.9328,1.9328,1.9258,0.0,0.0,0.0,0.0,0.0,0.0,0.0,2.3423,2.3762,2.352,2.4948,2.5695,2.4957,2.6927,2.8366,2.8584,2.8607,0.0,0.0,0.0,0.0,0.0,0.0,0.0,0.0,2.8636,2.9327,2.9783,2.9866,3.0284,3.1014,3.0692,3.1087,3.2062,3.1242,3.0923,0.0,0.0,0.0,0.0,0.0,0.0,3.4087,0.0,0.0,0.0,0.0,0.0,0.0,0.0,0.0,0.0,0.0,0.0,0.0,0.0,3.352,3.4045,3.3538,3.3991,3.4407,3.361,3.218,3.1089,3.1365,3.1234,3.1061,3.1295,3.2391,3.3296,3.3249,3.309,3.3362,3.4596,3.4692,3.512,3.6549,3.7189,3.7327,3.6812,0.0,0.0,0.0,3.4342,0.0,0.0,0.0,0.0,2.9984,2.8874,2.8236,2.8152,2.6027,2.4988,2.5181,2.4611,2.4328,2.4302,2.4579,2.467,2.4641,2.4884,0.0,0.0,0.0,0.0,0.0,2.152,2.1081,2.0673,2.0423,2.0064,1.9708,1.9708,1.9708,1.9657,0.0,0.0,0.0,0.0,0.0,0.0,0.0,2.2565,2.2617,2.2772,2.4124,2.4806,2.4079,2.6921,2.8617,2.7986,0.0,0.0,0.0,0.0,0.0,0.0,0.0,0.0,0.0,2.8922,2.9341,2.9156,2.92,2.958,3.0226,2.9411,2.9904,3.1458,3.0642,3.0656,0.0,0.0,0.0,0.0,0.0,0.0,0.0,0.0,0.0,0.0,0.0,0.0,0.0,0.0,0.0,0.0,0.0,0.0,0.0,0.0,0.0,0.0,0.0,3.39,3.4353,3.3592,3.227,3.1347,3.2035,3.1655,0.0,3.1873,3.3053,3.3961,3.3897,3.434,3.4952,3.5669,3.6035,3.683,3.8688,3.8101,3.7199,0.0,3.6437,0.0,3.5276,0.0,0.0,0.0,0.0,0.0,3.0746,2.9108,2.787,2.7186,2.6083,2.55,2.5503,2.5137,2.4918,2.4855,2.4529,2.429,2.4143,2.4722,0.0,0.0,0.0,0.0,0.0,2.0685,2.0658,2.0628,1.9959,1.9708,1.9708,1.9708,1.9708,1.9708,0.0,0.0,0.0,0.0,0.0,0.0,0.0,0.0,0.0,0.0,2.3991,2.4916,2.4823,2.7073,2.8776,0.0,0.0,0.0,0.0,0.0,0.0,0.0,0.0,0.0,2.8456,2.9325,2.9758,2.9716,2.827,2.7967,2.8697,2.8448,2.9089,3.0435,3.018,3.0394,0.0,0.0,0.0,0.0,0.0,0.0,0.0,0.0,0.0,0.0,3.2636,3.2676,0.0,0.0,0.0,0.0,0.0,0.0,0.0,0.0,3.3248,3.3266,3.2651,0.0,3.3647,3.3447,3.3121,3.2723,0.0,3.2404,3.2643,3.2778,3.3367,3.4003,3.4553,3.4801,3.5117,3.5707,3.6607,3.7481,3.8137,3.8885,0.0,3.743,3.766,3.6944,3.4406,0.0,0.0,0.0,0.0,2.9614,2.8616,2.8128,2.757,2.6842,2.6537,2.6104,2.5503,2.5408,2.5351,2.5349,2.5758,2.5774,2.5446,2.5086,0.0,0.0,0.0,0.0,2.0764,2.023,2.028,2.0628,1.9959,1.9708,1.9708,1.9708,1.9708,1.9708,0.0,0.0,0.0,0.0,0.0,0.0,0.0,0.0,0.0,0.0,0.0,0.0,0.0,0.0,0.0,0.0,0.0,0.0,0.0,0.0,0.0,0.0,0.0,2.9533,2.9073,2.9515,2.9597,2.9269,2.8539,2.8237,2.8351,2.8647,2.9369,3.0422,3.0675,3.0942,0.0,0.0,0.0,0.0,3.1738,0.0,0.0,0.0,0.0,0.0,3.1908,3.1841,0.0,3.14,3.1267,3.1327,0.0,0.0,0.0,0.0,3.3165,3.3093,3.2643,3.3217,3.3834,3.3382,3.3545,3.3674,3.315,3.329,3.35,3.3435,3.4195,3.4978,3.5385,3.6075,3.6836,3.7561,3.8324,3.8702,3.8258,0.0,3.8813,3.7335,3.7137,3.6464,0.0,0.0,0.0,0.0,0.0,2.8807,2.7858,2.7486,2.7114,2.6708,2.6691,2.6487,2.6052,2.5872,2.5781,2.5781,2.5967,2.5754,2.5217,2.4834,2.3986,0.0,0.0,0.0,2.0676,2.022,2.0137,2.025,1.9857,1.9708,1.9708,1.9708,1.9708,1.9708,0.0,0.0,0.0,0.0,0.0,0.0,0.0,0.0,0.0,0.0,0.0,0.0,0.0,0.0,0.0,0.0,0.0,0.0,0.0,0.0,0.0,0.0,0.0,2.9643,2.9539,2.966,2.9348,2.8618,2.9056,2.8937,2.8348,2.8954,2.973,3.061,3.124,3.1509,0.0,0.0,3.1449,3.2199,3.1291,0.0,0.0,0.0,0.0,0.0,0.0,0.0,0.0,2.9778,3.0021,3.0644,3.0644,0.0,0.0,0.0,0.0,0.0,3.3043,3.4054,3.4803,3.3553,3.4058,3.4742,3.4327,3.4279,3.43,3.4215,3.519,3.6091,3.6252,3.7512,3.8795,3.959,4.0141,0.0,3.9233,3.9075,3.8516,3.7027,3.6283,0.0,0.0,0.0,0.0,0.0,0.0,2.8066,2.7504,2.6893,2.6519,2.6435,2.6435,2.6402,2.6353,2.625,2.6076,2.586,2.5622,2.5112,2.4322,2.4322,2.3576,0.0,0.0,0.0,2.0664,2.0483,2.0227,1.9975,1.9889,1.9869,1.9869,1.9869,1.9818,1.9764,0.0,0.0,0.0,0.0,0.0,0.0,0.0,0.0,0.0,0.0,0.0,0.0,0.0,0.0,0.0,0.0,0.0,0.0,0.0,0.0,0.0,2.9159,2.9819,2.9916,2.9282,2.9863,2.983,2.9093,2.8178,2.7676,2.7559,2.7639,2.8352,2.9635,3.0366,3.0679,3.0679,3.0593,3.0659,3.0804,3.0643,0.0,0.0,0.0,0.0,0.0,0.0,0.0,0.0,3.0387,3.0547,3.1259,3.1342,0.0,0.0,0.0,0.0,0.0,3.3653,3.557,3.6819,3.4449,3.5625,3.6983,3.5584,3.5543,3.5811,3.5972,3.5933,3.6117,3.6958,3.7998,3.8808,3.8952,0.0,4.1463,0.0,0.0,4.042,3.8202,0.0,0.0,0.0,0.0,0.0,0.0,0.0,2.796,2.6202,2.5996,2.5697,2.5193,2.5178,2.5073,2.4829,2.5999,2.5982,2.4751,2.5327,2.5029,2.3984,2.3984,2.3358,0.0,0.0,2.1794,2.1023,2.0926,2.0829,2.073,2.0663,2.0629,2.0629,2.0629,2.0427,2.007,0.0,0.0,0.0,0.0,0.0,0.0,0.0,0.0,0.0,0.0,0.0,0.0,0.0,0.0,0.0,0.0,0.0,0.0,0.0,0.0,0.0,2.9097,2.9459,2.942,2.8932,2.9247,2.9034,2.8171,2.8033,2.7736,2.7354,2.8078,2.8986,3.0026,3.077,3.1085,3.1085,3.1085,3.1085,3.1068,0.0,0.0,0.0,0.0,0.0,0.0,0.0,0.0,0.0,0.0,2.9567,3.064,3.0215,0.0,0.0,0.0,0.0,0.0,3.3049,3.5012,3.6667,3.5314,3.7325,3.9277,3.8004,3.7777,3.7803,3.7718,3.7781,3.8074,3.879,3.9619,4.0376,4.0939,0.0,4.1413,4.1071,4.0311,3.9097,0.0,0.0,0.0,0.0,0.0,0.0,0.0,0.0,0.0,2.6163,2.5579,2.5139,2.4922,2.489,2.4587,2.3915,2.4982,2.5168,2.4491,2.4846,2.4516,2.3622,2.3622,2.3144,2.231,0.0,2.1988,2.1477,2.1385,2.1197,2.0991,2.0893,2.086,2.0844,2.0811,2.0679,2.0496,0.0,0.0,0.0,0.0,0.0,0.0,0.0,0.0,0.0,0.0,0.0,0.0,0.0,0.0,0.0,0.0,0.0,0.0,0.0,0.0,2.8482,2.8654,2.8498,2.8376,2.8292,2.8458,2.8049,2.7003,2.7741,2.7827,2.7339,2.8469,2.9353,3.0007,3.0888,3.1155,3.0947,3.1298,3.1282,3.0986,0.0,0.0,0.0,0.0,0.0,0.0,0.0,0.0,0.0,0.0,0.0,0.0,0.0,0.0,0.0,3.1194,3.1633,3.216,3.2353,3.4111,3.5951,3.6044,3.8343,4.0446,4.0037,3.9557,3.9219,3.9381,3.9553,3.971,3.9732,4.0382,4.1231,4.2175,4.1995,4.1288,4.0111,3.8934,3.7667,0.0,0.0,0.0,0.0,0.0,0.0,0.0,0.0,0.0,2.5789,2.5007,2.4563,2.4566,2.4566,2.4182,2.3337,2.3828,2.4058,2.4,2.4152,2.3864,2.3139,2.3139,2.2835,2.2296,2.2296,2.2152,2.1901,2.1796,2.1583,2.1337,2.1213,2.115,2.1119,2.0958,2.0909,2.0909,0.0,0.0,0.0,0.0,0.0,0.0,0.0,0.0,0.0,0.0,0.0,0.0,0.0,0.0,0.0,0.0,0.0,0.0,0.0,0.0,2.6698,2.7316,2.6742,2.6628,2.7104,2.7787,2.746,2.6104,2.6824,2.7269,2.7407,2.768,2.8015,2.8407,2.9779,2.9832,2.8998,3.0369,3.0348,2.9396,2.9722,0.0,0.0,0.0,0.0,0.0,0.0,0.0,0.0,0.0,0.0,0.0,0.0,0.0,3.1194,3.1194,3.123,3.144,3.2195,3.3723,3.5385,3.6608,3.7955,3.9326,4.0679,3.9877,3.9274,4.0881,4.0551,3.958,3.8313,3.8868,3.9786,4.0546,4.1252,4.165,4.1542,0.0,0.0,0.0,0.0,0.0,0.0,0.0,0.0,0.0,0.0,0.0,2.4147,2.3907,0.0,2.3607,2.3607,2.3454,2.3117,2.2937,2.2709,2.2465,2.3139,2.3088,2.2381,2.2381,2.2347,2.2296,2.2296,2.2282,2.2268,2.2183,2.214,2.2111,2.1972,2.1882,2.1779,2.1402,2.1262,2.1214,0.0,0.0,0.0,0.0,0.0,0.0,0.0,0.0,0.0,0.0,0.0,0.0,0.0,0.0,0.0,0.0,0.0,0.0,0.0,2.5938,2.6503,2.7178,2.6562,2.6104,2.5894,2.6029,2.5796,2.5136,2.5403,2.623,2.7532,2.7851,2.8525,2.9482,3.0513,3.0632,3.0087,3.0389,3.041,3.0245,3.0114,3.0124,0.0,0.0,0.0,0.0,0.0,0.0,0.0,0.0,2.8643,2.9772,2.9772,3.0106,3.0527,3.0527,3.0843,3.1281,3.1563,3.353,3.5607,3.6129,3.7509,3.9126,4.0593,4.0857,4.1047,4.1957,4.2245,4.1779,3.9878,4.0239,4.0619,3.993,4.0075,4.0093,3.9586,0.0,0.0,0.0,0.0,0.0,0.0,0.0,0.0,0.0,0.0,0.0,0.0,2.3797,0.0,2.3515,2.3504,2.3371,2.3091,2.2998,2.2897,2.2812,2.2733,2.2567,2.2296,2.2296,2.2296,2.2296,2.2296,2.2296,2.2296,2.2268,2.2254,2.2254,2.2166,2.2032,2.1868,2.1736,2.1646,2.1602,0.0,0.0,0.0,0.0,0.0,0.0,0.0,0.0,0.0,0.0,0.0,0.0,0.0,0.0,0.0,0.0,0.0,0.0,2.4683,2.536,2.6069,2.674,2.6128,2.557,2.5062,2.435,2.4051,2.4194,2.4152,2.5066,2.6853,2.7039,2.7914,2.9375,3.002,3.0164,2.9957,2.9934,3.0003,3.0126,2.9932,2.9908,0.0,0.0,0.0,0.0,0.0,0.0,0.0,0.0,2.8698,2.9632,2.9632,2.9843,3.0106,3.0106,3.084,3.1715,3.1979,3.404,3.6236,3.6751,3.7756,3.9067,4.0765,4.1346,4.1835,4.2964,4.2624,4.174,4.0471,4.034,0.0,0.0,3.9207,3.9008,0.0,0.0,0.0,0.0,0.0,0.0,0.0,0.0,0.0,0.0,0.0,0.0,0.0,2.3804,0.0,0.0,2.3598,2.352,2.3312,2.3259,2.323,2.323,2.2773,2.2511,2.2419,2.2338,2.2296,2.2296,2.2296,2.2296,2.2296,2.2296,2.2296,2.2296,2.2228,2.2109,2.1988,2.1928,2.1869,2.1825,0.0,0.0,0.0,0.0,0.0,0.0,0.0,0.0,0.0,0.0,0.0,0.0,0.0,0.0,0.0,0.0,0.0,0.0,2.3847,2.4447,2.5085,2.5749,2.5236,2.4878,2.481,2.2991,2.244,2.3282,2.3157,2.3822,2.5205,2.495,2.5786,2.7496,2.778,2.7898,2.7932,2.8764,2.8858,2.8535,2.8943,2.9259,2.9515,0.0,0.0,0.0,0.0,0.0,0.0,0.0,3.058,3.1177,3.1193,3.0703,3.0124,3.0124,3.1341,3.2883,3.3682,3.5321,3.7186,3.8792,3.8814,3.9047,4.1371,4.1196,4.127,4.3944,4.1328,3.8771,3.9554,3.8566,0.0,3.8744,3.8826,3.87,0.0,0.0,0.0,0.0,0.0,0.0,0.0,0.0,0.0,0.0,0.0,0.0,0.0,0.0,0.0,0.0,2.3806,2.3806,2.3806,2.3598,2.3504,2.3504,2.3242,2.296,2.2699,2.2432,2.231,2.231,2.231,2.231,2.231,2.231,2.2296,2.2296,2.2228,2.22,2.2168,2.1957,2.1913,2.1882,0.0,0.0,0.0,0.0,0.0,0.0,0.0,0.0,0.0,0.0,0.0,0.0,0.0,0.0,0.0,0.0,0.0,0.0,2.3249,2.3423,2.3879,2.4837,2.4881,2.4878,2.481,2.4259,2.3449,2.2374,2.276,2.3797,2.5353,2.6068,2.6783,2.745,2.8059,2.7953,2.7382,2.7773,2.8068,2.829,2.9076,2.9441,2.9515,0.0,0.0,0.0,0.0,0.0,0.0,0.0,0.0,0.0,3.0246,3.1019,3.151,3.0531,3.2182,3.4178,3.3629,3.5463,3.7745,3.8449,3.9449,4.06,4.206,4.2026,4.2112,4.3621,4.2531,4.1038,4.0148,3.9626,0.0,3.7377,3.7119,0.0,0.0,0.0,0.0,0.0,0.0,0.0,0.0,0.0,0.0,0.0,0.0,0.0,0.0,0.0,0.0,0.0,2.3806,2.3806,2.3806,2.3732,2.37,2.37,2.3497,2.3242,2.2985,2.2897,2.2859,2.2859,2.2859,2.2859,2.2846,2.2659,2.2474,2.2296,2.2282,2.2225,2.2183,2.203,2.1609,2.1121,0.0,0.0,0.0,0.0,0.0,0.0,0.0,0.0,0.0,0.0,0.0,0.0,0.0,0.0,0.0,0.0,0.0,0.0,0.0,2.2797,2.3189,2.3695,2.4375,2.465,2.4447,2.4679,2.4128,2.2744,2.3257,2.4227,2.5646,2.6334,2.688,2.729,2.7596,2.7484,2.7093,2.6955,2.7359,2.8148,2.8717,2.9096,2.9373,0.0,0.0,0.0,0.0,0.0,0.0,0.0,0.0,0.0,3.0475,3.1226,3.1942,3.142,3.3192,3.5422,3.5693,3.7528,3.9582,4.0449,4.1286,4.1994,4.2288,4.2406,4.2625,4.3125,4.2152,4.0896,3.9911,3.9458,0.0,3.7236,0.0,0.0,0.0,0.0,0.0,0.0,0.0,0.0,0.0,0.0,0.0,0.0,0.0,0.0,0.0,0.0,0.0,0.0,2.3806,2.3806,2.3806,2.3806,2.3806,2.3795,2.3685,2.3524,2.3359,2.3188,2.3091,2.3091,2.3091,2.3047,2.2922,2.2777,2.2542,2.2296,2.2296,2.2099,2.1801,2.165,2.1281,2.0797,0.0,0.0,0.0,0.0,0.0,0.0,0.0,0.0,0.0,0.0,2.0409,0.0,0.0,0.0,0.0,0.0,0.0,0.0,0.0,0.0,2.2794,2.2476,2.3833,2.4435,2.4143,2.4694,2.4708,2.4152,2.4349,2.4978,2.5994,2.5994,2.6363,2.6983,2.6626,2.6617,2.6878,2.6261,2.6783,2.8,2.8063,2.8505,2.9121,2.9357,0.0,0.0,0.0,0.0,0.0,0.0,0.0,0.0,3.151,3.159,3.2053,3.2669,3.4445,3.6711,3.8889,4.0456,4.1897,4.3599,4.3722,4.3163,4.2211,4.2366,4.2631,4.231,4.0707,3.9341,3.9248,3.8465,3.783,0.0,0.0,0.0,0.0,0.0,0.0,0.0,0.0,0.0,0.0,0.0,0.0,0.0,0.0,0.0,0.0,0.0,0.0,2.3806,2.3806,2.3806,2.3806,2.3806,2.3806,0.0,2.3806,2.3806,2.3785,2.3365,2.3164,2.3164,2.3164,2.3022,2.2777,2.2777,2.2571,2.2265,2.2318,2.1844,2.1132,2.1154,2.0958,2.0612,0.0,0.0,0.0,0.0,0.0,0.0,0.0,0.0,0.0,0.0,0.0,0.0,0.0,0.0,0.0,0.0,0.0,0.0,0.0,0.0,2.1789,2.2177,2.4128,2.5395,2.5787,2.6168,2.63,2.6195,2.5174,2.5145,2.5994,2.5994,2.6063,2.6225,2.6146,2.5868,2.5476,2.5835,2.6514,2.7367,2.7889,2.8505,2.9098,2.9167,2.9335,0.0,0.0,0.0,0.0,0.0,0.0,0.0,3.2002,3.3512,3.496,3.4239,3.6206,3.8747,3.9209,3.9979,4.1097,4.2997,4.3854,4.3844,4.2342,4.1622,4.1063,4.0368,4.0515,4.0503,3.9683,3.8291,3.7258,0.0,0.0,0.0,0.0,0.0,0.0,0.0,0.0,0.0,0.0,0.0,0.0,0.0,0.0,0.0,0.0,0.0,0.0,2.3806,2.3806,2.3806,2.3806,2.3806,2.3806,0.0,2.3806,2.3806,2.3795,2.37,2.3657,2.3657,2.3657,2.3524,2.3342,2.3342,2.2793,2.2029,2.2444,2.1782,2.0705,2.1832,2.0981,1.9311,0.0,0.0,0.0,0.0,0.0,0.0,0.0,0.0,0.0,0.0,0.0,0.0,0.0,0.0,0.0,0.0,0.0,0.0,0.0,0.0,2.1567,2.2814,2.4253,2.5367,2.6109,2.6406,2.6566,2.6566,2.621,2.6183,2.6441,2.6826,2.6829,2.653,2.653,2.6135,2.5507,2.5851,2.6435,2.7162,2.7826,2.8505,2.9098,2.9098,2.9282,2.9589,3.027,0.0,0.0,0.0,0.0,0.0,0.0,0.0,3.4618,3.4889,3.6427,3.8279,3.95,4.048,4.1603,4.3417,4.3895,4.3595,4.2286,4.148,4.0572,3.9084,3.9235,3.9366,3.8554,3.835,0.0,0.0,0.0,0.0,0.0,0.0,0.0,0.0,0.0,0.0,0.0,0.0,0.0,0.0,0.0,0.0,0.0,2.4238,2.4143,2.4047,2.3978,2.3937,2.3937,2.3855,2.3806,2.3806,2.3806,2.3806,2.3806,2.3806,2.3806,2.3806,2.3806,2.3469,2.2928,2.2928,2.228,2.14,2.2066,2.1607,2.0732,2.1838,2.115,1.9611,0.0,0.0,0.0,0.0,0.0,0.0,0.0,0.0,0.0,0.0,0.0,0.0,0.0,0.0,0.0,0.0,0.0,0.0,0.0,0.0,0.0,2.3434,2.4308,2.5036,2.5671,2.604,2.6213,2.6152,2.7004,2.735,2.7267,2.7782,2.7665,2.7099,2.7099,2.6688,2.6009,2.6151,2.6572,2.7251,2.7804,2.8451,2.9098,2.9098,2.9236,2.9506,3.0001,3.059,3.1252,3.209,0.0,0.0,0.0,0.0,3.3166,3.5008,3.6204,3.7428,3.9657,4.1103,4.2323,4.3712,4.3651,4.2932,4.1837,4.1456,4.0599,3.7926,3.7818,3.7879,3.6858,3.738,0.0,0.0,0.0,0.0,0.0,0.0,0.0,0.0,0.0,0.0,0.0,0.0,0.0,0.0,0.0,0.0,2.452,2.4382,2.4348,2.4321,2.4181,2.4094,2.4094,2.3907,2.3806,2.3806,2.3806,2.3806,2.3806,2.3806,2.3806,2.3777,2.3668,2.3148,2.2354,2.2211,2.1647,2.091,2.1679,2.1515,2.0932,2.1701,2.1266,2.0217,0.0,0.0,0.0,0.0,0.0,0.0,0.0,0.0,0.0,0.0,1.7506,0.0,0.0,0.0,0.0,0.0,0.0,0.0,1.8847,0.0,0.0,2.2724,2.4436,2.5177,2.4787,2.5531,2.58,2.5509,2.6842,2.7911,2.8698,2.7944,2.7404,2.7099,2.7099,2.6688,2.604,2.6688,2.7214,2.7636,2.7715,2.8273,2.9098,2.9098,2.9121,2.9234,2.9817,3.0549,3.1371,3.1999,3.2301,0.0,0.0,0.0,3.2825,3.4715,3.6916,3.8883,3.9517,4.0827,4.2061,4.2286,4.265,4.2415,4.038,4.0938,4.0628,0.0,3.7468,3.8465,3.5486,0.0,0.0,0.0,0.0,0.0,0.0,0.0,0.0,0.0,0.0,0.0,0.0,0.0,0.0,0.0,2.6756,0.0,2.4804,2.4628,2.451,2.4399,2.421,2.4094,2.4094,2.3907,2.3806,2.3806,2.3806,2.3806,2.3806,2.3806,2.3806,2.3759,2.3125,2.2769,2.2586,2.1899,2.1519,2.1452,2.2018,2.175,2.1169,2.1946,2.1152,1.9632,0.0,0.0,0.0,0.0,0.0,0.0,0.0,0.0,0.0,0.0,0.0,1.7534,0.0,0.0,0.0,1.8414,1.8441,1.859,1.8951,2.0312,2.1565,2.255,2.3622,2.4258,2.4313,2.4566,2.4817,2.5176,2.6026,2.7094,2.8379,2.8015,2.8173,2.879,2.8,2.7409,2.6965,2.7302,2.7425,2.7424,2.8187,2.8744,2.9098,2.9098,2.9098,2.9205,3.0002,3.0459,3.0841,3.1859,3.2284,3.2388,3.2389,0.0,0.0,0.0,3.567,3.7936,3.9251,4.0108,4.0866,4.1776,4.2203,4.2139,4.1177,4.0168,3.8864,3.6879,3.6162,3.5138,3.2597,0.0,0.0,0.0,0.0,0.0,0.0,0.0,0.0,0.0,0.0,0.0,0.0,0.0,0.0,0.0,2.6835,2.588,2.4907,2.4768,2.4681,2.4559,2.4409,2.4294,2.4201,2.4056,2.3907,2.3806,2.3806,2.3806,2.3806,2.3806,2.3806,2.3759,2.3006,2.2699,2.2644,2.183,2.1514,2.1567,2.2262,2.2314,2.208,2.2826,2.2239,2.1061,0.0,0.0,0.0,0.0,0.0,0.0,0.0,0.0,0.0,0.0,0.0,0.0,0.0,0.0,0.0,0.0,1.7601,1.7947,1.8762,1.9929,2.1032,2.2073,2.2817,2.335,2.3635,2.3587,2.3873,2.4528,2.5355,2.6498,2.7923,2.8225,2.9011,3.0157,2.89,2.8144,2.7816,2.7967,2.789,2.7706,2.8698,2.9098,2.913,2.95,2.9397,2.9307,3.0815,3.0962,3.0607,3.1802,3.2301,3.2389,3.2406,3.2403,0.0,0.0,0.0,3.7536,3.8665,3.9288,3.9903,4.1134,4.1165,4.094,4.1077,3.8937,3.6965,0.0,3.4832,3.2403,3.1137,0.0,0.0,0.0,0.0,0.0,0.0,0.0,0.0,0.0,0.0,0.0,0.0,0.0,0.0,0.0,2.6657,2.5717,2.4999,2.4886,2.4801,2.4749,2.4594,2.4435,2.4294,2.4114,2.3937,2.3806,2.3806,2.3806,2.3806,2.3806,2.3806,2.3751,2.2799,2.2518,2.2626,2.1613,2.1441,2.1866,2.2463,2.2797,2.3002,2.3289,2.2919,2.2184,0.0,0.0,0.0,0.0,0.0,0.0,0.0,0.0,0.0,0.0,0.0,0.0,1.7306,1.7306,1.7306,1.7306,1.7334,1.7445,1.7767,1.9311,2.0401,2.0786,2.2353,0.0,2.2414,2.2943,2.3214,2.3196,2.5194,2.6802,2.8012,2.8709,2.9469,3.0172,2.9382,2.8688,2.8126,2.8751,2.9012,2.8996,2.9082,2.9098,2.9248,3.0577,3.0259,2.9497,3.2541,3.2536,3.1167,3.1945,3.2298,3.2389,3.2406,3.2389,3.2685,0.0,0.0,0.0,3.7622,3.8383,3.9646,3.9856,3.8907,3.8061,3.8576,0.0,3.5612,3.5695,3.3857,3.2361,0.0,0.0,0.0,0.0,0.0,0.0,0.0,0.0,0.0,0.0,0.0,0.0,0.0,0.0,0.0,0.0,2.6173,2.5243,2.518,2.4993,2.4895,2.4895,2.4639,2.4435,2.4294,2.3988,2.3806,2.3806,2.3806,2.3806,2.3806,2.3806,2.3806,2.3733,2.222,2.1993,2.2572,2.1006,2.126,2.2644,2.2681,2.31,2.3556,2.2833,2.2361,2.2014,0.0,0.0,0.0,0.0,0.0,0.0,0.0,0.0,0.0,0.0,0.0,0.0,0.0,1.7306,1.7306,1.7306,1.7306,1.7407,1.7684,1.8499,1.9667,2.1214,2.1732,2.2445,2.3432,2.2903,2.2905,2.349,2.4032,2.5019,2.6458,2.691,2.7731,2.8876,2.9019,2.9303,2.9618,2.9248,2.9619,3.0361,2.9461,2.9635,3.0417,2.9998,3.0283,3.1071,3.2431,3.2995,3.3073,3.3051,3.2749,3.2406,3.2406,3.2398,3.2691,3.4174,3.5442,3.6261,3.5668,3.6125,3.6853,3.7166,3.7571,3.7682,3.6928,3.6149,3.5605,3.5701,3.4151,3.2866,0.0,0.0,0.0,0.0,0.0,0.0,0.0,0.0,0.0,0.0,0.0,0.0,0.0,0.0,0.0,0.0,0.0,0.0,2.5006,2.4935,2.4861,2.4779,2.4673,2.4512,2.4294,2.4095,2.3927,2.3806,2.3806,2.3806,2.3806,2.3806,2.3806,2.3741,2.2727,2.2699,2.3324,2.2264,2.2455,2.3405,2.336,2.3498,2.3642,2.3178,2.2946,2.2811,0.0,0.0,0.0,0.0,0.0,0.0,0.0,0.0,0.0,1.7328,0.0,0.0,0.0,0.0,1.7306,1.7306,1.7306,1.7428,1.779,1.8483,1.9643,2.1309,2.1701,2.2498,2.3784,2.2795,2.2661,2.3352,2.3484,2.4126,2.528,2.601,2.6988,2.811,2.8568,2.9239,2.9982,2.9358,2.9777,3.0765,2.9572,3.0077,3.1476,3.0528,3.1082,3.2458,3.2971,3.34,3.3671,3.3466,3.2923,3.2336,3.2388,3.2568,3.3008,3.4242,3.4204,3.3883,3.4446,3.5301,3.6061,3.6156,3.7018,3.7456,3.606,3.5465,3.5176,3.4996,3.3765,3.2751,0.0,0.0,0.0,0.0,0.0,0.0,0.0,0.0,0.0,0.0,0.0,0.0,0.0,0.0,0.0,0.0,0.0,0.0,2.5019,2.4929,2.4832,2.4707,2.4668,2.4539,2.4294,2.4171,2.3996,2.3806,2.3806,2.3806,2.3806,2.3806,2.3806,2.3759,2.3288,2.3343,2.3741,2.2988,2.3143,2.3785,2.3725,2.3667,2.36,2.3383,2.3265,2.3217,0.0,0.0,0.0,0.0,0.0,0.0,0.0,0.0,1.7835,1.7394,0.0,0.0,0.0,0.0,0.0,1.735,1.735,1.7547,1.8028,1.9256,2.0318,2.101,2.2333,2.3084,2.3296,2.2698,2.2513,2.2774,2.3762,2.4342,2.462,2.628,2.7431,2.8063,2.8063,2.8458,2.9098,2.9098,2.9564,3.022,2.9453,3.0433,3.2339,3.2291,3.2703,3.3435,3.4333,3.3832,3.2839,3.3156,3.284,3.2319,3.2406,3.293,3.362,3.434,3.3384,3.247,0.0,0.0,0.0,3.6918,3.7089,3.7075,3.5843,0.0,3.4249,3.3487,3.2609,3.2007,0.0,0.0,0.0,0.0,0.0,0.0,0.0,0.0,0.0,0.0,0.0,0.0,0.0,0.0,0.0,0.0,0.0,2.6045,2.5243,2.5019,2.4832,2.4707,2.4569,2.4435,2.4294,2.4181,2.4016,2.3806,2.3806,2.3806,2.3816,2.3806,2.3806,2.3806,2.3806,2.3795,2.3741,2.3025,2.3151,2.3785,2.3714,2.3611,2.3482,2.3336,2.3217,2.3107,0.0,0.0,0.0,0.0,0.0,0.0,1.837,1.813,1.7955,0.0,0.0,0.0,1.735,1.7595,1.7933,1.8272,1.8294,1.8574,1.9197,1.9593,2.0555,2.2239,2.3085,2.4002,2.5126,2.4557,2.4286,2.4368,2.4704,2.4655,2.4266,2.566,2.6688,2.7383,2.7383,2.8031,2.9098,2.9098,3.0377,3.2282,3.0575,3.1428,3.3561,3.2076,3.2488,3.3804,3.3353,3.3896,3.4876,0.0,3.4793,3.4558,3.3529,3.3129,3.3039,3.2949,3.2779,3.2627,3.2756,0.0,0.0,0.0,0.0,0.0,0.0,0.0,3.372,3.4089,3.3002,3.2007,0.0,0.0,0.0,0.0,0.0,0.0,0.0,0.0,0.0,0.0,0.0,0.0,0.0,0.0,0.0,0.0,2.6899,2.6021,2.5171,2.4933,2.4787,2.4707,2.465,2.4528,2.4294,2.4366,2.4257,2.4016,2.4016,2.4075,2.4144,2.3909,2.3886,2.4006,2.3847,2.3771,2.3718,2.3565,2.359,2.3714,2.36,2.3464,2.3336,2.3205,2.3132,2.3107,0.0,0.0,0.0,0.0,0.0,1.9529,1.9069,1.8763,1.8523,0.0,0.0,0.0,1.7919,1.8305,1.8622,1.8676,1.8947,1.9373,1.9966,2.0511,2.153,2.3068,2.3748,2.4657,2.5873,2.5059,2.4761,2.5005,2.5059,2.4893,2.4549,2.5849,2.6846,2.7525,2.7525,2.811,2.9098,2.9098,3.0377,3.2297,3.0805,3.1849,3.413,3.2645,3.3265,0.0,0.0,0.0,3.562,3.48,3.4657,0.0,0.0,3.2709,3.275,3.1982,3.1782,3.1834,3.204,3.2883,3.3603,3.3209,0.0,0.0,3.3928,3.3171,3.2629,0.0,3.2053,3.1429,0.0,0.0,0.0,0.0,0.0,0.0,0.0,0.0,0.0,0.0,0.0,0.0,0.0,2.9813,2.9123,2.8275,2.7733,2.6893,2.5633,2.5073,2.4764,2.4707,2.47,2.4604,2.4393,2.4461,2.4392,2.419,2.419,2.421,2.4284,2.4037,2.3996,2.4084,2.3863,2.3736,2.37,2.3682,2.3649,2.36,2.3464,2.336,2.3289,2.3156,2.3107,2.3107,0.0,0.0,1.9573,2.0172,2.0227,2.0031,1.954,1.942,1.9286,0.0,1.883,1.8832,1.8936,1.9222,1.931,1.9037,1.952,2.0107,2.0615,2.1809,2.2832,2.3669,2.4342,2.5097,2.5982,2.4964,2.4651,2.5208,2.5346,2.5349,2.5226,2.6576,2.7525,2.8094,2.8094,2.8474,2.9098,2.9098,2.9896,3.1123,3.0608,3.1978,0.0,0.0,3.445,3.5717,3.4856,3.4991,3.5378,3.3867,3.3401,0.0,0.0,0.0,0.0,0.0,3.0748,3.0665,3.1568,3.258,3.3391,3.3406,3.4083,0.0,3.3083,3.2109,3.1297,0.0,3.0574,3.0613,3.0613,0.0,0.0,0.0,0.0,0.0,0.0,0.0,0.0,0.0,0.0,0.0,3.0413,3.0344,2.9915,2.8981,2.8713,2.7915,2.628,2.5317,2.4764,2.4707,2.47,2.4645,2.4503,2.4512,2.4452,2.4321,2.4321,2.433,2.4339,2.42,2.4123,2.4103,2.385,2.3711,2.3667,2.3522,2.3482,2.3471,2.3348,2.3289,2.3265,2.3126,2.3107,2.3107,0.0,1.9201,1.978,2.1079,2.0981,2.0555,2.0042,1.9638,1.9563,2.0026,1.9741,1.9746,2.0402,1.9823,1.9856,2.0926,2.09,2.1264,2.2285,2.272,2.3403,2.4363,2.4944,2.5684,2.6603,2.6386,2.6318,2.644,2.7108,2.6883,2.5864,2.7241,2.7968,2.8094,2.8094,2.8474,2.9098,2.9098,2.9805,3.0937,3.1435,3.2718,3.4317,3.4437,3.4364,3.4105,3.3712,3.3943,3.4398,3.4241,3.3837,3.3369,0.0,0.0,0.0,3.1239,0.0,0.0,0.0,0.0,0.0,0.0,0.0,0.0,3.261,3.164,3.0795,0.0,3.1035,3.0676,3.0676,0.0,0.0,0.0,0.0,0.0,0.0,0.0,0.0,0.0,0.0,0.0,3.0413,3.0344,2.9915,2.8981,2.7604,2.6623,2.6223,2.5317,2.4764,2.4707,2.47,2.4645,2.4503,2.4602,2.4586,2.4461,2.4461,2.4512,2.4602,2.4375,2.4247,2.4257,2.3986,2.3736,2.3539,2.3383,2.3336,2.3336,2.3313,2.3241,2.3144,2.3119,2.3107,2.3107,1.8375,1.9286,2.0129,2.1374,2.1419,2.1144,2.0904,2.072,2.0741,2.1144,2.1744,2.2078,2.1968,2.1629,2.1631,2.226,2.236,2.2682,2.3352,2.4066,2.4624,2.4973,2.5252,2.5694,2.6348,2.6362,2.6362,2.6362,2.7452,2.7486,2.6577,2.7953,2.8616,2.8616,2.8616,2.8783,2.9098,2.9098,2.9756,3.0849,3.1244,0.0,3.3412,3.3583,3.3582,3.3478,3.3347,3.3427,3.3623,3.3758,3.3609,0.0,3.2985,3.2652,3.2174,0.0,3.0527,3.0194,0.0,0.0,0.0,3.1016,0.0,0.0,0.0,3.0944,3.0259,3.0797,3.0695,3.0515,3.0537,0.0,3.0982,0.0,0.0,0.0,0.0,0.0,0.0,0.0,0.0,0.0,3.0367,3.0315,3.0094,2.96,2.7913,2.6878,2.6849,2.5514,2.4719,2.4707,2.47,2.4676,2.4594,2.4676,2.4676,2.4594,2.4594,2.4626,2.4692,2.4428,2.4266,2.4182,2.3845,2.3631,2.3531,2.3295,2.3342,2.352,2.3283,2.3168,2.3107,2.3107,2.3107,2.3107,1.8058,1.9092,2.0194,2.1385,2.1551,2.1483,2.1581,2.1823,2.2062,2.2304,2.3592,2.4186,2.3401,2.3423,2.3475,2.3448,2.3732,2.4014,2.428,2.5259,2.5757,2.5585,2.5602,2.5834,2.624,2.6131,2.6161,2.6328,2.7464,2.7774,2.7384,2.8549,2.9098,2.9098,2.9098,2.9247,2.945,2.945,3.0073,3.1087,0.0,3.1659,3.2513,3.2729,3.2923,3.3081,3.3029,3.2943,3.2864,3.2922,3.3014,3.3,3.2389,3.2267,0.0,0.0,0.0,0.0,0.0,0.0,0.0,0.0,0.0,3.0678,0.0,0.0,0.0,3.0038,3.0182,0.0,0.0,0.0,0.0,0.0,0.0,0.0,0.0,0.0,0.0,0.0,0.0,0.0,0.0,3.04,3.026,3.0199,2.8512,2.7494,2.7494,2.5729,2.47,2.47,2.47,2.47,2.47,2.47,2.47,2.47,2.47,2.47,2.4692,2.4471,2.4312,2.4145,2.3757,2.3627,2.3649,2.3313,2.3429,2.3764,2.3336,2.3199,2.323,2.323,2.3211,2.3193,1.896,1.9038,1.943,2.1275,2.1266,2.1124,2.1527,2.2161,2.2839,2.3526,2.3853,2.4169,2.4377,2.4023,2.4109,2.4963,2.4809,2.4876,2.5314,2.578,2.6127,2.6201,2.6381,2.6789,2.7488,2.6955,2.7094,2.7933,2.7993,2.8116,2.8342,2.8854,2.9098,2.9098,2.9098,2.9692,3.0694,3.0694,3.1254,0.0,3.213,3.2264,0.0,3.356,3.327,3.229,3.2074,3.1952,3.1958,0.0,3.2069,3.2088,0.0,3.2214,3.2003,3.0843,0.0,0.0,0.0,0.0,0.0,0.0,2.9795,0.0,0.0,0.0,2.9888,2.9912,0.0,0.0,0.0,0.0,0.0,0.0,0.0,0.0,0.0,0.0,0.0,0.0,0.0,0.0,0.0,3.0721,3.0206,3.0211,2.8512,2.7494,2.7494,2.5729,2.47,2.47,2.47,2.47,2.47,2.47,2.47,2.47,2.47,2.47,2.47,2.4674,2.4547,2.4346,2.3999,2.3886,2.3917,2.3587,2.3598,2.3774,2.3542,2.3565,2.3721,2.3721,2.362,2.3458,1.8537,1.9102,1.9942,2.1263,2.2071,2.2616,2.2937,2.4068,2.496,2.5109,2.6381,2.7067,2.6514,2.6194,2.6002,2.594,2.6227,2.6574,0.0,2.7774,2.8219,2.7983,2.7731,2.7629,2.7718,2.7461,2.7577,2.807,2.8379,2.8622,2.8844,2.9005,2.9098,2.913,2.9711,3.0353,3.1043,3.1608,3.2297,0.0,0.0,0.0,0.0,3.2769,3.2427,3.195,3.1848,3.18,3.18,0.0,3.1929,0.0,0.0,0.0,0.0,2.9967,0.0,0.0,0.0,0.0,0.0,0.0,0.0,0.0,2.9636,0.0,2.9787,0.0,0.0,0.0,0.0,0.0,0.0,0.0,3.0605,0.0,0.0,0.0,0.0,0.0,0.0,0.0,0.0,0.0,0.0,0.0,2.8239,2.7285,2.6766,2.5917,2.5214,2.4718,2.5196,2.5214,2.47,2.47,2.47,2.47,2.47,2.4692,2.4706,2.458,2.4444,2.4266,2.4057,2.3998,2.4047,2.3774,2.3878,2.4173,2.3939,2.3827,2.3806,2.3806,2.3742,2.3664,1.8624,1.9398,2.0501,2.18,2.296,2.4014,2.489,2.594,2.6768,2.7109,2.8491,2.908,2.8219,2.803,2.7687,2.6913,2.7545,2.8049,0.0,0.0,2.9797,2.947,2.906,2.866,2.8207,2.803,2.8171,2.8625,2.865,2.9024,2.9766,2.9327,2.9209,2.9437,3.0155,3.0884,3.1665,3.2513,3.3352,3.4062,3.3254,3.284,3.2617,3.2008,3.18,3.18,3.18,3.18,3.1765,3.1558,3.1598,0.0,3.082,0.0,0.0,0.0,0.0,0.0,2.8362,0.0,0.0,0.0,0.0,0.0,0.0,0.0,0.0,0.0,0.0,0.0,0.0,0.0,0.0,3.0659,0.0,3.0223,0.0,0.0,0.0,0.0,0.0,0.0,0.0,0.0,0.0,2.9291,2.8156,2.71,2.6226,2.6061,2.5598,2.4718,2.5541,2.5579,2.47,2.47,2.47,2.47,2.47,2.4711,2.4698,2.4528,2.4391,2.4293,2.4106,2.4096,2.4183,2.3979,2.4135,2.4482,2.4294,2.4116,2.3979,2.3979,2.3939,2.3868,2.0053,2.0085,2.0842,2.3202,2.3653,2.4598,2.7281,2.7289,2.766,2.9523,2.9346,2.8992,2.8965,2.8965,0.0,0.0,0.0,2.8945,2.8965,0.0,3.0089,0.0,0.0,3.0052,2.9475,2.8858,2.9125,3.0241,2.8761,2.9244,3.1491,2.9869,2.9485,3.0172,3.0188,3.1189,3.2894,3.3567,3.4474,3.5377,3.4629,3.3447,3.209,0.0,3.18,3.18,3.18,0.0,0.0,3.099,3.0748,0.0,0.0,0.0,0.0,0.0,0.0,0.0,0.0,0.0,0.0,2.8541,0.0,0.0,0.0,0.0,2.9291,0.0,0.0,0.0,0.0,0.0,2.9586,2.8892,2.9412,0.0,0.0,0.0,0.0,0.0,0.0,0.0,0.0,0.0,0.0,3.0129,2.8468,2.7085,2.614,2.6029,2.5598,2.4718,2.5541,2.5579,2.47,2.47,2.47,2.47,2.47,2.47,2.47,2.4639,2.4599,2.4582,2.4238,2.4248,2.4474,2.421,2.4248,2.45,2.4491,2.4491,2.4482,2.4482,2.4321,2.4097,2.1441,2.2049,2.2811,2.3906,2.4862,2.6111,2.7933,2.8554,2.9138,2.9931,3.0207,0.0,0.0,2.9389,2.8886,0.0,0.0,2.9906,3.029,3.1064,0.0,0.0,3.1156,3.0893,0.0,3.0105,3.0246,3.118,3.0327,3.0346,3.1185,3.0249,2.9706,2.9501,3.0171,3.1411,3.3079,0.0,0.0,0.0,0.0,3.3483,3.209,0.0,0.0,3.1914,3.1393,3.1184,0.0,3.0335,3.0092,2.9987,2.9338,2.9174,2.9063,2.8318,2.8105,0.0,0.0,0.0,2.8156,2.8264,0.0,0.0,0.0,0.0,0.0,0.0,0.0,0.0,0.0,0.0,2.8447,2.8771,2.8734,2.8783,0.0,0.0,0.0,0.0,0.0,0.0,0.0,0.0,0.0,2.9243,2.7551,2.6174,2.528,2.572,2.5869,2.5579,2.585,2.5869,2.556,2.4989,2.47,2.47,2.47,2.4711,2.4706,2.4674,2.4615,2.4539,2.4408,2.4428,2.4491,2.4402,2.442,2.45,2.45,2.45,2.45,2.45,2.4437,2.4339,2.2405,2.3491,2.4504,2.4966,2.6404,2.7863,2.8966,2.9793,3.039,0.0,3.1032,0.0,3.0011,0.0,2.9114,0.0,2.9289,3.0146,3.0748,3.1455,0.0,3.2205,3.1816,3.1646,0.0,0.0,0.0,0.0,3.1127,3.0948,3.1058,3.0195,2.9706,2.9516,3.0187,3.1434,3.316,3.4009,3.5155,0.0,0.0,3.3331,0.0,0.0,3.1743,3.1603,0.0,3.0699,3.0334,2.962,2.936,2.9222,2.8553,2.8355,2.8281,2.777,2.7659,2.7657,2.7657,2.7815,0.0,2.7968,2.8116,0.0,2.8402,0.0,0.0,0.0,0.0,0.0,0.0,0.0,2.7791,2.8354,2.811,2.8318,0.0,3.0556,0.0,0.0,0.0,0.0,0.0,0.0,3.0646,2.9193,2.8056,2.6789,0.0,0.0,2.6293,2.6019,2.6,2.6,2.6,2.5139,2.47,2.47,2.47,2.4692,2.4706,2.4674,2.4615,2.452,2.4513,2.4507,2.45,2.45,2.45,2.45,2.45,2.45,2.45,2.45,2.45,2.4455,2.2994,2.4484,2.5933,2.6474,2.817,0.0,0.0,0.0,3.1232,0.0,3.1738,3.1419,2.9698,2.9623,2.9438,2.8687,2.9162,2.9726,3.0323,3.0948,0.0,0.0,3.22,3.2272,3.239,0.0,0.0,0.0,0.0,3.0971,3.1167,2.9793,2.9516,3.0157,3.0157,3.1225,3.3093,3.3716,3.4643,3.5547,3.409,3.302,3.2265,3.1493,3.1025,3.0785,3.0785,3.035,2.9619,2.8818,2.8511,2.8343,2.7707,2.7467,2.7438,2.7481,2.7557,2.7602,2.7602,2.7624,2.7648,2.7648,0.0,0.0,0.0,0.0,2.8196,0.0,0.0,0.0,0.0,0.0,0.0,2.757,2.7629,2.8304,3.0132,0.0,3.1175,0.0,0.0,0.0,3.3658,3.3534,3.2437,3.0033,2.9732,2.8615,0.0,0.0,2.6866,2.6151,2.6038,2.6019,2.6057,2.5196,2.4737,2.47,2.47,2.47,2.47,2.4629,2.4607,2.4607,2.4524,2.4508,2.45,2.45,2.45,2.45,2.45,2.45,2.45,2.45,2.45,2.4455,2.4448,2.6396,2.8099,0.0,2.8866,2.9306,0.0,0.0,0.0,0.0,3.0698,3.0187,2.9556,2.9135,2.8809,2.86,2.9162,0.0,0.0,0.0,0.0,3.1901,3.2208,3.2734,3.3545,3.2976,3.2886,3.3304,0.0,3.1472,3.1033,3.0274,2.9738,2.9367,2.9367,3.0419,3.2211,3.2374,3.3089,3.4073,3.3669,3.2687,0.0,0.0,3.046,2.9413,2.9413,2.9259,2.893,2.8187,2.7897,2.7818,2.7682,2.7644,2.763,2.7642,2.7657,2.7672,2.7672,2.73,2.6879,2.6879,2.6437,2.617,0.0,0.0,0.0,0.0,0.0,0.0,0.0,0.0,0.0,2.6915,2.787,2.9007,3.0235,0.0,0.0,3.2818,0.0,0.0,3.3294,3.1224,3.001,3.0565,2.8911,2.7587,0.0,0.0,0.0,2.7778,2.6631,2.6293,2.6885,2.6086,2.5335,2.47,2.47,2.47,2.47,2.4684,2.4679,2.4666,2.4599,2.4557,2.4505,2.449,2.45,2.45,2.45,2.45,2.45,2.45,2.45,2.4491,2.5601,2.7569,2.939,3.0304,0.0,0.0,2.9859,3.0464,0.0,3.1281,3.0848,0.0,2.9978,2.9146,2.8591,2.8591,2.8673,0.0,2.9344,0.0,0.0,3.1702,3.195,3.2659,3.3883,3.3171,0.0,3.3506,0.0,3.1253,3.0642,3.0006,2.9501,2.9098,2.9098,3.0071,3.1716,3.2209,3.2833,3.3476,3.3143,0.0,0.0,3.0843,2.9966,2.886,2.8509,2.8338,2.8253,2.7827,2.7659,2.7617,2.7644,2.7644,2.7527,2.7195,2.7119,2.7096,2.6745,2.6374,2.616,2.6511,2.6248,2.6139,2.6911,2.7087,2.721,0.0,0.0,0.0,0.0,0.0,0.0,2.6064,2.6991,0.0,0.0,0.0,0.0,0.0,3.0846,0.0,3.2668,3.048,2.9655,3.1287,2.9814,2.8669,0.0,0.0,0.0,2.8388,2.7186,2.6743,2.7204,2.6405,2.556,2.47,2.47,2.47,2.47,2.4703,2.4706,2.4682,2.4607,2.4528,2.4503,2.4498,2.45,2.45,2.45,2.45,2.45,2.45,2.45,2.45,2.6722,2.855,0.0,0.0,0.0,0.0,0.0,3.0694,0.0,3.1658,0.0,3.0932,3.0386,2.9271,2.8581,2.8626,0.0,2.8164,2.9101,2.9231,2.9985,3.16,3.1704,3.2407,3.3878,3.3133,3.2862,0.0,0.0,3.0658,3.0188,2.9453,2.9098,2.9098,2.9098,0.0,0.0,3.252,3.3138,3.3301,3.2529,3.1774,3.0966,3.0229,2.9439,2.8649,2.7947,2.7701,2.7701,2.7701,2.7674,2.76,2.76,2.7554,2.737,2.6568,2.642,2.6338,2.5516,2.5291,2.5419,2.6107,2.6212,2.6353,2.721,2.7403,2.742,2.7526,2.7063,2.6585,0.0,0.0,0.0,0.0,0.0,0.0,0.0,0.0,0.0,0.0,0.0,0.0,0.0,0.0,3.0527,3.2142,3.1513,0.0,0.0,0.0,0.0,2.8604,2.7778,0.0,2.7204,0.0,2.5673,2.47,2.47,2.47,2.47,2.4706,2.469,2.469,2.4564,2.4512,2.4503,2.4498,2.45,2.45,2.45,2.45,2.45,2.45,2.45,2.45,2.8592,3.0507,0.0,0.0,0.0,3.2242,3.187,3.0823,3.0363,3.1174,3.0375,2.9671,2.947,2.8783,2.8484,2.8824,2.8454,0.0,0.0,0.0,0.0,3.1396,3.1758,3.272,3.4411,3.31,3.2678,0.0,0.0,0.0,3.0188,2.9453,2.9098,2.9098,2.9098,0.0,3.0989,3.2047,0.0,3.2511,3.1721,3.0966,3.0211,2.9404,2.8614,2.7894,2.7754,2.7701,2.7701,2.7701,2.7701,2.7686,2.7686,2.7672,2.7516,2.678,2.6553,2.6409,2.5602,2.4963,2.4519,2.466,2.419,2.4072,2.5489,2.5805,2.5998,2.6665,2.6861,2.6473,2.4993,0.0,0.0,0.0,0.0,0.0,0.0,0.0,0.0,0.0,0.0,2.9605,0.0,0.0,0.0,0.0,0.0,0.0,0.0,0.0,0.0,0.0,2.8641,0.0,0.0,0.0,2.6228,2.47,2.47,2.47,2.47,2.47,2.4692,2.4711,2.4631,2.4572,2.459,2.4515,2.45,2.45,2.45,2.45,2.45,2.45,2.45,2.45,2.987,0.0,0.0,0.0,0.0,0.0,0.0,3.1031,0.0,3.116,3.0385,2.9828,2.9998,2.9197,2.8687,2.8875,2.8414,2.8259,2.8665,2.8951,2.9618,3.0729,3.0969,3.1617,3.2806,3.1769,3.1722,3.2771,0.0,0.0,3.0701,0.0,0.0,2.9121,0.0,3.0491,0.0,0.0,0.0,3.1739,3.1352,3.051,2.9439,2.9053,2.8403,2.7701,2.7701,2.7701,2.7701,2.7701,2.7455,2.721,2.7578,2.7157,2.6437,2.6072,2.5717,2.5226,2.4436,2.3962,2.3781,2.4203,2.401,2.4015,2.5138,2.5401,2.5507,2.5897,2.5786,2.5322,2.447,2.468,0.0,0.0,0.0,0.0,0.0,0.0,2.9283,0.0,0.0,0.0,0.0,0.0,0.0,0.0,0.0,0.0,0.0,0.0,0.0,0.0,0.0,0.0,0.0,0.0,0.0,2.47,2.47,2.47,2.47,2.47,2.47,2.47,2.4663,2.4658,2.4631,2.4549,2.4498,2.45,2.45,2.45,2.45,2.45,2.45,2.45,3.0462,3.122,0.0,0.0,3.2355,0.0,3.2451,3.119,3.0543,3.1412,3.0601,3.0131,3.047,2.9498,2.886,2.8935,2.8381,2.8207,2.8598,2.8622,2.9116,3.0148,3.0204,3.0496,3.1182,3.0528,3.0742,0.0,0.0,0.0,0.0,0.0,0.0,0.0,0.0,0.0,0.0,0.0,3.169,3.1193,3.1019,3.0141,2.8877,2.8719,2.8245,2.7701,2.7701,2.7701,2.7701,2.7701,2.7315,2.6946,2.7526,2.6753,2.563,2.5441,2.4875,2.4115,2.3318,2.3107,2.3247,2.3887,2.4045,2.4238,2.498,2.5173,2.5173,2.5173,2.4695,2.4409,2.473,2.5174,0.0,0.0,0.0,0.0,0.0,0.0,0.0,0.0,0.0,0.0,2.9939,0.0,0.0,0.0,0.0,0.0,0.0,0.0,0.0,0.0,0.0,2.8969,2.7467,0.0,2.6191,0.0,2.47,2.47,2.47,2.47,2.47,2.47,2.4706,2.4674,2.4658,2.4539,2.4507,2.45,2.45,2.45,2.45,2.45,2.45,2.45,0.0,0.0,0.0,0.0,0.0,0.0,3.1997,3.1257,3.0985,3.1737,3.0506,2.9556,2.9616,2.8971,2.8691,2.9053,2.8677,2.8622,2.9029,2.9029,2.9391,3.0172,3.0204,3.0496,3.1182,3.0528,3.0267,0.0,0.0,0.0,0.0,0.0,0.0,0.0,0.0,0.0,0.0,3.2161,3.1915,3.1124,3.0475,2.9685,2.8825,2.8087,2.7771,2.7701,2.7701,2.7701,2.7701,2.7701,2.7648,2.7613,2.7683,2.7139,2.6335,2.5598,2.4875,2.4115,2.3318,2.3107,2.3125,2.3195,2.3212,2.3423,2.4221,2.4396,2.4396,2.4396,2.4344,2.473,2.6139,2.6047,2.6009,0.0,0.0,0.0,0.0,0.0,2.9052,2.8207,0.0,0.0,0.0,2.9411,0.0,0.0,3.1316,0.0,0.0,0.0,0.0,3.0818,0.0,2.9251,2.8303,2.6837,0.0,2.47,2.47,2.47,2.47,2.47,2.47,2.47,2.4706,2.4623,2.4512,2.4507,2.45,2.45,2.45,2.45,2.45,2.45,2.45,2.45,0.0,0.0,0.0,0.0,0.0,0.0,0.0,3.0566,3.0417,3.0982,3.0151,2.945,2.9272,2.8762,2.867,2.9296,2.8526,2.8252,2.882,2.8484,2.8564,2.9259,2.9291,2.9627,3.0332,3.0287,3.0464,0.0,0.0,0.0,0.0,0.0,0.0,0.0,0.0,3.2303,3.2735,3.2494,3.1932,3.1124,3.0404,2.9632,2.8807,2.7999,2.7701,2.7701,2.7701,2.7701,2.7631,2.7192,2.7052,2.7052,2.7052,2.6209,2.5169,2.4835,2.4203,2.3506,2.3195,2.3107,2.3107,2.3107,2.3107,2.3177,2.3506,2.3576,2.3576,2.3576,2.4313,2.5156,2.577,2.6601,2.7321,0.0,0.0,0.0,0.0,0.0,0.0,2.7483,0.0,2.7297,0.0,2.9008,3.0256,0.0,0.0,0.0,0.0,0.0,0.0,3.1623,0.0,2.9288,2.8407,2.7279,2.604,2.47,2.47,2.47,2.47,2.47,2.47,2.47,2.4703,2.4655,2.4555,2.4566,2.4542,2.45,2.45,2.45,2.45,2.45,2.45,2.45,3.0249,0.0,3.0243,0.0,3.036,3.0149,2.9991,2.9509,2.9379,2.99,2.9382,2.8959,2.8996,2.8674,2.8608,2.8934,2.8194,2.7948,2.8452,2.8046,2.8038,2.858,2.8596,0.0,2.9716,2.9963,3.0452,3.1158,3.1574,0.0,0.0,0.0,0.0,0.0,3.2301,3.2542,3.3125,3.2371,3.1581,3.0808,3.0053,2.9263,2.8491,2.7912,2.7701,2.7701,2.7701,2.7701,2.7596,2.6858,2.6598,2.6563,2.6318,2.5349,2.4304,2.4304,2.3797,2.3211,2.3211,2.3271,2.3301,2.3301,2.3301,2.3301,2.3301,2.3301,2.3443,2.3915,2.489,2.5777,2.6233,2.7353,2.8285,2.8478,0.0,0.0,0.0,0.0,0.0,0.0,2.6609,2.6758,2.7668,2.8951,3.0384,0.0,0.0,0.0,0.0,0.0,0.0,0.0,0.0,0.0,0.0,2.7373,2.6115,2.47,2.47,2.47,2.47,2.47,2.47,2.47,2.4692,2.4671,2.4623,2.4599,2.453,2.4498,2.4508,2.45,2.45,2.45,2.45,2.45,2.9671,2.9766,2.9868,3.0077,2.9336,2.8721,2.8721,2.814,2.7967,2.8639,2.8149,2.7967,2.8618,2.8704,2.8424,2.7773,2.7708,2.7782,2.7997,2.8001,2.8122,0.0,0.0,2.8784,2.9591,2.9607,2.9995,3.0821,0.0,0.0,3.0734,0.0,3.2662,3.2623,3.3207,3.3073,3.2353,3.1563,3.0791,3.0053,2.9246,2.8438,2.7701,2.7701,2.7701,2.7701,2.7701,2.7701,2.7596,2.6858,2.6598,2.6458,2.5682,2.4892,2.4304,2.4304,2.3914,2.3504,2.3504,2.3642,2.3795,2.3795,2.3795,2.3795,2.3795,2.3795,2.4248,2.583,2.6192,2.6663,2.8178,2.8485,2.8504,2.8504,0.0,0.0,0.0,0.0,0.0,2.6999,2.7594,2.7761,2.6981,2.9136,0.0,0.0,0.0,0.0,0.0,0.0,0.0,3.095,3.0114,0.0,2.8407,2.6818,2.5579,2.47,2.47,2.47,2.47,2.47,2.47,2.47,2.4706,2.4709,2.4701,2.4555,2.4503,2.4495,2.4498,2.45,2.45,2.45,2.45,2.45,2.8489,2.8451,2.8398,2.8447,2.8222,2.8045,2.82,2.8201,2.8331,2.8724,2.8691,2.855,2.8317,2.7966,2.7949,0.0,2.769,2.7464,0.0,2.7602,2.757,2.8165,2.8148,2.8469,2.9248,2.9465,2.9983,3.0791,0.0,0.0,0.0,3.2298,3.2492,3.2439,3.2091,3.1791,3.1528,3.0773,3.0317,3.0036,2.9228,2.8754,2.8456,2.7912,2.7701,2.7631,2.7139,2.7042,2.6947,2.5666,2.5335,2.5309,2.4562,2.4403,2.4413,2.391,2.3728,2.37,2.37,2.3753,2.3806,2.3806,2.3806,2.3806,2.3806,2.3806,2.4096,2.5157,2.5817,2.6512,2.7556,2.8348,2.8838,2.8838,2.9082,0.0,0.0,0.0,0.0,0.0,2.6981,2.6795,0.0,2.8969,0.0,0.0,0.0,0.0,0.0,0.0,0.0,0.0,3.0377,0.0,2.8407,2.7355,2.6115,2.47,2.47,2.47,2.47,2.47,2.47,2.47,2.4692,2.4706,2.4682,2.4607,2.4547,2.4495,2.4498,2.45,2.45,2.45,2.45,2.45,2.7961,2.7765,2.7575,2.7673,2.7558,2.7474,2.7611,2.7774,2.8038,2.8486,2.8423,2.8306,2.8219,2.7692,0.0,2.8063,2.7436,2.7244,2.7806,2.741,2.7389,2.7936,2.7919,2.8247,2.9007,0.0,0.0,3.0541,3.0691,3.1036,3.1545,3.1545,3.1545,3.151,3.1001,3.0791,3.0738,2.9983,2.965,2.9579,2.8772,2.8486,2.8511,2.8015,2.789,2.7897,2.7435,2.7184,2.69,2.5655,2.5089,2.4817,2.407,2.4129,2.4331,2.3786,2.3753,2.3919,2.3919,2.3979,2.4067,2.4067,2.4067,2.4067,2.4067,2.4067,2.4286,2.5112,2.5897,2.6721,2.7508,2.8485,2.9156,2.9156,2.9294,2.9174,2.8542,0.0,0.0,0.0,0.0,0.0,0.0,2.9081,2.9824,0.0,0.0,0.0,0.0,0.0,0.0,3.1165,3.0309,0.0,2.8039,2.7576,2.6469,2.47,2.47,2.47,2.47,2.47,2.47,2.47,2.47,2.4711,2.4687,2.4631,2.459,2.4539,2.4507,2.45,2.45,2.45,2.45,2.45,2.7801,2.754,0.0,0.0,2.7284,0.0,2.7022,2.7022,2.7279,2.798,2.7466,2.7392,2.8259,2.7787,2.7326,2.707,0.0,0.0,0.0,2.7419,2.7494,2.7701,2.7701,2.8052,2.8807,2.8825,2.9211,3.0036,3.0055,3.0106,3.0106,3.0106,3.0106,3.0106,3.0053,3.0034,2.9982,2.9189,2.8855,2.8785,2.8044,2.7847,2.8025,2.8025,2.8179,2.8415,2.8288,2.7876,2.7222,2.6439,2.5634,2.4852,2.4156,2.4086,2.4182,2.3899,2.3969,2.4126,2.4126,2.4312,2.45,2.45,2.45,2.45,2.45,2.45,2.4723,2.554,2.6293,2.7074,2.7947,2.8765,2.9322,2.9378,2.9341,2.8765,2.7204,0.0,0.0,0.0,0.0,0.0,0.0,2.9396,2.9415,0.0,0.0,0.0,0.0,0.0,3.1346,2.9847,3.0007,2.9246,2.7428,2.7547,2.6635,2.4704,2.4707,2.47,2.47,2.47,2.47,2.47,2.47,2.47,2.47,2.4621,2.4607,2.4599,2.4534,2.45,2.45,2.45,2.45,2.45,0.0,0.0,2.7097,2.7147,2.7076,2.707,2.7261,2.731,2.7425,2.7751,2.7642,2.7622,2.7842,2.7717,2.7597,2.7552,2.7519,2.7567,2.7627,2.7627,2.7642,2.7701,2.7701,2.7789,2.7982,2.7982,2.8386,2.9176,2.9808,3.0106,3.0106,3.0106,3.0106,3.0088,2.9581,2.9327,2.9289,2.8642,2.8361,2.8344,2.8148,2.8165,2.8308,2.8308,2.8446,2.8464,2.7245,2.683,2.6644,2.524,2.4737,2.4669,2.4492,2.4471,2.4435,2.4126,2.421,2.4411,2.4411,2.4446,2.45,2.45,2.45,2.45,2.45,2.45,2.4723,2.554,2.5856,2.6423,2.7836,2.8263,2.8635,2.9285,2.8839,2.8263,2.7873,2.7297,0.0,0.0,2.7817,2.8226,2.9304,2.9396,2.9638,0.0,0.0,0.0,0.0,3.0989,3.0911,2.9992,3.0053,2.9289,2.7579,2.7587,2.6682,2.4847,2.4742,2.47,2.47,2.47,2.47,2.47,2.47,2.47,2.47,2.4671,2.465,2.4599,2.453,2.4507,2.45,2.45,2.45,2.45,2.5715,2.6249,2.6738,2.7131,2.7244,2.7369,2.7524,2.7539,2.7615,2.7821,2.7836,2.7864,2.7918,2.7933,2.7933,2.7933,2.7789,2.7701,2.7701,2.7701,2.7701,2.7701,2.7701,2.7701,2.7701,2.7701,2.7912,2.8351,2.8789,2.9064,2.9125,2.9125,2.917,2.9228,2.8906,2.8776,2.8754,2.8527,2.8425,2.8425,2.8425,2.8509,2.8628,2.8628,2.8564,2.8364,2.749,2.6807,2.621,2.5363,2.4891,2.465,2.465,2.465,2.4599,2.4392,2.44,2.4507,2.4507,2.4498,2.45,2.45,2.45,2.45,2.45,2.45,2.4611,2.5057,2.5448,2.5968,2.6832,2.7297,2.7706,2.817,2.7854,2.7557,2.7557,2.7185,0.0,2.8003,2.8096,2.843,2.9322,2.9396,2.9582,3.001,0.0,0.0,3.0274,3.0541,3.0476,3.0019,2.9805,2.9052,2.7704,2.6817,2.5874,2.4902,2.4764,2.47,2.47,2.47,2.47,2.47,2.47,2.47,2.47,2.4663,2.4658,2.4642,2.4549,2.4497,2.4507,2.4508,2.45,2.45,2.5428,2.585,2.6291,2.7013,2.728,2.7429,2.7566,2.7584,2.7694,2.7979,2.8025,2.8081,2.8228,2.8224,2.8237,2.8264,2.8014,2.7829,2.7789,2.7774,2.7774,2.7774,2.7786,2.7786,2.7774,2.7786,2.7815,2.7815,2.7706,2.7756,2.7913,2.7913,2.7999,2.8103,2.8371,2.8466,2.8478,2.8688,2.876,2.876,2.876,2.8769,2.8791,2.8791,2.8474,2.8025,2.7914,2.7036,2.5897,2.5826,2.5311,2.4698,2.4698,2.4698,2.469,2.4631,2.4572,2.4539,2.4512,2.4524,2.4517,2.4517,2.4517,2.4508,2.4508,2.4508,2.45,2.45,2.5039,2.5559,2.5689,2.6256,2.6795,2.7037,2.6981,2.6907,2.6907,0.0,2.7297,2.7854,2.8133,2.8597,2.9322,2.9396,2.9351,2.9233,2.9335,2.9426,0.0,2.9704,2.9766,2.9668,2.9367,2.869,2.7637,2.5837,2.4929,2.4902,2.4764,2.47,2.47,2.47,2.47,2.47,2.47,2.47,2.47,2.4629,2.4639,2.4666,2.4559,2.4515,2.4505,2.449,2.45,2.45,2.4519,2.5057,2.5602,2.5848,2.5906,2.6185,2.6997,2.7117,2.7361,2.8088,2.8178,2.821,2.8342,2.8368,2.8433,2.8603,2.8578,2.8433,2.8146,2.8119,2.8119,2.8119,2.8228,2.8242,2.8119,2.8228,2.8303,2.8303,2.7777,2.7556,2.7568,2.7568,2.758,2.7652,2.8456,2.8819,2.883,2.8986,2.9031,2.9031,2.9031,2.8741,2.83,2.83,2.7904,2.7264,2.6597,2.6201,2.5871,2.5158,2.4812,2.4692,2.4692,2.4692,2.4692,2.4684,2.4679,2.4658,2.4607,2.4572,2.4582,2.4582,2.4539,2.4495,2.4495,2.4507,2.45,2.45,2.4592,2.489,2.5578,2.5801,2.633,2.7687,2.7334,2.6907,2.6907,0.0,2.7706,2.7148,2.8337,2.9248,2.9388,2.9396,2.9142,2.8512,2.8493,2.8272,2.7736,2.7883,2.8013,2.8058,2.8865,2.8473,2.679,2.5639,2.5006,2.4902,2.4764,2.47,2.47,2.47,2.47,2.47,2.47,2.47,2.47,2.4692,2.4671,2.4615,2.459,2.4549,2.4508,2.45,2.45,2.45,2.4369,2.4741,2.5131,2.5625,2.5709,2.6001,2.6867,2.7005,2.7178,2.7695,2.7774,2.7694,2.7508,2.7476,2.751,2.76,2.7611,2.7562,2.7397,2.8069,2.8476,2.8476,2.8534,2.8529,2.8476,2.8123,2.7912,2.7912,2.7156,2.6872,2.6958,2.6958,2.6991,2.7086,2.7596,2.8075,2.8521,2.8673,2.8714,2.8714,2.8714,2.8287,2.767,2.767,2.7209,2.6518,2.6132,2.5692,2.5233,2.4839,2.47,2.47,2.47,2.47,2.47,2.47,2.4695,2.4693,2.4615,2.4607,2.4607,2.4607,2.4572,2.4555,2.4555,2.4539,2.4549,2.4549,2.4532,2.4608,2.4999,2.5047,2.5299,2.6042,2.62,0.0,0.0,2.7594,2.8133,2.8226,2.8932,2.9396,2.9396,2.9078,2.8708,2.8371,2.8091,2.779,2.749,2.7655,2.7591,2.7178,2.7634,2.7253,2.5914,2.5435,2.5109,2.4902,2.4832,2.4772,2.47,2.47,2.47,2.47,2.47,2.47,2.47,2.4703,2.4671,2.465,2.4572,2.453,2.4488,2.4508,2.45,2.45,2.4277,2.4419,2.4651,2.5291,2.5398,2.5697,2.6524,2.665,2.6802,2.7184,2.7237,2.7101,2.6767,2.6742,2.6762,2.6801,2.6829,2.6829,2.6829,2.7785,2.8388,2.8509,2.8686,2.8734,2.8597,2.7988,2.7562,2.7361,2.6541,2.6229,2.6376,2.6376,2.6445,2.6552,2.6833,2.7345,2.7979,2.809,2.8116,2.8116,2.8116,2.7628,2.6923,2.6923,2.6405,2.5692,2.5692,2.5278,2.47,2.47,2.47,2.47,2.47,2.47,2.47,2.47,2.4703,2.469,2.4639,2.4613,2.4613,2.4613,2.4623,2.4615,2.4615,2.4615,2.4607,2.4607,2.4564,2.452,2.452,2.4513,2.4581,2.4767,0.0,0.0,0.0,2.7781,2.8515,2.8793,2.9187,2.9357,2.9199,2.8736,2.8375,2.8229,2.7659,2.7243,2.7102,2.7227,2.704,2.6446,2.6419,2.6065,2.5308,2.5308,2.5179,2.4902,2.4902,2.4825,2.47,2.47,2.47,2.47,2.47,2.47,2.47,2.4695,2.469,2.4666,2.4564,2.4503,2.4505,2.449,2.45,2.45,2.3772,2.3871,2.4012,2.4185,2.4223,2.4546,2.5471,2.5619,2.5896,2.6661,2.6753,2.6796,2.6888,2.6888,2.6963,2.7161,2.7151,2.7151,2.7151,2.7255,2.7503,2.7935,2.8665,2.8807,2.8246,2.8171,2.7752,2.6934,2.6316,2.6018,2.6045,2.6045,2.6035,2.608,2.685,2.7206,2.7262,2.7271,2.7298,2.7298,2.7298,2.6818,2.6094,2.6094,2.556,2.4801,2.4801,2.4737,2.47,2.47,2.47,2.47,2.47,2.47,2.47,2.47,2.47,2.47,2.4692,2.4692,2.4692,2.4692,2.4687,2.4682,2.4682,2.4631,2.4607,2.4607,2.4599,2.458,2.458,2.4599,2.4833,2.558,0.0,0.0,2.6991,2.8322,2.8749,2.7269,2.8559,2.9289,2.8547,2.8544,2.8336,2.7705,2.6925,2.6211,2.5606,2.5584,2.5579,2.558,2.5584,2.5505,2.5308,2.5308,2.5179,2.4902,2.4902,2.4825,2.47,2.47,2.47,2.47,2.47,2.47,2.47,2.47,2.4653,2.4607,2.4599,2.4557,2.4508,2.45,2.45,2.45,2.4077,2.4107,2.4154,2.421,2.422,2.4505,2.5364,2.5493,2.5633,2.6024,2.607,2.5949,2.5577,2.5537,2.5581,2.5638,2.5646,2.5646,2.5646,2.5646,2.6189,2.741,2.7765,2.7811,2.7586,2.7089,2.6677,2.6332,2.5566,2.5196,2.5196,2.5196,2.5196,2.5214,2.5515,2.5946,2.6462,2.6462,2.6462,2.6462,2.6462,2.5955,2.5196,2.5196,2.4989,2.47,2.47,2.47,2.47,2.47,2.47,2.47,2.47,2.47,2.47,2.47,2.47,2.47,2.47,2.47,2.47,2.47,2.4692,2.4703,2.4703,2.4687,2.466,2.466,2.4663,2.4666,2.4666,2.4623,2.47,2.501,0.0,2.629,2.6253,2.7214,2.768,2.7047,2.764,2.798,2.7628,2.7377,2.7134,2.6861,2.6195,2.5659,2.5412,2.5404,2.5429,2.5507,2.5507,2.5472,2.5419,2.5337,2.5217,2.5018,2.4948,2.4825,2.47,2.47,2.47,2.47,2.47,2.47,2.47,2.47,2.466,2.4607,2.4607,2.4557,2.45,2.45,2.45,2.45,2.4366,2.4614,2.4826,2.4826,2.5031,2.5309,2.5606,2.5662,2.5578,2.5405,2.5395,2.5213,2.4748,2.4933,2.5008,2.4718,2.4951,2.4989,2.4718,2.47,2.5346,2.6754,2.7073,2.7073,2.6837,2.6274,2.5869,2.5598,2.4989,2.47,2.47,2.47,2.47,2.47,2.47,2.5027,2.5598,2.5598,2.5598,2.5598,2.5598,2.5233,2.47,2.47,2.47,2.47,2.47,2.47,2.47,2.47,2.47,2.47,2.47,2.47,2.47,2.47,2.47,2.47,2.47,2.47,2.47,2.47,2.47,2.47,2.47,2.47,2.47,2.47,2.4703,2.4706,2.4706,2.4663,2.4621,2.4621,2.5313,2.5855,2.583,2.6565,2.6994,2.6716,2.7075,2.7237,2.6938,2.6651,2.6488,2.6488,2.5808,2.5406,2.5427,2.5421,2.5456,2.5507,2.5507,2.5507,2.5507,2.5406,2.5274,2.5109,2.5019,2.4867,2.47,2.47,2.47,2.47,2.47,2.47,2.47,2.47,2.466,2.4607,2.4607,2.4557,2.45,2.45,2.45,2.45,2.4503,2.5311,2.6,2.6,2.6668,2.6923,2.6132,2.6,2.5692,2.482,2.47,2.47,2.47,2.5485,2.5654,2.4801,2.5504,2.5635,2.4782,2.4718,2.5102,2.5981,2.6762,2.6818,2.6019,2.6,2.556,2.47,2.47,2.47,2.47,2.47,2.47,2.47,2.47,2.47,2.47,2.47,2.47,2.47,2.4707,2.4707,2.47,2.4707,2.4707,2.47,2.4707,2.4707,2.47,2.4707,2.4707,2.4707,2.4707,2.4707,2.4707,2.4707,2.4707,2.47,2.4707,2.4707,2.4707,2.47,2.47,2.47,2.47,2.47,2.47,2.47,2.47,2.47,2.47,2.47,2.47,2.4707,2.5429,2.5965,2.5908,2.6707,2.6964,2.611,2.6993,2.7366,2.6559,2.6607,2.6684,2.6684,2.5891,2.5429,2.5507,2.5507,2.5507,2.5507,2.5507,2.5507,2.5507,2.5507,2.536,2.509,2.509,2.4968,2.4707,2.4707,2.4707,2.47,2.47,2.47,2.47,2.47,2.466,2.4607,2.4607,2.4557,2.45,2.45,2.45,2.45,2.4634,2.489,2.5278,2.5888,2.6207,2.6274,2.6038,2.6,2.5692,2.482,2.47,2.47,2.47,2.5485,2.5906,2.5635,2.585,2.5888,2.5635,2.6134,2.6566,2.6829,2.5946,2.5609,2.6,2.541,2.4951,2.47,2.47,2.47,2.47,2.47,2.47,2.47,2.47,2.47,2.47,2.47,2.47,2.4715,2.479,2.4787,2.4715,2.4797,2.4787,2.4715,2.4816,2.4787,2.4738,2.4922,2.4922,2.4854,2.4961,2.4922,2.4861,2.4942,2.4847,2.4734,2.4935,2.4915,2.483,2.4712,2.47,2.47,2.47,2.47,2.47,2.47,2.47,2.47,2.47,2.47,2.4719,2.4837,2.5066,2.5246,2.5335,2.5571,2.5641,2.5329,2.5717,2.5901,2.562,2.5712,2.5799,2.5799,2.5584,2.5484,2.5507,2.5507,2.5507,2.5507,2.5507,2.5507,2.5507,2.5406,2.5322,2.5243,2.5149,2.5,2.4832,2.4832,2.4794,2.47,2.47,2.47,2.47,2.47,2.4695,2.4666,2.4615,2.4555,2.4497,2.449,2.45,2.45,2.5139,2.5477,2.5965,2.6791,2.7232,2.7344,2.6998,2.6942,2.6529,2.5364,2.5496,2.5571,2.5252,2.6247,2.6818,2.6499,2.6462,2.6462,2.6462,2.6923,2.7336,2.7665,2.6451,2.5846,2.6,2.5485,2.5045,2.47,2.47,2.47,2.4707,2.4749,2.4779,2.4787,2.4825,2.4854,2.4854,2.4854,2.4854,2.4867,2.4955,2.4935,2.4867,2.4955,2.4935,2.4867,2.4961,2.4935,2.4881,2.5056,2.5056,2.4987,2.5066,2.5037,2.5006,2.5086,2.4994,2.4895,2.5068,2.5031,2.4968,2.4881,2.4854,2.4854,2.4854,2.4854,2.4854,2.4854,2.4854,2.4854,2.4854,2.4854,2.4888,2.4974,2.4987,2.5019,2.5078,2.5149,2.5171,2.5116,2.5279,2.5355,2.5327,2.5391,2.5433,2.5433,2.5484,2.5507,2.5507,2.5507,2.5507,2.5507,2.5507,2.5507,2.5507,2.5415,2.5346,2.5303,2.5165,2.5068,2.4987,2.4867,2.4816,2.4779,2.4712,2.47,2.47,2.47,2.4668,2.4658,2.4615,2.4566,2.4497,2.4508,2.45,2.45,2.5823,2.6537,2.7279,2.8219,2.9007,2.9232,2.851,2.8388,2.7853,2.6311,2.6743,2.6885,2.6094,2.7448,2.8078,2.7279,2.7336,2.7392,2.7317,2.739,2.7766,2.849,2.7956,2.7218,2.6282,2.618,2.572,2.4847,2.4922,2.4922,2.4847,2.4974,2.4979,2.4929,2.5056,2.509,2.509,2.509,2.509,2.509,2.5101,2.5121,2.509,2.5101,2.5121,2.509,2.5101,2.5121,2.509,2.5101,2.5132,2.5143,2.5143,2.5132,2.5126,2.5138,2.5126,2.5115,2.5138,2.5132,2.5126,2.5138,2.5143,2.5138,2.5115,2.509,2.509,2.509,2.509,2.509,2.509,2.509,2.5096,2.5126,2.5126,2.5132,2.5118,2.5243,2.5322,2.5322,2.5438,2.5507,2.5507,2.5507,2.5507,2.5507,2.5507,2.5507,2.5507,2.5507,2.5507,2.5507,2.5507,2.5507,2.5507,2.5507,2.5447,2.5317,2.5187,2.5113,2.5084,2.4847,2.4794,2.4874,2.4749,2.47,2.47,2.47,2.466,2.4615,2.4607,2.4557,2.4508,2.45,2.45,2.45,2.5831,2.5598,2.5901,2.8032,2.804,2.7899,2.8332,2.8388,2.8059,2.7073,2.7092,2.6885,2.6094,2.7448,2.8078,2.7279,2.8406,2.8875,2.8191,2.8875,2.9385,2.9574,2.954,2.9124,2.829,2.7604,2.6861,2.6028,2.667,2.6651,2.6035,2.606,2.571,2.5049,2.5097,2.509,2.509,2.509,2.509,2.5121,2.5203,2.5187,2.5101,2.5222,2.5187,2.5101,2.5228,2.5182,2.5126,2.5228,2.5332,2.5415,2.5415,2.5341,2.5274,2.5373,2.5269,2.5149,2.5355,2.5337,2.5274,2.5397,2.5415,2.5355,2.5154,2.509,2.509,2.509,2.509,2.509,2.509,2.509,2.5138,2.5243,2.5253,2.5284,2.5406,2.5432,2.5459,2.5459,2.548,2.5507,2.5507,2.5507,2.5507,2.5507,2.5507,2.5507,2.5507,2.5507,2.5507,2.5507,2.5507,2.5507,2.5507,2.5507,2.5499,2.5459,2.5423,2.5298,2.5109,2.5031,2.4922,2.4734,2.4715,2.47,2.47,2.47,2.4692,2.4668,2.4631,2.459,2.4574,2.4525,2.45,2.45,2.591,2.6076,2.6619,2.8309,2.8582,2.873,2.915,2.9207,2.8911,2.8112,2.8351,2.8283,2.7463,2.8483,2.9044,2.8616,2.9385,2.9707,2.9244,2.9711,3.0004,3.0004,3.0117,2.9813,2.9014,2.9021,2.8351,2.6962,2.7006,2.6809,2.6388,2.6033,2.5633,2.5192,2.5264,2.5288,2.5288,2.5288,2.5288,2.5293,2.536,2.5351,2.5293,2.536,2.5351,2.5293,2.5364,2.5351,2.5298,2.5364,2.5432,2.5507,2.5507,2.5459,2.541,2.5476,2.5406,2.5313,2.5468,2.5455,2.541,2.548,2.5507,2.5468,2.5313,2.5288,2.5288,2.5288,2.5288,2.5288,2.5288,2.5288,2.5303,2.5373,2.5397,2.5415,2.5484,2.5507,2.5507,2.5507,2.5507,2.5507,2.5507,2.5507,2.5507,2.5507,2.5507,2.5662,2.6048,2.6068,2.6068,2.6068,2.6068,2.6068,2.6068,2.5681,2.5898,2.6691,2.6243,2.5769,2.5303,2.5523,2.5361,2.4888,2.4757,2.47,2.47,2.47,2.4684,2.4645,2.4604,2.4582,2.4541,2.4517,2.45,2.45,2.622,2.7025,2.7912,2.8853,2.9516,2.9937,3.007,3.0109,2.9867,2.9193,2.9695,2.9791,2.8989,2.9492,2.9956,3.0089,3.0109,3.0109,3.0109,3.0117,3.0131,3.0131,3.0265,3.004,2.9374,3.0168,2.9713,2.7896,2.7372,2.697,2.6663,2.6053,2.5606,2.5337,2.5455,2.5507,2.5507,2.5507,2.5507,2.5507,2.5507,2.5507,2.5507,2.5507,2.5507,2.5507,2.5507,2.5507,2.5507,2.5507,2.5507,2.5507,2.5507,2.5507,2.5507,2.5507,2.5507,2.5507,2.5507,2.5507,2.5507,2.5507,2.5507,2.5507,2.5507,2.5507,2.5507,2.5507,2.5507,2.5507,2.5507,2.5507,2.5507,2.5507,2.5507,2.5507,2.5507,2.5507,2.5507,2.5507,2.5507,2.5507,2.5507,2.5507,2.5565,2.5681,2.57,2.6068,2.688,2.6919,2.6919,2.6919,2.6919,2.6919,2.6919,2.6107,2.6478,2.7991,2.7205,2.6419,2.5695,2.5912,2.5672,2.5043,2.4816,2.47,2.47,2.47,2.466,2.4615,2.4607,2.4557,2.4508,2.45,2.45,2.45,2.7236,2.751,2.8084,2.965,2.9453,2.9307,2.9994,3.0109,3.0051,2.9956,3.0032,2.9791,2.8989,2.9008,2.9345,3.0032,3.0109,3.0109,3.0109,3.0209,3.0277,3.0277,3.0465,3.0521,3.0405,3.053,3.0105,2.9076,2.9714,2.927,2.7782,2.7679,2.6867,2.5472,2.5484,2.5507,2.5507,2.5507,2.5507,2.5507,2.5507,2.5507,2.5507,2.5507,2.5507,2.5507,2.5507,2.5507,2.5507,2.5507,2.5507,2.5507,2.5507,2.5507,2.5507,2.5507,2.5507,2.5507,2.5507,2.5507,2.5507,2.5507,2.5507,2.5507,2.5507,2.5507,2.5507,2.5507,2.5507,2.5507,2.5507,2.5507,2.5507,2.5507,2.5507,2.5507,2.5507,2.5507,2.5507,2.5507,2.5507,2.5507,2.5507,2.5507,2.5797,2.6493,2.6551,2.6919,2.7778,2.7817,2.7817,2.7817,2.7817,2.7817,2.7817,2.6977,2.7035,2.7991,2.7862,2.7324,2.642,2.5619,2.5126,2.4922,2.4764,2.47,2.47,2.47,2.4695,2.4674,2.4615,2.4555,2.4505,2.4498,2.45,2.45,2.7662,2.8168,2.8788,2.9528,2.9765,2.9963,3.0337,3.0375,3.0375,3.0375,3.0375,3.024,2.9886,2.9847,3.0001,3.0356,3.0375,3.0375,3.0375,3.0425,3.0471,3.0471,3.0554,3.0598,3.0598,3.0598,3.0404,3.0037,2.9921,2.9229,2.7991,2.7503,2.6633,2.5507,2.5507,2.5507,2.5507,2.5507,2.5507,2.5507,2.5507,2.5507,2.5507,2.5507,2.5507,2.5507,2.5507,2.5507,2.5507,2.5507,2.5507,2.5507,2.5507,2.5507,2.5507,2.5507,2.5507,2.5507,2.5507,2.5507,2.5507,2.5507,2.5507,2.5507,2.5507,2.5507,2.5507,2.5507,2.5507,2.5507,2.5507,2.5507,2.5507,2.5507,2.5507,2.5507,2.5507,2.5507,2.5507,2.5507,2.5507,2.5507,2.5507,2.5913,2.6319,2.6663,2.7151,2.7813,2.8687,2.8726,2.8726,2.8726,2.8726,2.8726,2.8726,2.7383,2.7634,2.9437,2.7967,2.7312,2.7349,2.6846,2.6284,2.5692,2.5083,2.4772,2.47,2.47,2.4687,2.4631,2.4615,2.4566,2.4507,2.4508,2.45,2.45]}]]